     2              OBSERVATION DATA    GPS                 RINEX VERSION / TYPE
teqc 1998Mar9 19981006 17:17:19UTC                          PGM / RUN BY / DATE
                                                            COMMENT
Original Marker Name: 0617                                  COMMENT
Campaign Name: HPGN 1998                                    COMMENT
4-Character Station Name: 0617                              COMMENT
6-Character Antenna Code: TRMCMP                            COMMENT
Vertical Measurement Point: BPA                             COMMENT
Vertical Offset to Rinex Ref. Point: 0.0000                 COMMENT
Radial Measurement Point: RRP                               COMMENT
Radial Offset to Rinex Ref. Point: 0.0000                   COMMENT
Antenna Height from Field Measurement: 2.0000 m             COMMENT
Original XYZ: -2497601.3085 -4576122.8528 3663050.8055      COMMENT
New XYZ position is based on association with SCEC monument COMMENT
E1E9Z1D8+0011. Position of that monument is believed to be  COMMENT
valid to within 1 m horizontally; vertical accuracy         COMMENT
should be no worse than 3-times this value.                 COMMENT
                                                            COMMENT
Revised Rinex header created by UCSD GPS archive for        COMMENT
GSAC on 19-Apr-1999 (1999:109) 06:06:21 GMT                 COMMENT
For assistance contact dagnew@ucsd.edu or hjohnson@ucsd.edu COMMENT
                                                            COMMENT
HPGN CA 06 17                                               MARKER NAME
unknown CALIF DEPT TRANSPORTATION                           OBSERVER / AGENCY
4869 TRIMBLE 4000 SSE NP 7.25; SP 3.07                      REC # / TYPE / VERS
76725 TR GEOD L1/L2 GP                                      ANT # / TYPE
 -2497601.0000 -4576122.0000  3663044.0000                  APPROX POSITION XYZ
        2.0000        0.0000        0.0000                  ANTENNA: DELTA H/E/N
     1     1     0                                          WAVELENGTH FACT L1/2
     7    L1    L2    C1    P2    P1    D1    D2            # / TYPES OF OBSERV
     0                                                      INTERVAL
  1998     6    30    14    45   15.000000                  TIME OF FIRST OBS
  1998     6    30    20    15   15.000000                  TIME OF LAST OBS
                                                            END OF HEADER
 98  6 30 14 45 15.0000000  0  7G 2G 4G 8G 7G 5G 9G24
   2662964.51655   2036787.49153  23583436.9304   23583442.1564
     -2877.9844      -2242.5854
   -297796.51157   -232048.82257  20578538.6484   20578540.8874
      -127.7194        -99.5214
  -2546711.49055  -1852556.34255  22532052.7424   22532055.9774
      2241.3594       1746.5144
   2508668.87856   1937134.92555  22437183.2814   22437188.0634
     -2630.3444      -2049.6194
  -2383905.33156   -804397.97855  22557012.7194   22557016.0594
      2260.6254       1761.5264
   -230583.72157   -175154.08557  21130769.2584   21130771.9304
      -173.2034       -134.9634
  -2402213.28657  -1863162.73356  21201661.5634   21201665.5004
      2085.7664       1625.2724
 98  6 30 14 45 30.0000000  0  7G 2G 4G 8G 7G 5G 9G24
   2706179.68645   2070461.65044  23591659.5944   23591666.6524
     -2884.0784      -2247.3344
   -295787.43647   -230483.30746  20578921.0234   20578923.4024
      -140.2194       -109.2614
  -2580261.79545  -1878699.42345  22525668.6094   22525672.2664
      2232.0314       1739.2454
   2548147.21746   1967897.23545  22444695.6724   22444700.7234
     -2633.4224      -2052.0174
  -2417786.30146   -830798.72645  22550565.7114   22550569.1914
      2256.7814       1758.5314
   -227900.81747   -173063.52647  21131279.6804   21131282.4344
      -184.4694       -143.7424
  -2433429.09747  -1887486.73246  21195721.6094   21195726.0044
      2076.3594       1617.9424
 98  6 30 14 45 45.0000000  0  7G 2G 4G 8G 7G 5G 9G24
   2749486.72245   2104207.27644  23599901.5944   23599908.4654
     -2890.2344      -2252.1314
   -293589.70147   -228770.78446  20579339.1644   20579341.2624
      -152.7974       -119.0624
  -2613670.69645  -1904732.33845  22519311.1804   22519314.5904
      2222.4534       1731.7824
   2587670.78246   1998694.78745  22452216.5314   22452221.4304
     -2636.4064      -2054.3434
  -2451608.78746   -857153.91145  22544129.3284   22544132.7974
      2252.9064       1755.5114
   -225050.87147   -170842.80047  21131821.9304   21131824.8014
      -195.5004       -152.3384
  -2464503.36147  -1911700.43846  21189808.1334   21189812.4924
      2066.8914       1610.5644
 98  6 30 14 46  0.0000000  0  7G 2G 4G 8G 7G 5G 9G24
   2792887.93845   2138026.33344  23608160.2584   23608165.8484
     -2896.5784      -2257.0744
   -291204.76347   -226912.39246  20579793.1174   20579795.4024
      -165.0784       -128.6324
  -2646934.86545  -1930652.46545  22512981.4774   22512984.7344
      2212.7814       1724.2454
   2627239.20346   2029527.29045  22459746.5784   22459751.9454
     -2639.3754      -2056.6564
  -2485374.64246   -883464.96545  22537703.8444   22537707.0784
      2249.3134       1752.7114
   -222036.12647   -168493.66147  21132395.8594   21132398.7544
      -206.4844       -160.8974
  -2495436.43247  -1935804.11746  21183922.0164   21183926.0234
      2057.5474       1603.2834
 98  6 30 14 46 15.0000000  0  7G 2G 4G 8G 7G 5G 9G24
   2836386.06345   2171920.94944  23616438.2114   23616444.4224
     -2903.1414      -2262.1874
   -288637.57147   -224911.97747  20580281.6174   20580283.8204
      -177.1874       -138.0684
  -2680052.21545  -1956458.20445  22506679.1254   22506682.6524
      2202.9064       1716.5504
   2666855.57546   2060397.16245  22467285.3204   22467290.0204
     -2642.7664      -2059.2984
  -2519086.45146   -909733.89545  22531288.8054   22531292.8834
      2245.6724       1749.8744
   -218854.05547   -166014.13547  21133001.1644   21133003.9184
      -217.7664       -169.6874
  -2526228.33547  -1959797.80246  21178062.5084   21178066.4344
      2048.1094       1595.9294
 98  6 30 14 46 30.0000000  0  7G 2G 4G 8G 7G 5G 9G24
   2879983.61745   2205892.96644  23624734.5084   23624740.6024
     -2909.8124      -2267.3864
   -285886.20247   -222768.05946  20580805.2344   20580807.4144
      -189.6564       -147.7844
  -2713021.26645  -1982148.36345  22500405.4064   22500409.3324
      2192.9694       1708.8074
   2706523.05346   2091306.84445  22474833.8204   22474838.4844
     -2646.2194      -2061.9894
  -2552742.42246   -935959.32345  22524884.3204   22524887.7304
      2241.8134       1746.8674
   -215500.52047   -163400.99947  21133639.2814   21133641.8714
      -229.3594       -178.7224
  -2556877.78247  -1983680.48146  21172230.0164   21172234.1644
      2038.5164       1588.4544
 98  6 30 14 46 45.0000000  0  7G 2G 4G 8G 7G 5G 9G24
   2923680.28545   2239942.28043  23633048.8054   23633054.5354
     -2916.4224      -2272.5374
   -282947.82747   -220478.41347  20581364.4454   20581366.6954
      -202.2344       -157.5854
  -2745842.38245  -2007723.25245  22494159.3834   22494162.4414
      2183.1724       1701.1734
   2746242.17346   2122256.78245  22482392.1954   22482396.9304
     -2649.6564      -2064.6674
  -2586341.56446   -962140.47045  22518490.4224   22518493.4694
      2238.0784       1743.9574
   -211976.05747   -160654.67647  21134310.2504   21134312.6524
      -240.6094       -187.4884
  -2587383.58647  -2007451.22846  21166424.8834   21166428.7384
      2028.8754       1580.9424
 98  6 30 14 47  0.0000000  0  7G 2G 4G 8G 7G 5G 9G24
   2967477.33245   2274069.75943  23641383.8524   23641389.8524
     -2923.2344      -2277.8454
   -279817.43747   -218039.14646  20581960.1254   20581962.1994
      -215.1414       -167.6424
  -2778515.31845  -2033182.68145  22487942.7814   22487946.2854
      2173.1884       1693.3934
   2786015.04646   2153248.59745  22489960.8984   22489965.2934
     -2653.4224      -2067.6014
  -2619884.00646   -988277.43645  22512107.8674   22512111.2074
      2234.2344       1740.9624
   -208280.63247   -157775.13447  21135013.3284   21135015.7194
      -252.1724       -196.4984
  -2617742.54147  -2031107.54646  21160647.8834   21160651.8674
      2018.9534       1573.2104
 98  6 30 14 47 15.0000000  0  7G 2G 4G 8G 7G 5G 9G24
   3011376.15145   2308276.57143  23649737.0864   23649742.2774
     -2929.8914      -2283.0324
   -276496.45747   -215451.36847  20582592.2344   20582594.2504
      -227.6094       -177.3584
  -2811039.07245  -2058525.84745  22481753.5084   22481756.6024
      2163.3444       1685.7224
   2825841.81646   2184282.40845  22497539.9304   22497544.5474
     -2656.7814      -2070.2194
  -2653369.36846  -1014369.91345  22505735.3284   22505739.0664
      2230.5004       1738.0524
   -204412.25347   -154760.82747  21135749.4694   21135751.6844
      -263.6724       -205.4594
  -2647954.86447  -2054649.61246  21154898.4924   21154902.4774
      2009.3754       1565.7474
 98  6 30 14 47 30.0000000  0  7G 2G 4G 8G 7G 5G 9G24
   3055376.16645   2342562.24643  23658111.1334   23658117.0394
     -2936.6564      -2288.3044
   -272987.40747   -212717.03847  20583259.7194   20583261.8874
      -240.1874       -187.1594
  -2843414.62345  -2083753.54845  22475592.1174   22475595.8204
      2153.4844       1678.0404
   2865721.09046   2215357.14345  22505128.1564   22505132.3874
     -2660.3754      -2073.0194
  -2686795.91546  -1040416.57645  22499374.6414   22499378.4144
      2226.4534       1734.8994
   -200367.46547   -151609.05547  21136519.2894   21136521.6564
      -275.5624       -214.7244
  -2678022.90147  -2078079.24146  21149176.9694   21149180.8594
      1999.7504       1558.2474
 98  6 30 14 47 45.0000000  0  7G 2G 4G 8G 7G 5G 9G24
   3099475.92345   2376925.66343  23666502.1724   23666508.1484
     -2943.3594      -2293.5274
   -269290.59447   -209836.39446  20583963.1884   20583965.4964
      -252.7974       -196.9854
  -2875642.71445  -2108866.34745  22469459.0554   22469462.9224
      2143.5004       1670.2604
   2905654.37246   2246473.94545  22512727.7584   22512732.9614
     -2664.1564      -2075.9664
  -2720161.90546  -1066416.04045  22493025.0394   22493028.2734
      2222.2814       1731.6484
   -196144.73947   -148318.62346  21137322.9224   21137325.3244
      -287.5474       -224.0624
  -2707946.06947  -2101395.97546  21143482.6954   21143486.3984
      1989.9844       1550.6374
 98  6 30 14 48  0.0000000  0  7G 2G 4G 8G 7G 5G 9G24
   3143675.49044   2411366.78543  23674913.3834   23674920.2894
     -2949.8914      -2298.6164
   -265405.15647   -206808.77646  20584702.5234   20584704.8444
      -265.2504       -206.6884
  -2907719.52845  -2133861.24645  22463355.7974   22463359.4884
      2133.4384       1662.4194
   2945645.16846   2277635.58145  22520337.4384   22520342.4184
     -2667.9374      -2078.9124
  -2753466.61346  -1092367.75245  22486687.7504   22486691.6524
      2218.3754       1728.6044
   -191740.96247   -144887.11846  21138160.8284   21138163.2664
      -299.6094       -233.4624
  -2737724.08447  -2124599.61746  21137815.9614   21137819.9224
      1980.4694       1543.2224
 98  6 30 14 48 15.0000000  0  7G 2G 4G 8G 7G 5G 9G24
   3187973.01745   2445884.26343  23683343.6644   23683347.8594
     -2956.3284      -2303.6324
   -261331.47447   -203634.47146  20585477.8364   20585480.0744
      -277.8754       -216.5264
  -2939644.77445  -2158738.05745  22457280.4694   22457284.6644
      2123.3284       1654.5414
   2985694.43046   2308842.76045  22527958.7114   22527963.6914
     -2671.9224      -2082.0174
  -2786712.05846  -1118273.29445  22480360.8524   22480364.6844
      2214.3914       1725.4994
   -187153.93047   -141312.81546  21139033.8284   21139036.4534
      -311.9844       -243.1054
  -2767359.28847  -2147691.97946  21132176.7034   21132180.7464
      1970.9384       1535.7954
 98  6 30 14 48 30.0000000  0  7G 2G 4G 8G 7G 5G 9G24
   3232363.16244   2480473.97943  23691789.3204   23691795.1454
     -2962.2814      -2308.2714
   -257067.63347   -200311.99646  20586289.3284   20586291.7424
      -290.6094       -226.4494
  -2971421.54045  -2183499.16845  22451233.4144   22451236.7194
      2113.6564       1647.0054
   3025801.54546   2340095.03845  22535590.5704   22535595.5044
     -2675.5784      -2084.8664
  -2819897.85546  -1144132.34745  22474045.8524   22474049.7664
      2210.5004       1722.4684
   -182383.81347   -137595.84846  21139941.5704   21139944.2664
      -323.9374       -252.4194
  -2796852.94647  -2170674.04046  21126564.1414   21126568.2424
      1961.6254       1528.5394
 98  6 30 14 48 45.0000000  0  7G 2G 4G 8G 7G 5G 9G24
   3276843.72745   2515134.02143  23700255.0474   23700261.1884
     -2968.3914      -2313.0324
   -252610.47547   -196838.88446  20587137.4694   20587139.7194
      -303.5474       -236.5304
  -3003051.70246  -2208146.05345  22445214.4614   22445218.3524
      2103.7034       1639.2494
   3065964.23646   2371390.60545  22543232.9774   22543237.9224
     -2679.3444      -2087.8004
  -2853023.58546  -1169944.60545  22467742.3054   22467745.7974
      2206.3284       1719.2174
   -177433.73247   -133738.65046  21140883.3914   21140886.1454
      -335.9534       -261.7824
  -2826204.36147  -2193545.26446  21120978.7974   21120982.8404
      1951.9534       1521.0024
 98  6 30 14 49  0.0000000  0  7G 2G 4G 8G 7G 5G 9G24
   3321414.68745   2549864.60043  23708735.3054   23708741.6804
     -2974.4844      -2317.7804
   -247963.42747   -193217.80346  20588021.7424   20588024.2034
      -316.0944       -246.3074
  -3034534.29146  -2232677.92445  22439223.8674   22439227.5704
      2093.9064       1631.6154
   3106179.99746   2402727.53245  22550886.1484   22550891.2464
     -2682.7664      -2090.4674
  -2886089.56346  -1195710.29645  22461450.1094   22461453.8714
      2202.4224       1716.1734
   -172306.77047   -129743.62346  21141859.2194   21141862.1724
      -347.7664       -270.9864
  -2855413.48847  -2216305.62346  21115420.5314   21115424.4694
      1942.5314       1513.6614
 98  6 30 14 49 15.0000000  0  7G 2G 4G 8G 7G 5G 9G24
   3366079.50744   2584668.32443  23717235.4144   23717241.7194
     -2980.8754      -2322.7604
   -243129.08747   -189450.78446  20588941.4304   20588943.7974
      -328.4844       -255.9624
  -3065866.98846  -2257093.01545  22433260.8754   22433264.3554
      2083.7034       1623.6654
   3146447.58846   2434104.84245  22558548.9614   22558553.7774
     -2686.3124      -2093.2314
  -2919095.55746  -1221429.25045  22455169.4224   22455173.4884
      2198.2974       1712.9594
   -166999.53347   -125608.12346  21142869.1484   21142872.1844
      -359.9064       -280.4464
  -2884480.60847  -2238955.31646  21109889.2114   21109893.0204
      1933.0784       1506.2954
 98  6 30 14 49 30.0000000  0  7G 2G 4G 8G 7G 5G 9G24
   3410839.61845   2619546.24943  23725753.1644   23725759.3404
     -2987.1564      -2327.6544
   -238109.51147   -185539.42146  20589896.8524   20589899.3014
      -340.8754       -265.6174
  -3097045.74146  -2281388.15045  22427327.6884   22427331.3554
      2073.5004       1615.7144
   3186767.73446   2465523.10745  22566221.9534   22566227.5314
     -2689.7504      -2095.9094
  -2952039.53246  -1247099.87745  22448900.0474   22448903.9384
      2194.2344       1709.7934
   -161511.01647   -121331.36946  21143913.7974   21143916.9384
      -371.9224       -289.8094
  -2913406.73647  -2261495.15346  21104384.7814   21104388.7544
      1923.6724       1498.9654
 98  6 30 14 49 45.0000000  0  7G 2G 4G 8G 7G 5G 9G24
   3455693.55644   2654497.31842  23734288.2034   23734294.3444
     -2993.3124      -2332.4514
   -232903.84347   -181483.05446  20590887.4774   20590889.9494
      -353.2194       -275.2354
  -3128071.88046  -2305564.36345  22421423.9774   22421427.4924
      2063.2974       1607.7644
   3227139.38146   2496981.49545  22573903.8204   22573909.0004
     -2693.0944      -2098.5154
  -2984923.36046  -1272723.62645  22442642.2734   22442646.6454
      2190.2814       1706.7134
   -155843.60447   -116915.21147  21144991.9774   21144994.9534
      -383.7194       -299.0024
  -2942190.20947  -2283923.82546  21098907.6334   21098911.6054
      1914.0944       1491.5024
 98  6 30 14 50  0.0000000  0  7G 2G 4G 8G 7G 5G 9G24
   3500641.13845   2689521.29843  23742842.1884   23742848.8444
     -2999.6874      -2337.4194
   -227512.20847   -177281.77946  20591913.3524   20591915.9534
      -365.6564       -284.9274
  -3158942.65846  -2329619.50045  22415549.0234   22415552.3054
      2052.8134       1599.5944
   3267561.34146   2528479.10145  22581596.4454   22581602.1294
     -2696.4844      -2101.1574
  -3017745.48146  -1298299.30745  22436397.0394   22436401.1994
      2185.9844       1703.3644
   -149997.12147   -112359.52146  21146104.5704   21146107.4184
      -395.8444       -308.4504
  -2970827.56947  -2306238.64746  21093458.0704   21093462.2424
      1904.2034       1483.7954
 98  6 30 14 50 15.0000000  0  7G 2G 4G 8G 7G 5G 9G24
   3545682.76845   2724618.63443  23751413.3204   23751418.8754
     -3005.8754      -2342.2404
   -221935.87847   -172936.58346  20592974.6564   20592977.0234
      -377.9064       -294.4724
  -3189659.32146  -2353554.57045  22409704.0704   22409707.5514
      2042.7664       1591.7654
   3308031.76946   2560014.45545  22589297.4844   22589303.0274
     -2699.6254      -2103.6044
  -3050504.01446  -1323825.43045  22430162.9144   22430166.3834
      2181.7504       1700.0654
   -143970.68747   -107663.61047  21147251.4534   21147254.1844
      -407.7344       -317.7154
  -2999316.84747  -2328438.08446  21088036.7114   21088040.9064
      1894.2664       1476.0514
 98  6 30 14 50 30.0000000  0  7G 2G 4G 8G 7G 5G 9G24
   3590817.87845   2759788.79242  23760001.7664   23760007.7074
     -3012.1564      -2347.1354
   -216176.00547   -168448.36546  20594070.5784   20594073.1564
      -390.1094       -303.9814
  -3220226.97746  -2377373.51045  22403887.6024   22403891.0474
      2032.9384       1584.1074
   3348549.86346   2591586.95645  22597008.0474   22597013.6374
     -2702.8124      -2106.0884
  -3083196.78746  -1349300.31345  22423942.1094   22423946.5044
      2177.2814       1696.5834
   -137764.96547   -102827.99147  21148432.2034   21148435.0274
      -419.6724       -327.0174
  -3027654.64247  -2350519.47446  21082644.1644   21082648.3134
      1884.0474       1468.0884
 98  6 30 14 50 45.0000000  0  7G 2G 4G 8G 7G 5G 9G24
   3636048.50145   2795033.37743  23768609.6804   23768616.8914
     -3018.6724      -2352.2124
   -210232.65947   -163817.17946  20595201.6254   20595204.3444
      -402.3124       -313.4904
  -3250646.93746  -2401077.38145  22398098.7194   22398102.3164
      2022.9694       1576.3394
   3389114.76446   2623195.94445  22604727.2194   22604733.0204
     -2705.8594      -2108.4624
  -3115823.39846  -1374723.64245  22417733.2504   22417737.1644
      2172.9224       1693.1864
   -131381.07847    -97853.54247  21149647.2974   21149650.0164
      -431.5944       -336.3074
  -3055838.70847  -2372481.08446  21077280.8674   21077285.1564
      1873.7814       1460.0894
 98  6 30 14 51  0.0000000  0  7G 2G 4G 8G 7G 5G 9G24
   3681379.80244   2830356.42243  23777234.8754   23777241.6844
     -3025.3754      -2357.4354
   -204106.15347   -159043.28046  20596367.4694   20596370.0704
      -414.5004       -322.9874
  -3280912.89546  -2424661.24745  22392339.3204   22392343.4804
      2012.5944       1568.2554
   3429726.94246   2654841.76545  22612455.7344   22612461.0084
     -2709.0004      -2110.9094
  -3148382.30846  -1400094.22345  22411537.6254   22411541.7154
      2168.3914       1689.6554
   -124814.45247    -92736.70147  21150896.7814   21150899.6174
      -443.8754       -345.8774
  -3083867.04747  -2394321.34146  21071947.5394   21071951.8524
      1863.4534       1452.0414
 98  6 30 14 51 15.0000000  0  7G 2G 4G 8G 7G 5G 9G24
   3726809.50845   2865756.05443  23785881.5554   23785886.6644
     -3031.8284      -2362.4634
   -197795.94347   -154126.22646  20597568.2034   20597570.7234
      -426.8914       -332.6424
  -3311024.78446  -2448125.04845  22386608.8594   22386613.5234
      2002.3284       1560.2564
   3470386.56546   2686524.54645  22620192.6954   22620197.9344
     -2712.3124      -2113.4904
  -3180876.09546  -1425414.04845  22405354.3204   22405358.2584
      2164.1414       1686.3434
   -118062.87147    -87475.73447  21152181.4534   21152184.1374
      -456.2974       -355.5564
  -3111741.99947  -2416042.07646  21066643.0784   21066647.2974
      1853.2344       1444.0794
 98  6 30 14 51 30.0000000  0  7G 2G 4G 8G 7G 5G 9G24
   3772334.23945   2901229.86743  23794543.7584   23794549.9924
     -3038.1254      -2367.3704
   -191297.30847   -149062.35346  20598804.7034   20598807.1764
      -439.6564       -342.5894
  -3340981.73646  -2471468.11645  22380908.7194   22380912.9964
      1991.9384       1552.1594
   3511098.59546   2718248.17745  22627940.2034   22627945.4304
     -2715.9844      -2116.3514
  -3213305.13646  -1450683.42145  22399183.2274   22399186.8594
      2159.7034       1682.8864
   -111124.97747    -82069.58847  21153501.8524   21153504.3714
      -468.7194       -365.2354
  -3139463.89147  -2437643.53846  21061367.6644   21061371.7774
      1843.0004       1436.1044
 98  6 30 14 51 45.0000000  0  7G 2G 4G 8G 7G 5G 9G24
   3817952.67845   2936776.62743  23803224.9224   23803232.6604
     -3044.3284      -2372.2044
   -184605.65947   -143848.07646  20600078.1254   20600080.5744
      -452.5624       -352.6464
  -3370784.59545  -2494691.13045  22375236.7034   22375240.9924
      1981.8284       1544.2824
   3551864.61546   2750013.86545  22635697.2034   22635702.1134
     -2719.4534      -2119.0544
  -3245668.80846  -1475901.86445  22393024.6024   22393028.2344
      2155.4844       1679.5984
   -104001.82547    -76519.08547  21154857.3284   21154860.0704
      -481.0004       -374.8054
  -3167031.15747  -2459124.52246  21056121.5474   21056125.7074
      1832.6414       1428.0324
 98  6 30 14 52  0.0000000  0  7G 2G 4G 8G 7G 5G 9G24
   3863662.99245   2972394.94343  23811922.5554   23811928.3794
     -3050.4374      -2376.9644
   -177720.58747   -138483.07846  20601388.4774   20601391.2074
      -465.5314       -362.7524
  -3400436.57546  -2517796.56145  22369594.6644   22369598.7774
      1971.7504       1536.4294
   3592682.31946   2781819.82645  22643465.2114   22643470.4264
     -2722.9534      -2121.7824
  -3277969.73346  -1501071.41445  22386878.0164   22386881.8484
      2151.2664       1676.3114
    -96694.77647    -70825.28746  21156247.9144   21156250.7974
      -493.3124       -384.3994
  -3194443.99947  -2480485.16646  21050905.2664   21050909.3554
      1822.4224       1420.0694
 98  6 30 14 52 15.0000000  0  7G 2G 4G 8G 7G 5G 9G24
   3909465.63945   3008085.33443  23820638.5704   23820644.4184
     -3056.5784      -2381.7494
   -170638.93447   -132964.90446  20602735.9844   20602738.4224
      -478.7034       -373.0154
  -3429937.11346  -2540783.99045  22363981.4144   22363985.4224
      1961.6724       1528.5754
   3633554.04946   2813667.90445  22651242.4534   22651247.8444
     -2726.6094      -2124.6314
  -3310207.74846  -1526191.93745  22380743.3444   22380747.2814
      2147.2194       1673.1574
    -89202.97447    -64987.52347  21157673.5314   21157676.3554
      -505.5474       -393.9334
  -3221705.26747  -2501727.70846  21045717.5704   21045721.5784
      1812.4694       1412.3134
 98  6 30 14 52 30.0000000  0  7G 2G 4G 8G 7G 5G 9G24
   3955361.53445   3043848.26843  23829372.7274   23829379.9264
     -3062.9064      -2386.6804
   -163357.40147   -127290.97946  20604121.7814   20604124.2074
      -492.1254       -383.4744
  -3459284.63346  -2563652.19045  22358396.0394   22358399.9064
      1951.2974       1520.4914
   3674481.36146   2845559.27245  22659030.7814   22659035.8094
     -2730.2974      -2127.5044
  -3342384.84146  -1551264.99545  22374620.2664   22374624.4264
      2143.0474       1669.9074
    -81527.08747    -59006.31746  21159134.0554   21159136.9844
      -517.8914       -403.5514
  -3248817.24147  -2522853.91646  21040558.1724   21040562.0514
      1802.4844       1404.5334
 98  6 30 14 52 45.0000000  0  7G 2G 4G 8G 7G 5G 9G24
   4001353.83145   3079686.29543  23838125.3444   23838131.4844
     -3069.3754      -2391.7214
   -155876.22847   -121461.49346  20605545.2894   20605547.8914
      -505.4064       -393.8234
  -3488473.89046  -2586397.04745  22352841.7894   22352845.9384
      1940.5944       1512.1514
   3715462.22446   2877492.37545  22666829.5004   22666835.2194
     -2733.7814      -2130.2194
  -3374499.14546  -1576289.11745  22368509.0394   22368512.8594
      2138.8914       1666.6684
    -73666.30447    -52881.04046  21160629.9614   21160632.8914
      -530.1724       -413.1214
  -3275781.03647  -2543864.65546  21035427.2034   21035431.2234
      1792.7194       1396.9244
 98  6 30 14 53  0.0000000  0  7G 2G 4G 8G 7G 5G 9G24
   4047441.29145   3115598.59043  23846895.1094   23846901.0514
     -3075.6874      -2396.6404
   -148196.36047   -115477.17646  20607006.7274   20607009.2814
      -518.5474       -404.0624
  -3517500.99246  -2609015.57745  22347317.7504   22347321.5354
      1929.7034       1503.6654
   3756492.93046   2909464.31945  22674637.7504   22674643.3874
     -2737.0624      -2132.7764
  -3406552.26646  -1601265.57645  22362409.7894   22362413.7504
      2134.7504       1663.4424
    -65622.47547    -46613.13446  21162160.6254   21162163.6844
      -542.3914       -422.6424
  -3302600.79747  -2564763.16246  21030323.4924   21030327.6294
      1783.1564       1389.4724
 98  6 30 14 53 15.0000000  0  7G 2G 4G 8G 7G 5G 9G24
   4093625.08245   3151585.84743  23855684.6884   23855690.2774
     -3082.0474      -2401.5954
   -140319.32647   -109339.22846  20608505.6644   20608508.1844
      -531.6414       -414.2654
  -3546365.23146  -2631507.18045  22341825.4224   22341829.1134
      1918.9694       1495.3004
   3797575.38646   2941476.58745  22682455.2034   22682460.2774
     -2740.5164      -2135.4674
  -3438540.29646  -1626191.29645  22356322.7584   22356326.5664
      2130.4384       1660.0814
    -57395.26647    -40202.32746  21163726.2194   21163729.1254
      -554.4064       -432.0054
  -3329274.52847  -2585547.88046  21025247.9144   21025251.9344
      1773.4384       1381.8994
 98  6 30 14 53 30.0000000  0  7G 2G 4G 8G 7G 5G 9G24
   4139905.73045   3187648.68743  23864490.0864   23864496.4734
     -3088.7504      -2406.8184
   -132246.96947   -103049.07846  20610041.7584   20610044.1134
      -544.6414       -424.3954
  -3575069.69946  -2653874.29545  22336363.6954   22336367.3984
      1908.2664       1486.9604
   3838708.70246   2973528.49145  22690282.5554   22690287.4884
     -2743.9064      -2138.1094
  -3470464.56946  -1651067.34945  22350247.3054   22350250.9964
      2126.0314       1656.6484
    -48991.67647    -33654.08346  21165325.3204   21165328.4384
      -566.0164       -441.0514
  -3355802.83547  -2606219.28246  21020199.4694   21020203.5944
      1763.6884       1374.3024
 98  6 30 14 53 45.0000000  0  7G 2G 4G 8G 7G 5G 9G24
   4186288.41844   3223790.95043  23873317.3674   23873322.6764
     -3095.6564      -2412.2004
   -123982.25347    -96609.03946  20611614.4614   20611616.7934
      -557.2814       -434.2454
  -3603613.63446  -2676116.31845  22330931.1484   22330934.8754
      1897.5634       1478.6204
   3879889.82046   3005617.63445  22698119.3834   22698124.5044
     -2746.9064      -2140.4464
  -3502321.90046  -1675891.24545  22344185.1804   22344188.5904
      2121.5944       1653.1904
    -40415.82947    -26971.60946  21166957.5164   21166960.5044
      -577.4224       -449.9394
  -3382185.06847  -2626776.85446  21015179.1254   21015183.1804
      1753.9224       1366.6924
 98  6 30 14 54  0.0000000  0  7G 2G 4G 8G 7G 5G 9G24
   4232778.38845   3260016.81543  23882163.8914   23882169.9964
     -3102.9064      -2417.8494
   -115527.19047    -90020.67446  20613223.5474   20613225.8554
      -569.9374       -444.1074
  -3631995.06946  -2698231.71045  22325530.4614   22325533.9654
      1886.7194       1470.1704
   3921117.56646   3037743.11045  22705964.6024   22705970.0864
     -2750.0474      -2142.8944
  -3534110.47346  -1700661.54945  22338136.0704   22338139.4224
      2116.9694       1649.5864
    -31666.58447    -20154.02746  21168622.4534   21168625.4304
      -589.0784       -459.0224
  -3408417.06947  -2647217.37546  21010187.4614   21010191.4804
      1743.7664       1358.7784
 98  6 30 14 54 15.0000000  0  7G 2G 4G 8G 7G 5G 9G24
   4279375.68445   3296326.33742  23891031.1254   23891037.8164
     -3110.2034      -2423.5354
   -106884.69147    -83286.26146  20614868.1094   20614870.4534
      -582.5314       -453.9204
  -3660213.69346  -2720220.24845  22320160.5634   22320163.6334
      1875.6094       1461.5144
   3962392.05046   3069905.00845  22713819.0554   22713824.2114
     -2753.3284      -2145.4504
  -3565829.50046  -1725377.66445  22332099.8984   22332103.7894
      2112.0944       1645.7874
    -22742.97547    -13200.57246  21170320.4384   21170323.3674
      -600.8754       -468.2144
  -3434497.64647  -2667539.89646  21005224.4924   21005228.7584
      1733.5004       1350.7794
 98  6 30 14 54 30.0000000  0  7G 2G 4G 8G 7G 5G 9G24
   4326082.75245   3332721.38243  23899919.2664   23899926.3014
     -3117.5004      -2429.2214
    -98054.68147    -76405.73546  20616548.3594   20616550.6914
      -594.8754       -463.5394
  -3688265.12146  -2742078.48745  22314822.8134   22314826.5984
      1864.4694       1452.8334
   4003714.10046   3102103.96845  22721681.8674   22721687.1994
     -2756.3594      -2147.8124
  -3597475.80646  -1750037.12045  22326078.0394   22326081.1214
      2107.2974       1642.0504
    -13643.39447     -6109.99847  21172052.0634   21172054.9104
      -612.5944       -477.3464
  -3460423.52147  -2687741.86746  21000290.9304   21000295.0084
      1723.1254       1342.6954
 98  6 30 14 54 45.0000000  0  7G 2G 4G 8G 7G 5G 9G24
   4372900.26044   3369202.51943  23908827.7974   23908834.6684
     -3124.8754      -2434.9684
    -89040.10347    -69381.38746  20618263.8364   20618266.3444
      -607.0784       -473.0484
  -3716149.17946  -2763806.31745  22309516.8984   22309521.1054
      1853.4064       1444.2134
   4045081.25146   3134338.07445  22729554.2274   22729559.3364
     -2759.3284      -2150.1264
  -3629047.89346  -1774638.73445  22320069.8364   22320073.5744
      2102.2814       1638.1414
     -4365.73447      1119.34346  21173817.5554   21173820.3554
      -624.4534       -486.5874
  -3486191.25247  -2707820.61146  20995387.5004   20995391.8134
      1712.5634       1334.4644
 98  6 30 14 55  0.0000000  0  7G 2G 4G 8G 7G 5G 9G24
   4419828.68844   3405769.99642  23917758.2974   23917764.0044
     -3132.1564      -2440.6414
    -79840.38347    -62212.77746  20620014.4694   20620017.0354
      -619.5474       -482.7644
  -3743867.18946  -2785404.76745  22304241.7034   22304245.8754
      1842.3594       1435.6054
   4086496.81846   3166609.91145  22737435.5164   22737441.3874
     -2762.7814      -2152.8174
  -3660544.37546  -1799181.44845  22314076.3524   22314080.4064
      2097.2814       1634.2454
      5091.31947      8488.46746  21175617.1254   21175619.7734
      -636.4534       -495.9374
  -3511798.61047  -2727774.38646  20990514.5474   20990518.7544
      1701.7504       1326.0394
 98  6 30 14 55 15.0000000  0  7G 2G 4G 8G 7G 5G 9G24
   4466865.51845   3442421.98643  23926709.8444   23926716.6764
     -3139.4374      -2446.3154
    -70454.63147    -54899.20546  20621800.3444   20621802.8874
      -631.8754       -492.3704
  -3771420.65346  -2806874.97845  22298998.6094   22299002.7464
      1831.4694       1427.1194
   4127966.24946   3198923.70545  22745326.4774   22745331.6804
     -2766.5164      -2155.7264
  -3691966.62846  -1823666.30545  22308097.3754   22308101.1134
      2092.2974       1630.3614
     14727.71347     15997.34046  21177451.1484   21177453.9384
      -648.4374       -505.2764
  -3537243.07847  -2747601.23446  20985672.6254   20985676.9264
      1690.8134       1317.5164
 98  6 30 14 55 30.0000000  0  7G 2G 4G 8G 7G 5G 9G24
   4514009.73045   3479157.72343  23935681.0004   23935687.9184
     -3146.3914      -2451.7334
    -60883.22947    -47440.97046  20623621.7584   20623624.2894
      -644.3754       -502.1104
  -3798811.53346  -2828218.51745  22293785.9384   22293789.7934
      1820.5944       1418.6444
   4169491.55646   3231281.05945  22753228.7584   22753233.6454
     -2770.2034      -2158.6004
  -3723315.57846  -1848094.05345  22302131.6644   22302135.0744
      2087.5944       1626.6964
     24542.46847     23645.19447  21179318.5234   21179321.3014
      -660.2504       -514.4814
  -3562524.80947  -2767301.28246  20980861.6334   20980865.7704
      1680.1094       1309.1764
 98  6 30 14 55 45.0000000  0  7G 2G 4G 8G 7G 5G 9G24
   4561256.11643   3515972.97942  23944670.7034   23944677.3594
     -3153.1254      -2456.9814
    -51122.68347    -39835.34946  20625479.0944   20625481.6844
      -657.0784       -512.0094
  -3826037.94746  -2849433.88445  22288605.2504   22288609.3054
      1809.5634       1410.0494
   4211072.55946   3263681.80045  22761141.5234   22761147.1374
     -2773.9694      -2161.5344
  -3754593.41946  -1872466.38745  22296179.2814   22296182.5514
      2082.6724       1622.8614
     34538.06847     31433.97246  21181220.6884   21181223.4304
      -672.6414       -524.1364
  -3587645.95047  -2786876.18546  20976081.1954   20976085.3444
      1669.2664       1300.7264
 98  6 30 14 56  0.0000000  0  8G 2G 4G 8G 7G 5G 9G16G24
   4608600.01045   3552864.27042  23953682.1644   23953688.3754
     -3159.5164      -2461.9604
    -41171.93647    -32081.52746  20627372.9384   20627375.5164
      -669.8594       -521.9684
  -3853097.88246  -2870519.54545  22283455.8674   22283460.0984
      1798.2974       1401.2704
   4252710.28946   3296126.74745  22769064.6094   22769070.0594
     -2777.8914      -2164.5904
  -3785797.72846  -1896781.42245  22290241.5474   22290245.1454
      2077.7504       1619.0264
     44722.41747     39369.82446  21183158.7274   21183161.4804
      -685.4064       -534.0834
     -1535.11953                  24671005.0704
       305.2814
  -3612603.02347  -2806323.24746  20971332.3204   20971336.5394
      1658.1724       1292.0824
 98  6 30 14 56 15.0000000  0  8G 2G 4G 8G 7G 5G 9G16G24
   4656040.34344   3589830.73643  23962707.7034   23962714.2194
     -3165.8444      -2466.8914
    -31027.34547    -24176.65346  20629303.2894   20629305.7624
      -682.7974       -532.0504
  -3879988.20446  -2891473.03145  22278339.5004   22278343.5204
      1787.0314       1392.4924
   4294408.26346   3328618.63545  22776999.4614   22777004.4654
     -2781.8444      -2167.6704
  -3816926.09046  -1921037.28645  22284318.2584   22284321.6804
      2072.6254       1615.0324
     55100.40947     47456.56546  21185133.5004   21185136.2664
      -698.3444       -544.1644
     -6038.76143                  24670147.0784
       295.2194
  -3637391.85147  -2825639.20846  20966614.9454   20966619.1524
      1647.0634       1283.4254
 98  6 30 14 56 30.0000000  0  8G 2G 4G 8G 7G 5G 9G16G24
   4703575.15144   3626870.72443  23971754.0864   23971759.8284
     -3172.1414      -2471.7984
    -20687.49747    -16119.62746  20631270.9144   20631273.2814
      -695.8754       -542.2404
  -3906707.18946  -2912293.00745  22273254.6564   22273258.3484
      1775.4844       1383.4944
   4336166.02146   3361157.11645  22784946.0004   22784951.4844
     -2785.8914      -2170.8244
  -3847976.13446  -1945232.11545  22278409.5474   22278413.1334
      2067.3444       1610.9174
     65671.71047     55693.94146  21187145.3594   21187148.1954
      -711.1564       -554.1484
    -10392.36444                  24669319.0784
       285.3594
  -3662015.41947  -2844826.39246  20961929.1254   20961933.2974
      1636.1564       1274.9274
 98  6 30 14 56 45.0000000  0  8G 2G 4G 8G 7G 5G 9G16G24
   4751203.54344   3663983.70542  23980818.1644   23980823.7194
     -3178.4374      -2476.7054
    -10152.84847     -7910.80946  20633275.7424   20633277.9924
      -708.8754       -552.3704
  -3933255.69346  -2932980.14145  22268202.4924   22268206.2544
      1764.1724       1374.6794
   4377984.28346   3393742.74145  22792903.8204   22792908.7894
     -2790.0474      -2174.0624
  -3878948.07546  -1969366.08445  22272515.3444   22272519.2704
      2062.1094       1606.8384
     76432.88647     64079.26846  21189193.1254   21189195.9264
      -723.8124       -564.0104
    -14599.44944                  24668519.1484
       275.4534
  -3686479.14447  -2863889.02646  20957274.0084   20957278.1684
      1625.5314       1266.6484
 98  6 30 14 57  0.0000000  0  8G 2G 4G 8G 7G 5G 9G16G24
   4798927.71544   3701171.29243  23989898.5784   23989904.1454
     -3184.7344      -2481.6114
       577.81147       450.74146  20635317.7114   20635320.1374
      -721.8914       -562.5124
  -3959632.95846  -2953533.84145  22263182.4224   22263185.7854
      1752.7344       1365.7674
   4419867.52946   3426379.00045  22800873.4844   22800878.0784
     -2794.4064      -2177.4594
  -3909839.17946  -1993437.06245  22266637.2034   22266641.1294
      2056.7664       1602.6754
     87384.91247     72613.30946  21191277.2344   21191280.0234
      -736.3914       -573.8114
    -18655.49244     -1460.25652  24667746.7504   24667753.7854
       265.3134        206.7374
  -3710782.01247  -2882826.31646  20952649.5314   20952653.8324
      1614.8594       1258.3324
 98  6 30 14 57 15.0000000  0  8G 2G 4G 8G 7G 5G 9G16G24
   4846745.15144   3738431.55742  23998999.0634   23999005.2034
     -3190.9534      -2486.4574
     11503.37747      8964.16546  20637396.7894   20637399.4144
      -734.8914       -572.6424
  -3985837.57746  -2973953.01245  22258196.6334   22258200.1604
      1741.1884       1356.7694
   4461816.33846   3459066.35445  22808856.0474   22808861.8244
     -2798.7504      -2180.8444
  -3940650.52046  -2017445.89245  22260774.0394   22260777.5664
      2051.3444       1598.4504
     98524.72247     81293.68446  21193397.0784   21193399.7854
      -748.9064       -583.5634
    -22558.15744     -4501.30842  24667004.2344   24667010.2704
       254.9694        198.6774
  -3734925.70947  -2901639.57946  20948054.9774   20948059.3594
      1604.2814       1250.0894
 98  6 30 14 57 30.0000000  0  8G 2G 4G 8G 7G 5G 9G16G24
   4894655.61344   3775764.30842  24008116.9304   24008123.5394
     -3197.1724      -2491.3034
     22622.83947     17628.67546  20639512.6644   20639515.3134
      -747.7814       -582.6874
  -4011870.99446  -2994238.78945  22253242.4304   22253246.1214
      1729.9384       1348.0034
   4503826.85946   3491801.78045  22816850.9384   22816855.9414
     -2802.6724      -2183.9004
  -3971381.07146  -2041391.76345  22254926.1644   22254930.1724
      2046.0314       1594.3104
    109851.13447     90119.45046  21195552.1564   21195555.2504
      -761.3914       -593.2914
    -26307.44544     -7422.78642  24666291.0784   24666297.2774
       244.7814        190.7394
  -3758912.72547  -2920330.74546  20943490.0944   20943494.1254
      1593.9064       1242.0054
 98  6 30 14 57 45.0000000  0  8G 2G 4G 8G 7G 5G 9G16G24
   4942660.81844   3813170.90242  24017250.6334   24017257.3244
     -3203.5474      -2496.2704
     33938.55147     26446.11646  20641666.0234   20641668.6604
      -760.9374       -592.9384
  -4037734.39246  -3014392.06445  22248320.8054   22248324.4964
      1718.5784       1339.1524
   4545897.65346   3524584.18545  22824856.6094   22824862.1764
     -2806.7034      -2187.0414
  -4002031.17346  -2065274.94545  22249093.6334   22249097.2664
      2040.6884       1590.1464
    121367.31547     99093.09746  21197743.7504   21197746.5514
      -774.0944       -603.1904
    -29901.26345    -10223.11242  24665607.8204   24665616.9654
       234.3754        182.6304
  -3782741.84947  -2938898.88146  20938955.8754   20938959.9064
      1583.2664       1233.7134
 98  6 30 14 58  0.0000000  0  8G 2G 4G 8G 7G 5G 9G16G24
   4990764.06044   3850653.85742  24026404.2344   24026412.0084
     -3210.3594      -2501.5794
     45448.52547     35414.92346  20643856.2974   20643858.9224
      -773.7814       -602.9464
  -4063429.67946  -3034414.35745  22243430.9694   22243434.6484
      1707.4064       1330.4464
   4588026.64746   3557411.93245  22832873.7114   22832878.9264
     -2810.6094      -2190.0854
  -4032600.90146  -2089095.50345  22243276.3984   22243279.7504
      2035.1884       1585.8604
    133073.12047    108214.49646  21199971.1804   21199974.0274
      -786.6724       -612.9914
    -33337.35344    -12900.69142  24664954.0704   24664960.9144
       223.6414        174.2654
  -3806410.23747  -2957341.76946  20934451.6804   20934455.5824
      1572.4224       1225.2644
 98  6 30 14 58 15.0000000  0  8G 2G 4G 8G 7G 5G 9G16G24
   5038972.44845   3888218.70943  24035578.7974   24035584.3404
     -3217.4224      -2507.0824
     57150.58447     44533.40946  20646082.9144   20646085.6454
      -786.4694       -612.8334
  -4088958.45546  -3054306.89845  22238573.2424   22238577.1564
      1696.5164       1321.9604
   4630215.95246   3590286.68345  22840901.8524   22840907.3244
     -2814.6254      -2193.2144
  -4063089.34846  -2112852.72145  22237474.7664   22237478.6454
      2029.9694       1581.7944
    144963.74647    117479.92046  21202233.9774   21202236.7774
      -798.6724       -622.3424
    -36610.48344    -15451.22041  24664330.2504   24664337.9774
       212.8914        165.8894
  -3829916.80247  -2975658.56146  20929978.5474   20929982.2974
      1561.8754       1217.0454
 98  6 30 14 58 30.0000000  0  8G 2G 4G 8G 7G 5G 9G16G24
   5087288.31345   3925867.38243  24044773.1724   24044778.6804
     -3224.6094      -2512.6834
     69043.11447     53800.31346  20648346.2974   20648348.8404
      -799.1874       -622.7444
  -4114325.14646  -3074073.14045  22233746.1254   22233750.3094
      1685.8134       1313.6204
   4672465.24046   3623208.17145  22848941.7114   22848947.3594
     -2818.5474      -2196.2704
  -4093498.88146  -2136548.45045  22231687.7974   22231691.5824
      2024.7194       1577.7034
    157034.25947    126885.51046  21204531.0784   21204534.1724
      -810.6564       -631.6804
    -39723.78743    -17877.22141  24663738.4614   24663742.3404
       202.2974        157.6344
  -3853266.73447  -2993853.29846  20925535.3444   20925539.3284
      1551.5314       1208.9854
 98  6 30 14 58 45.0000000  0  8G 2G 4G 8G 7G 5G 9G16G24
   5135710.50843   3963598.93142  24053986.5784   24053994.7974
     -3231.6414      -2518.1624
     81126.35647     63215.82346  20650645.3914   20650648.0514
      -811.8594       -632.6184
  -4139532.88446  -3093715.52045  22228948.7974   22228952.8874
      1675.3754       1305.4874
   4714773.24946   3656175.41045  22856992.8834   22856998.3204
     -2822.3914      -2199.2654
  -4123832.02246  -2160184.65145  22225915.7034   22225919.7234
      2019.8134       1573.8804
    169283.02347    136429.99846  21206861.7504   21206864.7034
      -822.5004       -640.9094
    -42678.26643    -20179.35642  24663175.5314   24663180.9454
       191.6564        149.3434
  -3876460.66347  -3011926.48346  20921121.7734   20921125.8754
      1541.0004       1200.7794
 98  6 30 14 59  0.0000000  0  8G 2G 4G 8G 7G 5G 9G16G24
   5184237.19343   4001411.85342  24063220.2194   24063226.6764
     -3238.7034      -2523.6654
     93399.04447     72778.95246  20652981.0234   20652983.7774
      -824.6414       -642.5774
  -4164585.47346  -3113237.00345  22224181.6254   22224184.9304
      1664.8284       1297.2694
   4757136.69146   3689185.84945  22865053.8444   22865059.7624
     -2826.0944      -2202.1514
  -4154093.24146  -2183764.80545  22220157.3364   22220161.4614
      2014.8594       1570.0204
    181710.33847    146113.62046  21209226.7114   21209229.5474
      -834.6414       -650.3694
    -45469.79143    -22354.54842  24662644.4774   24662650.6294
       180.4694        140.6254
  -3899494.77547  -3029875.13146  20916738.5784   20916742.6454
      1530.0004       1192.2084
 98  6 30 14 59 15.0000000  0  8G 2G 4G 8G 7G 5G 9G16G24
   5232869.31145   4039306.92442  24072476.3284   24072481.3324
     -3245.5474      -2528.9984
    105864.54747     82492.32946  20655353.0314   20655355.7734
      -837.4224       -652.5374
  -4189479.29246  -3132634.77345  22219444.6564   22219448.2664
      1654.4064       1289.1484
   4799554.12446   3722238.35645  22873126.1024   22873131.7854
     -2829.5474      -2204.8424
  -4184279.71346  -2207286.72545  22214412.8914   22214416.7344
      2010.0634       1566.2824
    194320.21647    155939.49346  21211626.1644   21211628.9774
      -846.6254       -659.7084
    -48094.51144    -24399.80342  24662144.7504   24662150.6804
       169.5634        132.1274
  -3922362.95247  -3047694.48546  20912386.5944   20912390.7774
      1519.1254       1183.7344
 98  6 30 14 59 30.0000000  0  8G 2G 4G 8G 7G 5G 9G16G24
   5281604.22045   4077282.15642  24081750.6334   24081757.7974
     -3252.4534      -2534.3794
    118522.61347     92355.75046  20657761.9844   20657764.6804
      -850.2974       -662.5694
  -4214217.57046  -3151911.34645  22214736.8054   22214740.7774
      1644.0314       1281.0634
   4842023.34246   3755331.21745  22881207.7974   22881213.6564
     -2832.9534      -2207.4964
  -4214394.45246  -2230752.73645  22208682.2584   22208686.0904
      2005.3134       1562.5814
    207109.75647    165905.36146  21214060.0474   21214063.0474
      -858.5944       -669.0344
    -50556.77744    -26318.40342  24661676.4304   24661680.3554
       158.8134        123.7504
  -3945067.55247  -3065386.36946  20908066.2194   20908070.4024
      1508.1094       1175.1504
 98  6 30 14 59 45.0000000  0  8G 2G 4G 8G 7G 5G 9G16G24
   5330443.29144   4115338.53342  24091043.7274   24091049.3524
     -3259.4224      -2539.8094
    131373.11647    102369.13346  20660207.2974   20660210.0274
      -863.0624       -672.5164
  -4238798.99846  -3171065.68245  22210058.9224   22210063.0594
      1633.3914       1272.7724
   4884542.59046   3788463.05345  22889299.2504   22889304.5474
     -2836.2814      -2210.0894
  -4244440.85946  -2254165.51545  22202964.5784   22202968.5634
      2000.8754       1559.1234
    220079.23447    176011.44746  21216528.1724   21216531.1484
      -870.6724       -678.4464
    -52857.92144    -28111.55642  24661238.8524   24661241.9104
       148.0164        115.3374
  -3967605.68547  -3082948.54246  20903777.3284   20903781.5004
      1496.9694       1166.4694
 98  6 30 15  0  0.0000000  0  8G 2G 4G 8G 7G 5G 9G16G24
   5379384.75643   4153474.65442  24100356.8204   24100365.4264
     -3266.0624      -2544.9844
    144412.91047    112530.00846  20662688.5234   20662691.2424
      -875.5474       -682.2444
  -4263218.73946  -3190094.05545  22205412.1484   22205416.6954
      1622.5474       1264.3224
   4927110.08746   3821632.49645  22897399.0634   22897404.5704
     -2839.3284      -2212.4634
  -4274421.25446  -2277526.83645  22197259.6644   22197263.5904
      1996.5004       1555.7144
    233226.48047    186256.05146  21219030.1334   21219033.1804
      -882.2664       -687.4804
    -54998.01943    -29779.18942  24660831.3444   24660838.8484
       137.3754        107.0454
  -3989979.26647  -3100382.49446  20899519.6804   20899524.0044
      1486.1884       1158.0684
 98  6 30 15  0 15.0000000  0  8G 2G 4G 8G 7G 5G 9G16G24
   5428425.31844   4191687.95542  24109689.8284   24109696.4144
     -3272.7344      -2550.1834
    157639.56747    122836.49146  20665205.6024   20665208.1914
      -888.1094       -692.0334
  -4287474.00046  -3208994.24845  22200796.6024   22200800.8674
      1611.3444       1255.5934
   4969722.86346   3854837.21845  22905507.7814   22905513.2074
     -2842.5004      -2214.9354
  -4304333.94246  -2300835.42745  22191567.6024   22191571.4574
      1991.7814       1552.0374
    246547.71047    196636.22046  21221564.8364   21221567.9884
      -894.0474       -696.6604
    -56978.34743    -31322.28141  24660454.1334   24660459.5594
       126.5784         98.6324
  -4012192.28047  -3117691.32446  20895292.8284   20895297.2584
      1475.4534       1149.7044
 98  6 30 15  0 30.0000000  0  8G 2G 4G 8G 7G 5G 9G16G24
   5477564.78445   4229978.40943  24119040.3754   24119047.0904
     -3279.1564      -2555.1874
    171056.18047    133290.98646  20667758.4844   20667760.9104
      -900.7974       -701.9204
  -4311558.95146  -3227761.73745  22196213.5554   22196217.3524
      1599.9844       1246.7414
   5012382.45646   3888078.42545  22913626.1024   22913631.6564
     -2845.4224      -2217.2124
  -4334176.69446  -2324089.49645  22185888.5004   22185892.3554
      1987.1724       1548.4464
    260048.43147    207156.26146  21224133.7734   21224136.8094
      -906.1094       -706.0594
    -58796.55543    -32739.05542  24660108.2194   24660118.6294
       115.8754         90.2924
  -4034243.58047  -3134874.14846  20891096.6884   20891100.9064
      1464.7034       1141.3274
 98  6 30 15  0 45.0000000  0  8G 2G 4G 8G 7G 5G 9G16G24
   5526799.95344   4268343.38942  24128408.6564   24128414.2464
     -3285.4064      -2560.0574
    184665.92347    143895.97646  20670348.4844   20670351.1684
      -913.7664       -712.0254
  -4335470.65546  -3246394.22645  22191663.3524   22191667.7344
      1588.3284       1237.6584
   5055086.08246   3921353.94545  22921752.2194   22921757.3284
     -2848.3444      -2219.4894
  -4363947.48546  -2347287.49245  22180223.1954   22180226.8164
      1982.3594       1544.6964
    273733.63547    217820.05446  21226738.0944   21226741.2114
      -918.4844       -715.7024
    -60453.66944    -34030.30542  24659793.0864   24659798.9804
       105.1094         81.9034
  -4056131.12947  -3151929.37346  20886931.3754   20886935.6994
      1453.6884       1132.7444
 98  6 30 15  1  0.0000000  0  8G 2G 4G 8G 7G 5G 9G16G24
   5576127.98944   4306780.82542  24137796.0944   24137803.5274
     -3291.6874      -2564.9514
    198469.13247    154651.72446  20672975.1334   20672977.7464
      -926.5944       -722.0214
  -4359206.13946  -3264889.41145  22187147.1884   22187150.7974
      1576.3594       1228.3324
   5097833.90546   3954663.89745  22929886.9144   22929892.2114
     -2851.3754      -2221.8514
  -4393647.22746  -2370430.14745  22174571.4224   22174575.0904
      1977.5784       1540.9704
    287604.19147    228628.27346  21229377.6804   21229380.6214
      -930.9534       -725.4184
    -61947.67444    -35194.49742  24659508.8754   24659517.1174
        94.1254         73.3444
  -4077853.33847  -3168855.75546  20882797.9384   20882802.1334
      1442.6724       1124.1604
 98  6 30 15  1 15.0000000  0  8G 2G 4G 8G 7G 5G 9G16G24
   5625550.23444   4345291.57442  24147201.1724   24147205.5784
     -3298.0004      -2569.8704
    212462.74647    165555.83646  20675637.9224   20675640.5824
      -939.2344       -731.8714
  -4382761.16446  -3283243.96445  22182664.3444   22182668.0704
      1564.2814       1218.9204
   5140626.99746   3988009.13045  22938030.1334   22938035.5234
     -2854.4374      -2224.2374
  -4423274.06246  -2393515.98745  22168933.7114   22168937.5784
      1972.5944       1537.0864
    301660.52647    239581.26246  21232052.3524   21232055.2704
      -943.2664       -735.0124
    -63278.98344    -36231.85742  24659255.7894   24659262.8364
        83.4064         64.9924
  -4099413.09247  -3185655.55646  20878695.2424   20878699.1684
      1431.9064       1115.7714
 98  6 30 15  1 30.0000000  0  8G 2G 4G 8G 7G 5G 9G16G24
   5675067.95944   4383876.75142  24156624.7504   24156631.2304
     -3304.3594      -2574.8254
    226645.92047    176607.65446  20678336.9384   20678339.5984
      -951.8594       -741.7094
  -4406136.10046  -3301458.20045  22178215.9304   22178219.6804
      1552.2974       1209.5824
   5183468.38846   4021391.99145  22946182.7974   22946187.8134
     -2857.7504      -2226.8184
  -4452826.41546  -2416543.77045  22163309.8204   22163314.1684
      1967.7194       1533.2874
    315901.62947    250678.21046  21234762.8134   21234766.0474
      -955.5784       -744.6064
    -64451.54444    -37145.50342  24659033.3054   24659039.7624
        72.9224         56.8224
  -4120811.08747  -3202329.30646  20874623.3054   20874627.5124
      1421.0944       1107.3464
 98  6 30 15  1 45.0000000  0  8G 2G 4G 8G 7G 5G 9G16G24
   5724681.77244   4422536.78643  24166065.7894   24166072.6214
     -3310.7814      -2579.8304
    241018.43947    187807.01246  20681072.1094   20681074.8404
      -964.4064       -751.4854
  -4429329.62946  -3319531.07845  22173802.2504   22173806.2464
      1540.2034       1200.1584
   5226358.27246   4054812.64445  22954344.5944   22954349.9844
     -2860.8444      -2229.2294
  -4482306.18946  -2439515.01445  22157700.3134   22157704.3094
      1962.9384       1529.5624
    330329.26747    261920.52246  21237507.8364   21237510.7774
      -968.0784       -754.3474
    -65466.82444    -37936.60042  24658839.3284   24658846.4454
        62.4384         48.6534
  -4142045.66647  -3218875.71946  20870582.5704   20870586.5314
      1410.2194       1098.8724
 98  6 30 15  2  0.0000000  0  8G 2G 4G 8G 7G 5G 9G16G24
   5774391.48445   4461271.54343  24175525.7114   24175531.7114
     -3317.2034      -2584.8344
    255579.15247    199153.02146  20683842.6254   20683845.3204
      -977.0164       -761.3114
  -4452341.54846  -3337462.44945  22169423.7504   22169427.6994
      1528.1254       1190.7474
   5269295.22346   4088269.97845  22962515.6024   22962521.2154
     -2864.1094      -2231.7744
  -4511711.35746  -2462428.11945  22152104.4304   22152108.4844
      1957.6724       1525.4594
    344945.63347    273309.89346  21240289.3834   21240292.3134
      -980.7664       -764.2334
    -66323.13744    -38603.94742  24658677.1724   24658683.6994
        51.7504         40.3254
  -4163118.01247  -3235295.71346  20866572.7584   20866576.8484
      1399.4534       1090.4834
 98  6 30 15  2 15.0000000  0  8G 2G 4G 8G 7G 5G 9G16G24
   5824193.87044   4500078.51142  24185002.8364   24185009.1054
     -3323.2194      -2589.5214
    270326.33947    210644.33146  20686649.0944   20686651.7894
      -989.3754       -770.9424
  -4475177.65246  -3355256.81445  22165077.9924   22165081.9184
      1516.6884       1181.8344
   5312279.01345   4121763.80045  22970695.0234   22970700.4614
     -2867.1724      -2234.1604
  -4541039.34446  -2485281.09046  22146523.6804   22146527.6764
      1952.6724       1521.5634
    359748.96847    284844.94946  21243106.5084   21243109.6724
      -993.1414       -773.8764
    -67022.62644    -39149.02342  24658544.5784   24658553.6174
        41.4384         32.2894
  -4184031.08047  -3251591.59946  20862592.8594   20862596.7734
      1388.8284       1082.2044
 98  6 30 15  2 30.0000000  0  8G 2G 4G 8G 7G 5G 9G16G24
   5874091.56144   4538959.82442  24194496.8834   24194504.4104
     -3329.7034      -2594.5744
    285262.98547    222283.27146  20689491.5004   20689494.1724
     -1002.0944       -780.8524
  -4497840.02346  -3372915.80145  22160765.5084   22160769.5984
      1505.0944       1172.8004
   5355314.96845   4155298.26945  22978884.1254   22978889.8914
     -2870.8754      -2237.0454
  -4570288.27446  -2508072.45446  22140957.7424   22140961.9264
      1947.3284       1517.3994
    374743.14047    296528.71246  21245959.6484   21245962.6374
     -1005.9694       -783.8724
    -67563.58443    -39570.56841  24658440.1094   24658446.7774
        30.8284         24.0224
  -4204779.13947  -3267758.91146  20858644.6884   20858648.7774
      1377.6094       1073.4624
 98  6 30 15  2 45.0000000  0  8G 2G 4G 8G 7G 5G 9G16G24
   5924083.41644   4577914.38642  24204010.7114   24204017.6174
     -3336.0004      -2599.4814
    300390.08847    234070.62146  20692370.2344   20692372.8834
     -1014.9844       -790.8974
  -4520332.50646  -3390442.41845  22156485.0704   22156489.0434
      1493.7194       1163.9374
   5398404.68946   4188874.64345  22987083.8594   22987088.8054
     -2874.5784      -2239.9314
  -4599459.49546  -2530803.26245  22135406.8134   22135410.7734
      1942.0314       1513.2714
    389926.21447    308359.67746  21248848.7664   21248851.9064
     -1018.5474       -793.6734
    -67948.11443    -39870.14942  24658366.8524   24658377.7424
        20.4064         15.9014
  -4225359.93047  -3283795.87946  20854728.4774   20854732.2504
      1366.4224       1064.7444
 98  6 30 15  3  0.0000000  0  8G 2G 4G 8G 7G 5G 9G16G24
   5974170.06844   4616942.89442  24213542.2424   24213548.1134
     -3342.3444      -2604.4244
    315710.25647    246008.40646  20695285.4454   20695288.1524
     -1027.7664       -800.8564
  -4542652.66346  -3407834.74545  22152237.7664   22152242.1254
      1482.2344       1154.9884
   5441552.26145   4222496.07145  22995294.5234   22995300.2894
     -2878.5004      -2242.9874
  -4628551.17346  -2553472.08946  22129870.9384   22129874.8164
      1936.7814       1509.1804
    405297.69047    320337.44447  21251774.1254   21251776.9144
     -1031.0314       -803.4014
    -68175.74642    -40047.49541  24658324.0474   24658330.0704
         9.8134          7.6464
  -4245773.34847  -3299702.43146  20850843.7734   20850847.5124
      1355.2504       1056.0394
 98  6 30 15  3 15.0000000  0  8G 2G 4G 8G 7G 5G 9G16G24
   6024352.80143   4656046.23442  24223091.3444   24223096.7344
     -3348.8124      -2609.4644
    331219.80047    258093.76746  20698236.7504   20698239.3284
     -1040.2664       -810.5974
  -4564801.25546  -3425093.39045  22148023.2894   22148027.3204
      1470.7814       1146.0634
   5484757.45945   4256162.43545  23003516.4064   23003521.8324
     -2882.2664      -2245.9214
  -4657564.99246  -2576080.25346  22124349.4694   22124353.4184
      1931.6414       1505.1754
    420853.96247    332459.19746  21254734.3984   21254737.3984
     -1043.2504       -812.9224
    -68245.57643    -40101.89941  24658311.4384   24658320.2774
        -0.6254         -0.4874
  -4266019.60847  -3315478.72446  20846990.8444   20846994.8874
      1344.1884       1047.4194
 98  6 30 15  3 30.0000000  0  8G 2G 4G 8G 7G 5G 9G16G24
   6074634.40843   4695226.63342  24232658.9534   24232667.7814
     -3355.4224      -2614.6144
    346919.97347    270327.66946  20701224.4384   20701227.2034
     -1053.0784       -820.5804
  -4586777.27246  -3442217.55345  22143840.9924   22143845.5044
      1459.3914       1137.1884
   5528020.52445   4289873.86045  23011748.8524   23011753.5164
     -2886.1564      -2248.9534
  -4686499.19346  -2598626.37546  22118843.5634   22118847.4884
      1926.2814       1500.9984
    436593.76547    344723.97146  21257729.6254   21257732.4734
     -1055.4064       -822.3944
    -68157.46143    -40033.25642  24658327.8204   24658334.7734
       -11.1094         -8.6574
  -4286097.95047  -3331124.17846  20843170.1564   20843174.1994
      1332.8754       1038.6044
 98  6 30 15  3 45.0000000  0  8G 2G 4G 8G 7G 5G 9G16G24
   6125012.99044   4734482.56542  24242246.1024   24242253.9694
     -3361.7504      -2619.5454
    362810.43747    282709.84647  20704248.4454   20704251.0824
     -1065.6564       -830.3814
  -4608584.60746  -3459210.27445  22139691.4694   22139696.0634
      1448.1414       1128.4214
   5571340.72145   4323629.81745  23019992.7504   23019998.7974
     -2889.8594      -2251.8384
  -4715356.24846  -2621112.38546  22113352.1484   22113356.4024
      1921.2814       1497.1024
    452515.02147    357130.13947  21260759.3364   21260762.0784
     -1067.4534       -831.7824
    -67913.09344    -39842.87742  24658374.8444   24658381.5704
       -21.5474        -16.7904
  -4306008.42447  -3346638.82346  20839381.2504   20839385.1994
      1321.8444       1030.0084
 98  6 30 15  4  0.0000000  0  8G 2G 4G 8G 7G 5G 9G16G24
   6175487.49844   4773813.30142  24251851.8834   24251858.7774
     -3368.1414      -2624.5254
    378889.48747    295238.97347  20707308.2034   20707310.8404
     -1078.2034       -840.1584
  -4630221.61146  -3476070.27745  22135574.0004   22135578.3954
      1436.8594       1119.6314
   5614716.51345   4357429.11245  23028246.6564   23028251.8484
     -2893.5474      -2254.7124
  -4744136.08646  -2643538.22946  22107875.9064   22107880.3954
      1916.0164       1492.9994
    468616.42047    369676.67347  21263823.3054   21263826.1174
     -1079.3594       -841.0594
    -67510.84344    -39529.43842  24658451.0704   24658458.0944
       -32.0474        -24.9724
  -4325754.09547  -3362025.05046  20835623.7344   20835627.7194
      1310.9844       1021.5464
 98  6 30 15  4 15.0000000  0  8G 2G 4G 8G 7G 5G 9G16G24
   6226056.77144   4813217.86542  24261474.5234   24261479.5394
     -3374.4694      -2629.4564
    395156.94747    307914.89246  20710403.7664   20710406.1214
     -1090.8124       -849.9844
  -4651689.85846  -3492798.78245  22131488.6094   22131492.6994
      1425.5944       1110.8524
   5658147.32145   4391271.25045  23036511.8364   23036518.1054
     -2897.2194      -2257.5734
  -4772835.76746  -2665901.60246  22102414.4144   22102418.5274
      1910.6884       1488.8474
    484895.27447    382361.50746  21266921.0474   21266924.5164
     -1091.1414       -850.2394
    -66950.26443    -39092.59342  24658556.9304   24658564.3524
       -42.6874        -33.2634
  -4345336.25547  -3377283.86446  20831897.6414   20831901.6024
      1299.9534       1012.9504
 98  6 30 15  4 30.0000000  0  8G 2G 4G 8G 7G 5G 9G16G24
   6276722.55544   4852697.64242  24271115.7504   24271121.9144
     -3381.0474      -2634.5824
    411615.70247    320739.92746  20713535.6174   20713538.8404
     -1103.7344       -860.0534
  -4672986.94846  -3509393.90545  22127436.1484   22127440.2734
      1413.9694       1101.7944
   5701635.02445   4425157.71945  23044786.9064   23044792.1684
     -2901.1414      -2260.6294
  -4801455.91846  -2688203.00646  22096967.8364   22096971.8554
      1905.2814       1484.6354
    501350.49947    395183.72846  21270052.1254   21270054.8674
     -1102.9064       -859.4074
    -66228.54643    -38530.22842  24658694.4454   24658698.7114
       -53.5944        -41.7614
  -4364751.32147  -3392412.47446  20828202.9144   20828206.8754
      1288.7034       1004.1844
 98  6 30 15  4 45.0000000  0  8G 2G 4G 8G 7G 5G 9G16G24
   6327486.18743   4892253.65442  24280775.4224   24280780.8484
     -3387.5164      -2639.6234
    428266.16347    333714.27746  20716704.0944   20716706.7664
     -1116.4224       -869.9394
  -4694110.46746  -3525853.79445  22123416.4064   22123420.0864
      1402.4064       1092.7844
   5745177.88945   4459087.20045  23053072.5944   23053078.7344
     -2904.6414      -2263.3564
  -4829996.18046  -2710442.17246  22091537.0784   22091541.2974
      1899.9844       1480.5074
    517979.25447    408141.22746  21273216.2664   21273219.4184
     -1114.3444       -868.3204
    -65345.07643    -37841.76242  24658862.3054   24658870.6174
       -64.3284        -50.1264
  -4384000.93647  -3407412.16446  20824539.8524   20824543.9534
      1277.8444        995.7224
 98  6 30 15  5  0.0000000  0  8G 2G 4G 8G 7G 5G 9G16G24
   6378348.43543   4931886.47042  24290454.6644   24290461.7814
     -3394.1254      -2644.7734
    445107.48547    346837.39946  20719909.1254   20719911.7734
     -1129.0474       -879.7774
  -4715057.34946  -3542176.03445  22119430.4384   22119434.2464
      1390.4534       1083.4704
   5788773.62445   4493057.84545  23061368.8054   23061373.8554
     -2908.1874      -2266.1204
  -4858455.64646  -2732618.36146  22086121.3834   22086125.5904
      1894.5784       1476.2954
    534781.78547    421234.08646  21276414.0084   21276417.2194
     -1126.0474       -877.4394
    -64297.34743    -37025.30941  24659062.3754   24659074.1334
       -75.4224        -58.7704
  -4403088.43847  -3422285.53446  20820907.7114   20820911.5784
      1267.0944        987.3464
 98  6 30 15  5 15.0000000  0  8G 2G 4G 8G 7G 5G 9G16G24
   6429309.29244   4971596.04543  24300152.6644   24300158.2544
     -3400.6414      -2649.8504
    462135.66547    360106.10546  20723149.1094   20723151.6884
     -1141.3594       -889.3714
  -4735825.78646  -3558359.22645  22115478.3984   22115482.1724
      1378.7344       1074.3384
   5832422.47945   4527069.92545  23069675.5314   23069681.2974
     -2911.6094      -2268.7874
  -4886833.32946  -2754730.83546  22080721.3134   22080725.4144
      1889.1564       1472.0704
    551758.83547    434462.95246  21279644.8364   21279647.9064
     -1137.5164       -886.3764
    -63082.69544    -36078.86841  24659293.9064   24659303.1684
       -86.4844        -67.3904
  -4422013.24547  -3437032.12246  20817306.4694   20817310.5234
      1256.2504        978.8964
 98  6 30 15  5 30.0000000  0  8G 2G 4G 8G 7G 5G 9G16G24
   6480368.99744   5011382.77242  24309868.7734   24309876.4304
     -3407.2504      -2655.0004
    479349.05847    373519.13846  20726424.9774   20726427.6724
     -1153.7344       -899.0144
  -4756416.59946  -3574404.00045  22111560.1174   22111564.3954
      1366.7664       1065.0124
   5876123.56245   4561122.65945  23077991.2194   23077996.2344
     -2915.1094      -2271.5144
  -4915128.79746  -2776779.24246  22075336.5704   22075340.4614
      1883.6564       1467.7844
    568909.62347    447827.19746  21282908.6024   21282911.8484
     -1149.2664       -895.5324
    -61702.22044    -35003.20542  24659556.1254   24659561.9614
       -97.5624        -76.0234
  -4440774.92747  -3451651.60446  20813735.8914   20813739.8754
      1245.4064        970.4464
 98  6 30 15  5 45.0000000  0  8G 2G 4G 8G 7G 5G 9G16G24
   6531525.38542   5051244.97541  24319602.7734   24319609.7274
     -3413.6414      -2659.9804
    496747.35147    387076.24746  20729735.7034   20729738.2704
     -1166.1094       -908.6574
  -4776831.50346  -3590311.71545  22107675.3364   22107679.3914
      1355.1564       1055.9664
   5919873.80045   4595213.70545  23086316.5394   23086322.4924
     -2918.3284      -2274.0224
  -4943343.15246  -2798764.44146  22069967.6884   22069971.7074
      1878.2504       1463.5714
    586235.69547    461328.03346  21286205.5864   21286208.5164
     -1160.9844       -904.6634
    -60157.01743    -33799.15741  24659849.7814   24659855.2304
      -108.5474        -84.5824
  -4459375.17947  -3466145.29847  20810196.3204   20810200.2114
      1234.5474        961.9854
 98  6 30 15  6  0.0000000  0  8G 2G 4G 8G 7G 5G 9G16G24
   6582777.34342   5091181.38342  24329356.3364   24329362.3134
     -3419.9694      -2664.9114
    514332.84647    400779.22946  20733082.0944   20733084.7074
     -1178.6724       -918.4464
  -4797069.20746  -3606081.34745  22103824.0394   22103828.0124
      1343.2194       1046.6644
   5963672.01945   4629342.15745  23094651.1094   23094656.9224
     -2921.3914      -2276.4084
  -4971477.17046  -2820687.03646  22064614.0084   22064618.2154
      1872.8754       1459.3834
    603738.44447    474966.53746  21289536.2274   21289539.2384
     -1172.7194       -913.8074
    -58446.43243    -32466.16441  24660174.6024   24660181.0004
      -119.5784        -93.1784
  -4477812.58747  -3480512.09447  20806688.1884   20806692.1134
      1223.7664        953.5844
 98  6 30 15  6 15.0000000  0  8G 2G 4G 8G 7G 5G 9G16G24
   6634125.12044   5131192.53543  24339128.5084   24339134.9414
     -3426.4534      -2669.9634
    532108.08947    414630.06746  20736464.6334   20736467.1884
     -1191.4374       -928.3934
  -4817127.71346  -3621711.33945  22100007.3204   22100011.6804
      1331.2034       1037.3014
   6007514.96145   4663505.44545  23102994.0784   23102999.4574
     -2924.3914      -2278.7464
  -4999529.20446  -2842545.75746  22059276.1644   22059280.2304
      1867.3594       1455.0854
    621416.50347    488741.63546  21292900.2424   21292903.0554
     -1184.4534       -922.9504
    -56569.22643    -31003.44742  24660532.1254   24660539.6884
      -130.7814       -101.9074
  -4496088.40247  -3494752.98247  20803210.3134   20803214.2504
      1212.9844        945.1834
 98  6 30 15  6 30.0000000  0  8G 2G 4G 8G 7G 5G 9G16G24
   6685570.01545   5171279.40543  24348917.8914   24348923.9024
     -3432.9224      -2675.0044
    550074.44347    428629.82146  20739883.6174   20739886.1134
     -1204.0474       -938.2184
  -4837004.93346  -3637200.07145  22096224.5784   22096228.5044
      1319.0944       1027.8654
   6051404.77045   4697705.24845  23111346.0634   23111351.8164
     -2927.6094      -2281.2544
  -5027500.46146  -2864341.53346  22053953.1884   22053957.3014
      1862.1884       1451.0554
    639271.07547    502654.28446  21296297.8674   21296300.9024
     -1196.1724       -932.0824
    -54524.52344    -29410.11842  24660922.0164   24660927.0664
      -141.8124       -110.5034
  -4514202.83447  -3508868.11147  20799763.3834   20799767.1214
      1202.3134        936.8674
 98  6 30 15  6 45.0000000  0  8G 2G 4G 8G 7G 5G 9G16G24
   6737113.28243   5211442.88542  24358725.5164   24358731.9024
     -3439.6094      -2680.2154
    568229.83947    442776.87846  20743338.4534   20743341.1134
     -1216.7034       -948.0804
  -4856699.46546  -3652546.44745  22092476.9064   22092481.2664
      1306.7344       1018.2354
   6095343.85445   4731943.45145  23119707.0394   23119713.1914
     -2930.9844      -2283.8844
  -5055393.41746  -2886076.29246  22048645.3284   22048649.2424
      1856.8134       1446.8674
    657303.03747    516705.15946  21299729.2194   21299732.3714
     -1208.2194       -941.4694
    -52314.96045    -27688.38343  24661342.7894   24661347.8524
      -152.8594       -119.1114
  -4532157.63347  -3522858.84747  20796346.6414   20796350.6254
      1191.5634        928.4904
 98  6 30 15  7  0.0000000  0  8G 2G 4G 8G 7G 5G 9G16G24
   6788754.54842   5251682.73941  24368552.7664   24368559.2464
     -3445.8914      -2685.1104
    586572.16147    457069.59346  20746828.8754   20746831.5704
     -1229.0004       -957.6624
  -4876209.74246  -3667749.25145  22088764.1564   22088768.3164
      1294.5944       1008.7744
   6139331.27645   4766219.33945  23128077.8834   23128083.8484
     -2934.1094      -2286.3194
  -5083207.41046  -2907749.52146  22043352.6954   22043356.4574
      1851.6884       1442.8734
    675516.05047    530897.10046  21303195.2034   21303198.2974
     -1220.2664       -950.8564
    -49942.06845    -25839.41942  24661794.7424   24661800.9774
      -163.5944       -127.4764
  -4549952.52047  -3536724.98547  20792960.4384   20792964.3984
      1180.9844        920.2484
 98  6 30 15  7 15.0000000  0  8G 2G 4G 8G 7G 5G 9G16G24
   6840489.70543   5291995.76542  24378398.3054   24378402.0084
     -3452.0624      -2689.9194
    605100.18047    471507.00946  20750354.6024   20750357.3204
     -1241.3594       -967.2934
  -4895538.15146  -3682810.33645  22085086.1954   22085089.8754
      1282.6254        999.4484
   6183367.47045   4800533.20545  23136458.0704   23136464.0354
     -2937.2974      -2288.8034
  -5110944.07046  -2929362.49946  22038074.2194   22038078.1214
      1846.5944       1438.9044
    693911.80247    545231.44646  21306695.8204   21306699.1134
     -1232.3914       -960.3044
    -47408.57845    -23865.28542  24662276.8524   24662284.8244
      -174.0944       -135.6574
  -4567586.12447  -3550465.44947  20789604.8524   20789608.8834
      1170.1724        911.8224
 98  6 30 15  7 30.0000000  0  8G 2G 4G 8G 7G 5G 9G16G24
   6892318.23644   5332381.60742  24388260.8754   24388265.9384
     -3458.3594      -2694.8254
    623815.62147    486090.46446  20753916.0234   20753918.7774
     -1254.0164       -977.1554
  -4914687.96546  -3697732.26045  22081441.8524   22081446.5044
      1270.7034        990.1584
   6227450.29145   4834883.42245  23144846.5474   23144853.0164
     -2940.3444      -2291.1774
  -5138603.80546  -2950915.52246  22032810.9844   22032814.8524
      1841.5314       1434.9594
    712488.78647    559707.01746  21310230.8284   21310233.9344
     -1244.5314       -969.7654
    -44718.54244    -21769.13542  24662787.9384   24662797.0004
      -184.4534       -143.7304
  -4585056.59147  -3564078.78447  20786280.1644   20786284.1254
      1159.3134        903.3604
 98  6 30 15  7 45.0000000  0  8G 2G 4G 8G 7G 5G 9G16G24
   6944241.30944   5372841.06843  24398141.5394   24398148.5634
     -3464.7194      -2699.7814
    642721.45247    500822.27146  20757513.7664   20757516.4964
     -1266.8284       -987.1394
  -4933659.54146  -3712515.29145  22077831.5704   22077835.3324
      1258.8754        980.9424
   6271578.36345   4869268.88545  23153243.7894   23153249.4614
     -2943.4064      -2293.5634
  -5166189.05746  -2972410.51046  22027561.6954   22027565.5164
      1836.4844       1431.0274
    731249.70147    574325.89946  21313800.7894   21313803.9414
     -1256.8914       -979.3954
    -41873.66244    -19552.34542  24663329.0864   24663337.2584
      -194.9534       -151.9124
  -4602364.40447  -3577565.38547  20782986.5864   20782990.5474
      1148.3284        894.8014
 98  6 30 15  8  0.0000000  0  8G 2G 4G 8G 7G 5G 9G16G24
   6996259.08243   5413374.25842  24408039.5084   24408048.6524
     -3470.9374      -2704.6274
    661819.51547    515703.87546  20761147.9304   20761150.7894
     -1279.5004       -997.0134
  -4952455.60446  -3727161.57045  22074255.0234   22074259.3954
      1247.2344        971.8714
   6315752.33445   4903690.13845  23161649.9774   23161655.9414
     -2946.5004      -2295.9744
  -5193698.00446  -2993846.03946  22022326.8054   22022330.5664
      1831.4224       1427.0824
    750193.50147    589087.29146  21317405.6484   21317408.6374
     -1268.9064       -988.7584
    -38872.37244    -17213.66342  24663899.7504   24663906.3594
      -205.2344       -159.9234
  -4619507.74147  -3590923.81447  20779724.2274   20779728.2234
      1137.5004        886.3644
 98  6 30 15  8 15.0000000  0  8G 2G 4G 8G 7G 5G 9G16G24
   7048370.26443   5453980.28342  24417956.8524   24417962.7114
     -3477.2344      -2709.5334
    681105.10747    530731.60446  20764817.9924   20764820.6294
     -1291.8594      -1006.6444
  -4971075.95346  -3741670.91545  22070711.7034   22070715.2544
      1235.4844        962.7154
   6359973.91045   4938148.46645  23170065.5234   23170071.8874
     -2949.7344      -2298.4944
  -5221130.27446  -3015221.82346  22017106.4534   22017110.1914
      1826.1414       1422.9674
    769317.29647    603988.94046  21321045.0004   21321047.8594
     -1281.0004       -998.1824
    -35714.92544    -14753.29242  24664501.0004   24664507.3164
      -215.7974       -168.1534
  -4636489.16447  -3604156.08547  20776492.7114   20776496.8244
      1126.6564        877.9144
 98  6 30 15  8 30.0000000  0  8G 2G 4G 8G 7G 5G 9G16G24
   7100573.82045   5494658.30743  24427891.4304   24427898.9344
     -3483.3444      -2714.2944
    700571.91047    545900.53346  20768522.2814   20768524.8484
     -1303.8124      -1015.9584
  -4989521.36946  -3756043.95745  22067201.5634   22067205.4534
      1223.8134        953.6204
   6404244.34445   4972644.86945  23178489.3594   23178494.6914
     -2953.1414      -2301.1494
  -5248483.64646  -3036536.13046  22011901.3754   22011905.1484
      1820.8594       1418.8514
    788622.72847    619032.12446  21324718.3834   21324721.1954
     -1293.2504      -1007.7274
    -32400.05044    -12170.35342  24665131.4534   24665137.3484
      -226.2974       -176.3354
  -4653307.96247  -3617261.63347  20773292.3444   20773296.5044
      1115.6724        869.3554
 98  6 30 15  8 45.0000000  0  8G 2G 4G 8G 7G 5G 9G16G24
   7152869.03644   5535407.79343  24437842.3134   24437848.7704
     -3489.4064      -2719.0184
    720216.88947    561208.30446  20772260.5704   20772263.3134
     -1315.5624      -1025.1144
  -5007793.44646  -3770281.92846  22063724.3834   22063728.4024
      1212.4224        944.7444
   6448566.36845   5007181.48545  23186923.8134   23186930.0824
     -2956.4374      -2303.7184
  -5275757.06646  -3057788.13046  22006711.2814   22006715.1254
      1815.5474       1414.7124
    808113.65047    634219.83546  21328427.5784   21328430.6254
     -1305.6094      -1017.3584
    -28927.15344     -9464.18442  24665792.8444   24665801.8014
      -236.8284       -184.5414
  -4669958.82147  -3630236.31747  20770123.8444   20770127.8984
      1104.4064        860.5764
 98  6 30 15  9  0.0000000  0  8G 2G 4G 8G 7G 5G 9G16G24
   7205255.54143   5576228.31142  24447809.9384   24447816.8794
     -3495.4694      -2723.7424
    740038.89747    576654.01846  20776032.6724   20776035.4614
     -1327.3914      -1034.3304
  -5025895.10546  -3784387.10546  22060279.7344   22060283.6134
      1201.1254        935.9424
   6492935.37545   5041754.67245  23195366.7424   23195372.3914
     -2959.4374      -2306.0554
  -5302949.53246  -3078977.04846  22001536.6954   22001540.3634
      1810.1094       1410.4754
    827791.03247    649552.85446  21332172.2664   21332175.4534
     -1318.0314      -1027.0374
    -25294.98145     -6633.93742  24666485.0234   24666490.2154
      -247.4844       -192.8454
  -4686439.77447  -3643078.60646  20766987.4534   20766991.5434
      1093.0474        851.7254
 98  6 30 15  9 15.0000000  0  8G 2G 4G 8G 7G 5G 9G16G24
   7257732.53343   5617119.34143  24457797.1174   24457804.4344
     -3501.5004      -2728.4424
    760039.82347    592239.15146  20779838.7664   20779841.4264
     -1339.4534      -1043.7304
  -5043827.02746  -3798360.01946  22056867.4224   22056871.2424
      1189.8284        927.1394
   6537350.89745   5076364.13045  23203818.5234   23203823.5394
     -2962.6874      -2308.5884
  -5330058.61346  -3100100.99446  21996378.0944   21996382.0434
      1804.4534       1406.0674
    847655.35047    665031.53146  21335952.0944   21335955.3754
     -1330.5164      -1036.7654
    -21501.75744     -3678.20842  24667205.5634   24667211.4804
      -258.3284       -201.2954
  -4702748.97347  -3655787.06346  20763884.0084   20763887.8754
      1081.5314        842.7524
 98  6 30 15  9 30.0000000  0  8G 2G 4G 8G 7G 5G 9G16G24
   7310300.71945   5658081.45342  24467800.8444   24467806.1644
     -3507.6724      -2733.2514
    780221.29047    607964.96446  20783679.0394   20783681.6764
     -1351.4694      -1053.0934
  -5061589.57046  -3812200.95046  22053487.5554   22053491.6914
      1178.4224        918.2514
   6581815.00445   5111011.47245  23212280.4064   23212286.3244
     -2965.9374      -2311.1204
  -5357084.43146  -3121160.06346  21991235.2194   21991239.0984
      1798.9534       1401.7824
    867705.82647    680655.26346  21339767.5234   21339770.7114
     -1342.8914      -1046.4084
    -17545.14843      -595.14042  24667958.3444   24667964.6844
      -269.2664       -209.8174
  -4718886.92847  -3668362.08346  20760813.0474   20760817.2074
      1070.2034        833.9254
 98  6 30 15  9 45.0000000  0  8G 2G 4G 8G 7G 5G 9G16G24
   7362963.46445   5699117.41842  24477822.2344   24477829.7734
     -3514.1094      -2738.2674
    800583.67847    623831.75446  20787553.9534   20787556.8364
     -1363.5474      -1062.5044
  -5079178.92946  -3825906.93146  22050140.5784   22050144.3524
      1166.7814        909.1804
   6626330.52245   5145698.83845  23220751.6564   23220757.6454
     -2969.4844      -2313.8844
  -5384027.13346  -3142154.36446  21986108.3754   21986112.3714
      1793.3754       1397.4354
    887943.23947    696424.67246  21343618.8754   21343621.9804
     -1355.4694      -1056.2094
    -13422.41743      2617.41241  24668742.5474   24668746.5784
      -280.5164       -218.5844
  -4734855.39847  -3680805.03547  20757774.2734   20757778.3634
      1058.8914        825.1104
 98  6 30 15 10  0.0000000  0  8G 2G 4G 8G 7G 5G 9G16G24
   7415723.64944   5740229.22242  24487861.9384   24487868.1024
     -3520.5624      -2743.2954
    821126.69747    639839.29446  20791463.2974   20791465.9574
     -1375.5164      -1071.8304
  -5096593.40246  -3839476.65346  22046826.5864   22046830.3244
      1155.1094        900.0854
   6670899.12245   5180427.57445  23229232.1724   23229237.8674
     -2973.0004      -2316.6234
  -5410884.33346  -3163082.04046  21980997.6334   21981001.5944
      1787.5314       1392.8814
    908368.58847    712340.51746  21347505.3364   21347508.6414
     -1367.8284      -1065.8404
     -9128.37644      5963.31442  24669560.6024   24669567.4844
      -292.0004       -227.5324
  -4750653.06147  -3693114.89547  20754768.0234   20754772.0204
      1047.5004        816.2344
 98  6 30 15 10 15.0000000  0  9G 2G 4G 8G 7G 5G 9G16G30G24
   7468580.91542   5781416.58542  24497918.9774   24497926.7154
     -3527.1094      -2748.3974
    841848.58447    655986.20846  20795406.3364   20795409.1484
     -1387.4694      -1081.1444
  -5113829.95446  -3852907.71445  22043546.7424   22043550.5044
      1143.0634        890.6984
   6715520.90245   5215197.75745  23237723.9924   23237729.4184
     -2976.6094      -2319.4364
  -5437652.44746  -3183940.30246  21975903.7974   21975907.4414
      1781.4844       1388.1704
    928978.52047    728400.19446  21351427.3134   21351430.6524
     -1380.2034      -1075.4834
     -4662.88244      9442.83641  24670410.5944   24670412.8914
      -303.4694       -236.4694
     -5192.43954                  24775043.2344
      2597.1414
  -4766280.90547  -3705292.42546  20751794.1484   20751798.3094
      1036.1564        807.3944
 98  6 30 15 10 30.0000000  0  9G 2G 4G 8G 7G 5G 9G16G30G24
   7521536.41643   5822680.40842  24507997.0704   24508002.5664
     -3533.6564      -2753.4984
    862751.71847    672274.36246  20799384.3364   20799386.9614
     -1399.7194      -1090.6904
  -5130885.55746  -3866197.78245  22040300.7734   22040304.5824
      1131.0004        881.2994
   6760196.68945   5250010.02245  23246225.3674   23246231.5314
     -2980.2034      -2322.2364
  -5464328.46546  -3204726.79046  21970827.7114   21970831.4144
      1775.3134       1383.3604
    949776.41347    744606.33346  21355385.0784   21355388.4414
     -1392.9064      -1085.3814
       -24.43445     13057.25542  24671293.6724   24671299.0164
      -314.9534       -245.4184
    -44131.80744                  24767632.6564
      2594.7504
  -4781736.60647  -3717335.81746  20748852.9924   20748857.2234
      1024.5784        798.3734
 98  6 30 15 10 45.0000000  0  9G 2G 4G 8G 7G 5G 9G16G30G24
   7574590.51445   5864021.22942  24518094.2114   24518101.8094
     -3540.3444      -2758.7094
    883840.47747    688707.14946  20803397.1644   20803399.7424
     -1412.2344      -1100.4424
  -5147760.87246  -3879347.37245  22037089.5864   22037093.8164
      1118.9694        871.9244
   6804926.95545   5284864.72445  23254737.3594   23254743.2304
     -2983.8594      -2325.0854
  -5490913.58546  -3225442.45746  21965768.5864   21965772.1844
      1769.3134       1378.6854
    970763.49447    760959.89346  21359378.8984   21359382.0864
     -1405.4064      -1095.1224
      4783.60945     16803.77242  24672208.3914   24672214.2274
      -326.2344       -254.2094
    -83034.32544                  24760230.3674
      2592.2034
  -4797018.20747  -3729243.54546  20745945.0944   20745949.2664
      1012.9224        789.2904
 98  6 30 15 11  0.0000000  0  9G 2G 4G 8G 7G 5G 9G16G30G24
   7627748.03944   5905442.60842  24528208.8754   24528216.3444
     -3547.4064      -2764.2134
    905120.82147    705289.23046  20807446.8284   20807449.5124
     -1425.2034      -1110.5484
  -5164454.69746  -3892355.53445  22033912.7424   22033916.9494
      1106.7814        862.4274
   6849712.99945   5319762.89945  23263259.9304   23263264.9224
     -2987.6564      -2328.0444
  -5517407.67946  -3246087.19846  21960726.7734   21960730.8054
      1763.1884       1373.9124
    991938.08047    777459.56046  21363408.4924   21363411.7034
     -1417.8594      -1104.8254
      9763.91444     20684.48742  24673155.0004   24673161.4224
      -337.8594       -263.2674
   -121896.79744                  24752834.8054
      2589.4534
  -4812124.51847  -3741014.69046  20743070.3914   20743074.5394
      1001.2664        780.2074
 98  6 30 15 11 15.0000000  0  8G 4G 8G 7G 5G 9G16G30G24
    926597.58547    722024.36546  20811533.6564   20811536.1524
     -1438.3284      -1120.7754
  -5180962.07246  -3905218.41745  22030771.5234   22030775.4264
      1094.2034        852.6264
   6894557.63345   5354706.75645  23271793.8284   23271799.8054
     -2991.6724      -2331.1734
  -5543807.50246  -3266658.46946  21955703.1414   21955706.8554
      1756.8134       1368.9454
   1013298.22247    794103.81446  21367472.8284   21367475.9694
     -1430.1094      -1114.3714
     14919.60044     24701.89042  24674136.2894   24674140.6254
      -349.5314       -272.3624
   -160717.84644     -8062.40152  24745448.0084   24745451.8164
      2586.6724       2015.5884
  -4827056.01147  -3752649.60647  20740229.0164   20740233.3404
       989.6094        771.1244
 98  6 30 15 11 30.0000000  0  8G 4G 8G 7G 5G 9G16G30G24
    948272.57647    738913.96446  20815658.4534   20815661.0784
     -1451.7344      -1131.2224
  -5197278.71046  -3917932.66745  22027666.5004   22027670.2154
      1081.2504        842.5324
   6939465.38245   5389699.75345  23280339.1414   23280344.3794
     -2996.0784      -2334.6064
  -5570110.17146  -3287154.04846  21950697.9534   21950701.5864
      1750.1724       1363.7704
   1034843.09447    810892.01546  21371572.7734   21371575.8554
     -1442.5624      -1124.0754
     20252.21044     28857.13342  24675151.4614   24675158.1524
      -361.5314       -281.7134
   -199494.31044    -38277.82842  24738068.9614   24738074.1644
      2583.4694       2013.0934
  -4841809.89347  -3764146.12646  20737421.3524   20737425.6294
       977.5164        761.7004
 98  6 30 15 11 45.0000000  0  8G 4G 8G 7G 5G 9G16G30G24
    970149.33747    755960.78246  20819821.0704   20819823.6604
     -1465.2664      -1141.7654
  -5213398.64246  -3930493.64746  22024599.1024   22024602.6054
      1068.0944        832.2814
   6984439.05945   5424744.15845  23288897.8134   23288903.7194
     -3000.3914      -2337.9674
  -5596312.12846  -3307571.14346  21945711.3834   21945715.1914
      1743.3284       1358.4384
   1056575.53347    827826.37346  21375708.4534   21375711.3364
     -1455.0944      -1133.8394
     25766.63444     33154.02542  24676200.7974   24676207.6294
      -373.7664       -291.2464
   -238219.88544    -68453.63142  24730699.9304   24730705.6254
      2579.9224       2010.3294
  -4856381.39947  -3775500.53546  20734648.5944   20734652.6724
       965.2814        752.1674
 98  6 30 15 12  0.0000000  0  8G 4G 8G 7G 5G 9G16G30G24
    992229.01247    773165.71746  20824022.9304   20824025.5904
     -1478.7814      -1152.2974
  -5229322.75546  -3942902.03545  22021569.0084   22021572.7114
      1055.0004        822.0784
   7029474.89645   5459836.96245  23297467.6804   23297473.4454
     -3004.4534      -2341.1324
  -5622410.05646  -3327907.18346  21940745.7504   21940749.5234
      1736.2814       1352.9464
   1078494.60247    844906.15946  21379879.6884   21379882.5354
     -1467.4844      -1143.4944
     31464.01845     37593.54642  24677285.1564   24677288.6844
      -386.0164       -300.7914
   -276894.37644    -98589.55142  24723339.8284   24723344.0354
      2576.6094       2007.7484
  -4870767.96247  -3786710.83646  20731911.0004   20731915.2074
       952.8134        742.4514
 98  6 30 15 12 15.0000000  0  8G 4G 8G 7G 5G 9G16G30G24
   1014516.10947    790532.28246  20828264.0474   20828266.6724
     -1492.7814      -1163.2064
  -5245044.34846  -3955152.62546  22018577.0704   22018580.7974
      1041.2344        811.3514
   7074576.46145   5494981.00745  23306049.9844   23306055.9384
     -3009.0944      -2344.7484
  -5648396.79646  -3348156.57746  21935800.6484   21935804.4924
      1728.7034       1347.0414
   1100603.15247    862133.58346  21384086.7974   21384089.7504
     -1480.2664      -1153.4544
     37349.85345     42179.85842  24678405.2734   24678412.1804
      -398.6874       -310.6664
   -315515.67644   -128684.10942  24715990.9304   24715996.6954
      2572.9064       2004.8624
  -4884962.42447  -3797771.44846  20729209.7274   20729213.9924
       939.8914        732.3824
 98  6 30 15 12 30.0000000  0  8G 4G 8G 7G 5G 9G16G30G24
   1037013.71947    808062.88446  20832545.2194   20832547.8204
     -1507.0164      -1174.2984
  -5260559.41046  -3967242.27646  22015624.8524   22015628.3794
      1027.3754        800.5524
   7119748.91945   5530180.27745  23314645.8594   23314651.6954
     -3013.9694      -2348.5474
  -5674270.85746  -3368318.16846  21930876.7274   21930880.6994
      1721.1254       1341.1364
   1122905.26047    879511.84246  21388330.7034   21388333.6454
     -1493.4694      -1163.7424
     43425.80345     46914.31143  24679562.0084   24679568.2194
      -411.5624       -320.6984
   -354078.34544   -158732.92843  24708652.6724   24708658.4384
      2568.5784       2001.4894
  -4898963.36547  -3808681.25846  20726545.5004   20726549.6484
       926.7504        722.1434
 98  6 30 15 12 45.0000000  0  8G 4G 8G 7G 5G 9G16G30G24
   1059726.91847    825761.47446  20836867.5944   20836870.1374
     -1521.4844      -1185.5724
  -5275863.69346  -3979167.68145  22012712.6644   22012716.5434
      1013.1254        789.4484
   7164996.75845   5565438.30345  23323256.7504   23323262.3634
     -3019.1874      -2352.6144
  -5700031.24446  -3388391.18746  21925974.6024   21925978.1644
      1713.5474       1335.2314
   1145408.76247    897047.02546  21392613.1414   21392616.4344
     -1507.0474      -1174.3224
     49697.40045     51801.24842  24680755.3984   24680762.1024
      -424.7194       -330.9504
   -392570.91844   -188727.14942  24701328.4384   24701333.9574
      2563.6884       1997.6794
  -4912763.69547  -3819434.75046  20723919.4384   20723923.5634
       913.2344        711.6114
 98  6 30 15 13  0.0000000  0  8G 4G 8G 7G 5G 9G16G30G24
   1082656.30947    843628.52746  20841230.6414   20841233.2774
     -1535.8914      -1196.7984
  -5290952.83546  -3990925.43846  22009840.8834   22009844.5634
       998.6724        778.1864
   7210322.95045   5600757.38345  23331881.6094   23331887.3874
     -3024.4064      -2356.6804
  -5725677.41746  -3408375.20046  21921094.3444   21921098.3164
      1705.8134       1329.2054
   1168114.63547    914739.90646  21396933.7664   21396936.9654
     -1520.5314      -1184.8304
     56167.87345     56843.17743  24681986.8754   24681995.8674
      -438.1414       -341.4084
   -430990.43144   -218664.42942  24694016.7814   24694021.2584
      2558.8134       1993.8804
  -4926361.57547  -3830030.49246  20721331.7274   20721335.6994
       899.7664        701.1164
 98  6 30 15 13 15.0000000  0  8G 4G 8G 7G 5G 9G16G30G24
   1105804.88047    861666.36546  20845635.6884   20845638.3834
     -1550.5784      -1208.2434
  -5305821.12146  -4002511.11345  22007011.6414   22007015.4734
       983.7344        766.5464
   7255730.44145   5636139.78245  23340522.7344   23340528.4414
     -3029.9694      -2361.0154
  -5751203.81746  -3428265.89446  21916236.6884   21916240.5084
      1697.6724       1322.8614
   1191027.67647    932594.20946  21401293.8674   21401297.1024
     -1534.5784      -1195.7754
     62842.31045     62044.03343  24683257.0554   24683265.1914
      -451.7344       -352.0014
   -469334.62743   -248543.05242  24686719.5314   24686723.9964
      2553.7664       1989.9474
  -4939754.80947  -3840466.76646  20718782.7974   20718786.9344
       886.0164        690.4024
 98  6 30 15 13 30.0000000  0  8G 4G 8G 7G 5G 9G16G30G24
   1129179.17647    879880.09446  20850083.6564   20850086.3874
     -1566.0164      -1220.2724
  -5320459.14346  -4013917.34946  22004226.2114   22004230.1954
       968.0314        754.3104
   7301226.52945   5671591.26045  23349179.8204   23349185.6454
     -3036.2194      -2365.8854
  -5776602.17046  -3448056.80546  21911403.8284   21911407.6024
      1688.7814       1315.9334
   1214159.16347    950618.73546  21405695.8444   21405699.1254
     -1549.6874      -1207.5494
     69723.21244     67405.73943  24684565.9844   24684574.1214
      -465.8284       -362.9834
   -507597.90143   -278358.59642  24679438.4534   24679443.0474
      2547.9694       1985.4304
  -4952935.34347  -3850737.30446  20716274.8284   20716278.9304
       871.3594        678.9814
 98  6 30 15 13 45.0000000  0  8G 4G 8G 7G 5G 9G16G30G24
   1152781.30247    898271.36046  20854574.8834   20854577.5904
     -1580.9224      -1231.8874
  -5334865.58346  -4025143.13345  22001484.8054   22001488.8954
       952.8914        742.5124
   7346812.52945   5707112.78245  23357855.1254   23357861.1024
     -3041.9224      -2370.3294
  -5801871.71646  -3467747.34046  21906595.2584   21906599.2424
      1680.4844       1309.4684
   1237514.69747    968817.83846  21410140.3054   21410143.5044
     -1564.3914      -1219.0064
     76812.98244     72930.26443  24685915.4454   24685921.7274
      -479.4844       -373.6244
   -545777.90843   -308109.24342  24672172.9384   24672176.0664
      2542.7034       1981.3274
  -4965900.11347  -3860839.70746  20713807.7734   20713811.8754
       857.2814        668.0114
 98  6 30 15 14  0.0000000  0  8G 4G 8G 7G 5G 9G16G30G24
   1176608.56447    916838.05246  20859109.3134   20859112.1844
     -1596.0944      -1243.7094
  -5349044.33146  -4036191.50746  21998786.4144   21998790.7734
       937.5784        730.5804
   7392486.82645   5742703.08445  23366546.6644   23366552.3014
     -3048.0314      -2375.0894
  -5827014.67346  -3487339.24846  21901810.3914   21901814.2814
      1671.8754       1302.7604
   1261092.15547    987189.87146  21414626.6564   21414630.0314
     -1579.3124      -1230.6334
     84109.80444     78616.08942  24687303.7034   24687311.0784
      -493.4064       -384.4724
   -583876.72343   -337796.63042  24664923.3754   24664929.0594
      2537.0944       1976.9564
  -4978652.66547  -3870776.75346  20711381.0234   20711385.3834
       843.0004        656.8834
 98  6 30 15 14 15.0000000  0  8G 4G 8G 7G 5G 9G16G30G24
   1200661.32847    935580.45846  20863686.3444   20863689.1094
     -1611.0624      -1255.3734
  -5362993.54846  -4047061.01345  21996132.1334   21996136.0234
       922.2194        718.6124
   7438253.39745   5778365.33245  23375255.8914   23375261.3874
     -3054.2664      -2379.9474
  -5852029.94246  -3506831.64446  21897050.1804   21897053.9534
      1663.4224       1296.1734
   1284891.64047   1005734.91646  21419155.7194   21419158.7774
     -1594.0624      -1242.1274
     91612.27244     84462.11042  24688730.6804   24688736.8674
      -506.9844       -395.0534
   -621892.70943   -367419.47742  24657688.6724   24657695.1294
      2531.6094       1972.6834
  -4991191.87547  -3880547.55546  20708994.7584   20708998.8954
       828.7814        645.8044
 98  6 30 15 14 30.0000000  0  8G 4G 8G 7G 5G 9G16G30G24
   1224939.05747    954498.16646  20868306.2034   20868308.9694
     -1626.0474      -1267.0504
  -5376713.59546  -4057751.94946  21993521.0474   21993525.4884
       907.0784        706.8144
   7484114.68545   5814101.34745  23383982.8984   23383988.0904
     -3060.5784      -2384.8664
  -5876919.76546  -3526226.29746  21892313.7344   21892317.3914
      1655.1884       1289.7564
   1308913.52647   1024453.25546  21423726.9144   21423730.0314
     -1608.9374      -1253.7184
     99317.81644     90466.46043  24690197.5314   24690204.5664
      -520.4534       -405.5484
   -659826.47743   -396978.26842  24650470.0634   24650478.6454
      2526.1564       1968.4334
  -5003517.29147  -3890151.76546  20706649.5084   20706653.5514
       814.5474        634.7124
 98  6 30 15 14 45.0000000  0  8G 4G 8G 7G 5G 9G16G30G24
   1249443.38347    973592.44246  20872969.1724   20872971.8914
     -1641.1564      -1278.8234
  -5390205.86646  -4068265.40246  21990953.5704   21990957.7544
       891.8914        694.9804
   7530069.66645   5849910.37145  23392727.9304   23392733.5904
     -3066.7194      -2389.6514
  -5901685.34846  -3545524.14046  21887600.8204   21887604.8054
      1646.9224       1283.3164
   1333160.38547   1043346.89647  21428341.1024   21428344.0784
     -1623.9374      -1265.4064
    107226.14245     96628.76842  24691702.6334   24691709.1134
      -533.9374       -416.0554
   -697677.51143   -426472.55242  24643267.4064   24643273.6414
      2520.7504       1964.2214
  -5015627.66847  -3899588.41246  20704345.0634   20704349.0594
       800.1724        623.5114
 98  6 30 15 15  0.0000000  0  8G 4G 8G 7G 5G 9G16G30G24
   1274173.31547    992862.51146  20877675.1564   20877678.1334
     -1656.0944      -1290.4634
  -5403470.91946  -4078601.80246  21988429.5634   21988433.3014
       876.8754        683.2794
   7576116.88745   5885791.30045  23401490.4304   23401496.0784
     -3072.8284      -2394.4124
  -5926326.58646  -3564725.09646  21882911.9454   21882916.1174
      1638.5944       1276.8264
   1357630.17447   1062414.25746  21432997.5394   21433000.6914
     -1638.6094      -1276.8384
    115335.61945    102947.83742  24693245.6024   24693251.2154
      -547.2504       -426.4294
   -735451.14043   -455906.53842  24636079.5944   24636083.3674
      2515.8444       1960.3984
  -5027523.38847  -3908857.79146  20702081.4534   20702085.4024
       786.0164        612.4804
 98  6 30 15 15 15.0000000  0  8G 4G 8G 7G 5G 9G16G30G24
   1299126.42947   1012306.49646  20882423.7194   20882426.6374
     -1671.0164      -1302.0904
  -5416512.90746  -4088764.38446  21985947.6804   21985951.2194
       862.0784        671.7494
   7622253.75245   5921742.08645  23410269.9224   23410275.8524
     -3078.7504      -2399.0264
  -5950842.51746  -3583828.40146  21878246.8054   21878250.6484
      1630.2034       1270.2884
   1382318.07347   1081651.56547  21437695.5084   21437698.7194
     -1653.1094      -1288.1374
    123644.27744    109422.10142  24694827.0704   24694835.0554
      -560.5314       -436.7784
   -773152.21842   -485283.98042  24628905.3594   24628911.9104
      2510.9534       1956.5874
  -5039207.58447  -3917962.34747  20699857.9224   20699862.1524
       771.8914        601.4734
 98  6 30 15 15 30.0000000  0  8G 4G 8G 7G 5G 9G16G30G24
   1324302.60447   1031924.29246  20887214.6334   20887217.5394
     -1685.7664      -1313.5844
  -5429335.47546  -4098755.98646  21983507.6724   21983511.2584
       847.6414        660.4994
   7668478.44545   5957761.27845  23419065.8754   23419071.7114
     -3084.5004      -2403.5064
  -5975234.26646  -3602834.93746  21873605.2814   21873609.0084
      1622.0784       1263.9574
   1407221.56247   1101056.86847  21442434.5004   21442437.3244
     -1667.2664      -1299.1684
    132150.67844    116050.45042  24696445.4454   24696453.8524
      -573.6564       -447.0054
   -810780.23843   -514604.46542  24621744.7274   24621750.7154
      2506.1094       1952.8134
  -5050681.16947  -3926902.79647  20697674.5944   20697678.4384
       757.9224        590.5884
 98  6 30 15 15 45.0000000  0  8G 4G 8G 7G 5G 9G16G30G24
   1349699.73547   1051714.25646  20892047.3204   20892049.8874
     -1700.4064      -1324.9924
  -5441941.55546  -4108578.90946  21981108.8364   21981112.4924
       833.3134        649.3344
   7714788.42545   5993846.91845  23427878.8984   23427884.5474
     -3090.1094      -2407.8774
  -5999503.91646  -3621746.34346  21868986.5704   21868990.2034
      1614.0004       1257.6624
   1432335.92447   1120626.48847  21447213.5554   21447216.4844
     -1681.1564      -1309.9924
    140856.74044    122834.39342  24698101.3914   24698109.8204
      -587.1414       -457.5124
   -848333.45542   -543866.73542  24614597.7344   24614602.1054
      2501.0784       1948.8924
  -5061944.56447  -3935679.45547  20695531.1644   20695535.2304
       744.0164        579.7524
 98  6 30 15 16  0.0000000  0  8G 4G 8G 7G 5G 9G16G30G24
   1375313.40147   1071672.95646  20896921.5634   20896924.2584
     -1714.7034      -1336.1324
  -5454335.50446  -4118236.51746  21978750.3444   21978754.0124
       819.2664        638.3894
   7761180.78845   6029996.80045  23436706.6024   23436712.2734
     -3095.4694      -2412.0544
  -6023655.18046  -3640565.49746  21864390.8754   21864394.3674
      1606.1724       1251.5634
   1457653.85547   1140354.73347  21452031.4774   21452034.3834
     -1694.5164      -1320.4024
    149763.69344    129774.91242  24699796.8754   24699801.3524
      -600.3444       -467.8004
   -885814.39942   -573072.66341  24607465.8204   24607470.6254
      2496.4384       1945.2764
  -5073002.58747  -3944296.08947  20693426.8054   20693430.7194
       730.4694        569.1964
 98  6 30 15 16 15.0000000  0  8G 4G 8G 7G 5G 9G16G30G24
   1401142.17847   1091799.26746  20901836.7344   20901839.6884
     -1729.1254      -1347.3704
  -5466518.14646  -4127729.48046  21976431.9694   21976435.9654
       805.0784        627.3344
   7807652.19845   6066208.25945  23445550.1174   23445555.6134
     -3100.6414      -2416.0844
  -6047688.49846  -3659292.73746  21859817.2894   21859821.3204
      1598.2974       1245.4264
   1483172.52547   1160239.39947  21456887.4774   21456890.4884
     -1707.9844      -1330.8974
    158868.22444    136869.40042  24701529.0234   24701536.0944
      -613.5944       -478.1254
   -923224.79042   -602223.65042  24600346.0474   24600349.4344
      2491.6564       1941.5504
  -5083857.77547  -3952754.67047  20691361.2424   20691365.2624
       716.8444        558.5804
 98  6 30 15 16 30.0000000  0  8G 4G 8G 7G 5G 9G16G30G24
   1427185.39647   1112092.68246  20906792.3834   20906795.1374
     -1743.2664      -1358.3894
  -5478490.16446  -4137058.32846  21974154.0164   21974158.1174
       791.2974        616.5954
   7854197.93345   6102477.59745  23454407.6564   23454413.1414
     -3105.3594      -2419.7614
  -6071605.18546  -3677929.10046  21855266.3134   21855270.0044
      1590.6414       1239.4604
   1508892.19347   1180280.68347  21461781.7274   21461785.1024
     -1721.2664      -1341.2464
    168170.75645    144118.13742  24703299.9614   24703306.7464
      -626.7664       -488.3894
   -960567.19442   -631321.59842  24593241.4694   24593244.2814
      2487.3754       1938.2144
  -5094509.28847  -3961054.53747  20689334.4614   20689338.4804
       703.4064        548.1094
 98  6 30 15 16 45.0000000  0  8G 4G 8G 7G 5G 9G16G30G24
   1453440.17647   1132550.94546  20911788.7034   20911791.4224
     -1757.2344      -1369.2744
  -5490254.87146  -4146225.61846  21971914.7344   21971919.1994
       777.4064        605.7714
   7900814.60945   6138802.25545  23463278.3284   23463283.9184
     -3110.0944      -2423.4504
  -6095405.92746  -3696475.11946  21850737.2664   21850740.9804
      1582.8594       1233.3974
   1534811.15047   1200477.26147  21466714.0314   21466717.2894
     -1734.4844      -1351.5464
    177673.68345    151523.03742  24705108.4144   24705114.9414
      -640.2034       -498.8604
   -997844.09143   -660368.50242  24586148.0864   24586150.8874
      2482.9224       1934.7444
  -5104961.55047  -3969199.14747  20687345.4844   20687349.3754
       690.3444        537.9304
 98  6 30 15 17  0.0000000  0  8G 4G 8G 7G 5G 9G16G30G24
   1479899.46147   1153168.56546  20916823.5234   20916826.2424
     -1770.6564      -1379.7324
  -5501813.88246  -4155232.62646  21969715.3444   21969719.9264
       763.7814        595.1544
   7947499.16945   6175179.80345  23472162.4924   23472168.0824
     -3114.5944      -2426.9564
  -6119091.15746  -3714931.12846  21846230.0864   21846233.8484
      1575.1414       1227.3824
   1560924.40447   1220825.24047  21471683.2274   21471686.4734
     -1747.2974      -1361.5304
    187375.14745    159082.59042  24706954.6644   24706962.0514
      -653.3914       -509.1364
  -1035056.66743   -689365.28442  24579066.0164   24579072.2274
      2478.7194       1931.4694
  -5115221.15047  -3977193.62947  20685393.2664   20685397.1804
       677.5944        527.9954
 98  6 30 15 17 15.0000000  0  8G 4G 8G 7G 5G 9G16G30G24
   1506559.05847   1173942.27346  20921896.8524   20921899.6994
     -1783.9694      -1390.1064
  -5513170.49146  -4164081.92646  21967554.2114   21967558.5004
       750.4064        584.7324
   7994251.61645   6211610.23045  23481059.0394   23481065.0864
     -3119.0314      -2430.4144
  -6142661.00746  -3733297.23346  21841744.7504   21841748.5824
      1567.5164       1221.4414
   1587228.51347   1241321.93647  21476688.8134   21476691.9414
     -1759.9534      -1371.3924
    197274.27345    166796.25142  24708837.8834   24708844.2464
      -666.4844       -519.3384
  -1072205.21443   -718312.20642  24571997.5634   24572002.0044
      2474.4694       1928.1574
  -5125290.52447  -3985039.88547  20683477.0234   20683481.1254
       664.9844        518.1704
 98  6 30 15 17 30.0000000  0  8G 4G 8G 7G 5G 9G16G30G24
   1533417.18747   1194870.67846  20927007.7194   20927010.7194
     -1797.0784      -1400.3214
  -5524326.45046  -4172774.87746  21965431.6254   21965435.7384
       737.0634        574.3344
   8041068.35845   6248090.77045  23489968.1094   23489974.0044
     -3123.2344      -2433.6894
  -6166118.23746  -3751575.57646  21837281.2814   21837285.1024
      1560.1094       1215.6704
   1613722.04747   1261966.23147  21481730.4774   21481733.7704
     -1772.5474      -1381.2054
    207369.39945    174662.56242  24710759.4144   24710766.0594
      -679.5004       -529.4814
  -1109291.60843   -747210.68142  24564939.7894   24564945.1684
      2470.4064       1924.9924
  -5135172.78047  -3992740.34047  20681596.5634   20681600.5234
       652.6724        508.5754
 98  6 30 15 17 45.0000000  0  8G 4G 8G 7G 5G 9G16G30G24
   1560469.81347   1215950.64046  20932155.5784   20932158.5434
     -1809.8914      -1410.3044
  -5535280.99746  -4181310.87146  21963347.2034   21963351.3164
       723.6094        563.8514
   8087946.99745   6284619.53845  23498888.6804   23498894.2114
     -3127.2344      -2436.8064
  -6189465.56146  -3769768.28246  21832838.0864   21832842.0234
      1552.8754       1210.0324
   1640404.93447   1282758.08247  21486808.1724   21486811.5124
     -1785.1414      -1391.0194
    217659.24245    182680.61842  24712717.0234   24712721.6054
      -692.4224       -539.5504
  -1146317.83943   -776062.28642  24557893.6804   24557899.7154
      2466.4844       1921.9364
  -5144871.40447  -4000297.70047  20679750.7424   20679754.8204
       640.4844        499.0794
 98  6 30 15 18  0.0000000  0  8G 4G 8G 7G 5G 9G16G30G24
   1587713.83547   1237179.74246  20937340.0554   20937342.9024
     -1822.6094      -1420.2154
  -5546033.71746  -4189689.61346  21961300.6804   21961304.5704
       710.1724        553.3814
   8134885.55045   6321194.99445  23507820.9064   23507826.5084
     -3131.2344      -2439.9234
  -6212703.93846  -3787876.09946  21828416.0394   21828419.6374
      1545.6564       1204.4074
   1667276.35047   1303696.83547  21491921.5554   21491924.8014
     -1797.6874      -1400.7954
    228141.43444    190848.57441  24714711.5944   24714717.1484
      -705.1094       -549.4364
  -1183286.21043   -804868.81242  24550858.8134   24550864.7544
      2462.7814       1919.0504
  -5154387.23447  -4007712.62547  20677939.8594   20677943.8324
       628.3444        489.6194
 98  6 30 15 18 15.0000000  0  8G 4G 8G 7G 5G 9G16G30G24
   1615146.42947   1258555.78246  20942560.3204   20942563.2624
     -1835.0784      -1429.9314
  -5556587.46146  -4197913.30746  21959292.4774   21959296.4144
       697.0164        543.1294
   8181882.39745   6357815.88044  23516763.5474   23516769.8634
     -3135.0314      -2442.8814
  -6235835.70046  -3805900.82846  21824014.0394   21824017.8834
      1538.5784       1198.8924
   1694334.44847   1324781.05347  21497070.4064   21497073.5704
     -1810.0624      -1410.4384
    238810.25744    199161.99741  24716742.1564   24716748.1214
      -717.3914       -559.0064
  -1220201.83844   -833634.21543  24543835.0394   24543840.7584
      2459.3134       1916.3474
  -5163722.49547  -4014986.84047  20676163.6564   20676167.8054
       616.3284        480.2564
 98  6 30 15 18 30.0000000  0  8G 4G 8G 7G 5G 9G16G30G24
   1642765.33347   1280076.99746  20947816.0784   20947819.0084
     -1847.4694      -1439.5864
  -5566944.44946  -4205983.68946  21957321.7114   21957325.4024
       683.8754        532.8904
   8228936.02045   6394480.98045  23525718.2424   23525724.0664
     -3138.8444      -2445.8524
  -6258862.04046  -3823843.42046  21819632.4844   21819636.3284
      1531.5474       1193.4134
   1721578.32547   1346010.03647  21502254.8204   21502258.2544
     -1822.5004      -1420.1304
    249663.26345    207618.86642  24718807.7974   24718811.8984
      -729.7504       -568.6364
  -1257066.17244   -862359.63743  24536818.9454   24536823.6914
      2455.9694       1913.7424
  -5172877.42947  -4022120.54647  20674421.3364   20674425.4614
       604.2664        470.8564
 98  6 30 15 18 45.0000000  0  8G 4G 8G 7G 5G 9G16G30G24
   1670569.45947   1301742.54746  20953106.9304   20953109.6724
     -1859.7194      -1449.1314
  -5577105.00646  -4213900.99446  21955387.9224   21955391.6484
       670.9064        522.7844
   8276048.20245   6431191.73345  23534682.6954   23534688.0514
     -3142.7814      -2448.9204
  -6281781.81346  -3841702.96446  21815271.0474   21815275.0084
      1524.4844       1187.9104
   1749008.32847   1367384.05147  21507474.6174   21507477.7934
     -1834.7814      -1429.7004
    260701.17845    216219.86542  24720908.1724   24720913.6214
      -741.8914       -578.0974
  -1293882.07244   -891047.34743  24529814.0864   24529819.4884
      2452.7974       1911.2704
  -5181852.47847  -4029114.07847  20672713.3754   20672717.4304
       592.5004        461.6884
 98  6 30 15 19  0.0000000  0  8G 4G 8G 7G 5G 9G16G30G24
   1698556.60847   1323550.70746  20958433.0164   20958435.8404
     -1871.9064      -1458.6284
  -5587070.41646  -4221666.24646  21953491.6644   21953495.4964
       657.8594        512.6184
   8323219.34745   6467948.42045  23543659.7034   23543665.5864
     -3146.5944      -2451.8914
  -6304597.82846  -3859481.66946  21810929.1414   21810932.9494
      1517.7344       1182.6504
   1776621.90247   1388901.10847  21512729.2894   21512732.5704
     -1847.0474      -1439.2574
    271918.09844    224960.33642  24723042.6644   24723049.1094
      -753.6254       -587.2404
  -1330649.68044   -919697.41043  24522817.1804   24522822.1484
      2449.6094       1908.7874
  -5190652.19847  -4035970.99447  20671038.8674   20671042.6174
       580.7344        452.5204
 98  6 30 15 19 15.0000000  0  8G 4G 8G 7G 5G 9G16G30G24
   1726727.61847   1345502.13546  20963793.6334   20963796.5274
     -1884.2504      -1468.2474
  -5596841.73646  -4229280.26046  21951632.4384   21951635.8834
       644.9844        502.5854
   8370444.71345   6504747.37245  23552646.5394   23552653.1134
     -3150.0784      -2454.6064
  -6327316.01646  -3877184.13746  21806606.0704   21806609.9384
      1511.4224       1177.7314
   1804419.74047   1410561.74747  21518018.8524   21518022.1454
     -1859.3284      -1448.8274
    283309.42544    233836.67342  24725209.9144   24725215.0354
      -765.2034       -596.2624
  -1367371.80144   -948312.04443  24515828.7974   24515833.2034
      2446.7034       1906.5224
  -5199274.59547  -4042689.73747  20669398.1414   20669402.0904
       568.9224        443.3164
 98  6 30 15 19 30.0000000  0  8G 4G 8G 7G 5G 9G16G30G24
   1755085.03147   1367598.81646  20969189.9534   20969192.8954
     -1896.7664      -1477.9994
  -5606418.31446  -4236742.52546  21949809.9304   21949813.5984
       631.8134        492.3214
   8417722.42445   6541587.10345  23561642.9614   23561648.7034
     -3153.6254      -2457.3704
  -6349939.75046  -3894812.99746  21802300.9694   21802304.9304
      1505.0314       1172.7524
   1832402.83147   1432366.73847  21523344.0314   21523347.2424
     -1871.8124      -1458.5554
    294873.96744    242848.09042  24727410.9774   24727421.3524
      -776.7974       -605.2964
  -1404049.03044   -976891.66243  24508849.5314   24508852.6254
      2443.5784       1904.0874
  -5207718.35047  -4049269.27647  20667791.3444   20667795.1994
       556.8594        433.9164
 98  6 30 15 19 45.0000000  0  8G 4G 8G 7G 5G 9G16G30G24
   1783626.31747   1389838.77146  20974620.9534   20974623.7074
     -1908.8754      -1487.4354
  -5615799.20646  -4244052.29546  21948024.7584   21948028.5554
       618.8594        482.2284
   8465050.69145   6578466.25544  23570650.0004   23570655.6954
     -3156.9844      -2459.9884
  -6372469.86546  -3912368.91746  21798013.6414   21798017.4144
      1498.8444       1167.9304
   1860569.56747   1454314.83247  21528703.9064   21528707.1174
     -1883.8754      -1467.9554
    306610.12244    251993.15242  24729643.3674   24729650.7894
      -788.0624       -614.0754
  -1440681.89244  -1005436.72043  24501878.6094   24501885.3714
      2440.6414       1901.7984
  -5215984.19347  -4055710.18147  20666218.3834   20666222.2154
       545.0944        424.7484
 98  6 30 15 20  0.0000000  0  8G 4G 8G 7G 5G 9G16G30G24
   1812349.00847   1412220.08246  20980086.7734   20980089.5394
     -1920.9224      -1496.8224
  -5624987.67346  -4251212.13946  21946276.2114   21946280.0314
       606.2034        472.3664
   8512429.87545   6615385.03944  23579665.6174   23579670.7034
     -3160.3124      -2462.5814
  -6394908.11446  -3929853.25146  21793743.8054   21793747.5314
      1492.8134       1163.2314
   1888915.48147   1476402.54647  21534098.0004   21534101.1884
     -1895.6254      -1477.1104
    318512.26944    261267.55342  24731908.8524   24731915.6724
      -798.9844       -622.5854
  -1477270.87444  -1033947.63843  24494915.7974   24494920.8484
      2437.8914       1899.6554
  -5224072.49347  -4062012.74447  20664679.1174   20664683.1254
       533.2504        415.5194
 98  6 30 15 20 15.0000000  0  8G 4G 8G 7G 5G 9G16G30G24
   1841253.23147   1434742.84947  20985586.8594   20985589.6134
     -1932.9844      -1506.2224
  -5633985.55446  -4258223.47246  21944563.9614   21944567.9574
       593.5004        462.4684
   8559861.08945   6652344.40644  23588691.7734   23588698.3244
     -3163.8914      -2465.3694
  -6417255.30446  -3947266.63246  21789491.0314   21789494.8404
      1486.7664       1158.5194
   1917437.99247   1498627.86147  21539525.5784   21539528.8954
     -1907.4374      -1486.3154
    330579.03844    270670.18942  24734204.3444   24734209.9924
      -809.9694       -631.1444
  -1513819.41944  -1062426.97343  24487961.2424   24487965.0164
      2435.1884       1897.5494
  -5231983.00447  -4068176.76747  20663174.0394   20663177.7894
       521.4384        406.3154
 98  6 30 15 20 30.0000000  0  8G 4G 8G 7G 5G 9G16G30G24
   1870339.05347   1457407.12147  20991121.9144   20991124.7034
     -1945.1254      -1515.6824
  -5642790.55446  -4265084.51146  21942888.7274   21942892.7114
       580.5004        452.3384
   8607347.12445   6689346.46244  23597727.8524   23597733.8404
     -3167.6094      -2468.2674
  -6439509.79246  -3964607.77446  21785256.0944   21785259.8914
      1480.5164       1153.6494
   1946139.57847   1520992.71647  21544987.2424   21544990.5474
     -1919.4224      -1495.6534
    342812.32344    280202.67642  24736533.6954   24736539.2274
      -821.1414       -639.8504
  -1550325.39944  -1090873.16444  24481013.8054   24481019.5944
      2432.2504       1895.2604
  -5239715.25347  -4074201.88847  20661702.6484   20661706.5274
       509.5314        397.0374
 98  6 30 15 20 45.0000000  0  8G 4G 8G 7G 5G 9G16G30G24
   1899606.11147   1480212.61347  20996691.3754   20996694.2464
     -1957.1874      -1525.0814
  -5651400.57446  -4271793.60946  21941249.7814   21941253.6484
       567.5004        442.2084
   8654889.37445   6726392.32045  23606774.9694   23606780.8874
     -3171.3914      -2471.2134
  -6461671.09146  -3981876.30646  21781038.7974   21781042.6644
      1474.3134       1148.8154
   1975020.90147   1543497.63147  21550483.5474   21550487.0164
     -1931.4224      -1505.0044
    355213.15644    289865.68042  24738892.7734   24738898.6914
      -832.3754       -648.6044
  -1586787.24444  -1119284.98943  24474075.9614   24474081.2114
      2429.2664       1892.9344
  -5247269.27447  -4080088.12747  20660265.2274   20660269.0234
       497.6414        387.7724
 98  6 30 15 21  0.0000000  0  8G 4G 8G 7G 5G 9G16G30G24
   1929055.14047   1503159.90547  21002295.4534   21002298.4304
     -1969.3594      -1534.5664
  -5659814.87346  -4278350.19846  21939648.9454   21939653.2464
       554.3914        431.9934
   8702489.21945   6763483.09244  23615832.4454   23615838.2934
     -3175.3124      -2474.2694
  -6483739.44946  -3999072.41246  21776839.6954   21776843.2704
      1468.1254       1143.9944
   2004081.76547   1566142.44247  21556013.5784   21556016.8594
     -1943.4064      -1514.3434
    367782.40544    299659.88742  24741284.5864   24741291.5864
      -843.5624       -657.3214
  -1623201.16944  -1147659.43943  24467145.8134   24467152.1644
      2425.8754       1890.2924
  -5254643.95247  -4085834.61947  20658861.6254   20658865.6094
       485.6564        378.4334
 98  6 30 15 21 15.0000000  0  8G 4G 8G 7G 5G 9G16G30G24
   1958684.41647   1526247.64747  21007933.5084   21007936.7074
     -1981.4064      -1543.9534
  -5668032.26946  -4284753.35946  21938085.2974   21938089.5394
       541.1094        421.6444
   8750146.98745   6800618.97444  23624902.1254   23624907.9734
     -3179.2194      -2477.3134
  -6505715.86546  -4016196.87946  21772657.6954   21772661.4804
      1461.8754       1139.1234
   2033322.36247   1588927.30747  21561577.8674   21561581.2664
     -1955.5164      -1523.7784
    380519.83445    309585.20342  24743708.5164   24743715.1954
      -854.9844       -666.2224
  -1659565.18544  -1175995.05843  24460226.5474   24460231.7034
      2422.5004       1887.6624
  -5261838.46547  -4091440.72547  20657492.7274   20657496.5594
       473.4534        368.9254
 98  6 30 15 21 30.0000000  0  8G 4G 8G 7G 5G 9G16G30G24
   1988493.36447   1549475.39147  21013605.8914   21013608.8204
     -1993.1414      -1553.0974
  -5676052.49546  -4291002.88946  21936558.8914   21936562.4884
       528.1724        411.5634
   8797864.30445   6837801.24844  23633981.9614   23633988.4534
     -3183.2344      -2480.4424
  -6527596.68946  -4033246.85746  21768493.7894   21768497.3524
      1455.4534       1134.1194
   2062742.54747   1611852.11047  21567176.4534   21567179.5824
     -1967.1874      -1532.8734
    393428.66044    319644.00742  24746165.0004   24746172.8674
      -866.2664       -675.0124
  -1695880.96844  -1204293.03943  24453315.7194   24453320.6294
      2419.5004       1885.3254
  -5268852.37147  -4096906.09447  20656157.8204   20656161.7344
       461.6564        359.7324
 98  6 30 15 21 45.0000000  0  8G 4G 8G 7G 5G 9G16G30G24
   2018479.13647   1572840.92447  21019312.1954   21019315.2304
     -2004.9534      -1562.3014
  -5683876.73246  -4297099.69746  21935070.1884   21935073.9734
       515.1094        401.3844
   8845644.36545   6875032.41244  23643074.0474   23643080.3404
     -3187.3914      -2483.6814
  -6549377.55046  -4050218.94046  21764349.2584   21764352.6914
      1448.6724       1128.8354
   2092338.13647   1634913.58847  21572808.1564   21572811.5204
     -1978.8284      -1541.9444
    406508.75444    329836.29242  24748653.2194   24748660.1954
      -877.7034       -683.9254
  -1732150.14444  -1232554.68543  24446413.8204   24446419.8324
      2416.4694       1882.9634
  -5275685.95147  -4102230.95447  20654857.5554   20654861.5164
       449.5784        350.3214
 98  6 30 15 22  0.0000000  0  8G 4G 8G 7G 5G 9G16G30G24
   2048643.30547   1596345.46547  21025052.2504   21025055.1914
     -2016.9694      -1571.6644
  -5691506.23146  -4303044.75446  21933618.4924   21933622.3244
       502.1564        391.2914
   8893486.06145   6912311.64244  23652179.0314   23652184.3754
     -3191.4694      -2486.8594
  -6571056.92546  -4067111.94446  21760223.8364   21760227.2704
      1441.9384       1123.5884
   2122107.47747   1658110.46747  21578473.2344   21578476.5514
     -1990.3914      -1550.9544
    419760.21844    340162.09542  24751175.6254   24751180.5824
      -889.1874       -692.8734
  -1768374.74444  -1260781.61443  24439520.7664   24439525.9344
      2413.5164       1880.6624
  -5282339.75847  -4107415.72947  20653591.2974   20653595.1644
       437.5634        340.9584
 98  6 30 15 22 15.0000000  0  8G 4G 8G 7G 5G 9G16G30G24
   2078987.75947   1619990.48747  21030826.5784   21030829.5554
     -2028.8754      -1580.9424
  -5698942.26946  -4308839.07546  21932203.3444   21932207.1174
       489.3134        381.2824
   8941385.92345   6949636.13644  23661293.2814   23661299.3524
     -3195.0784      -2489.6714
  -6592635.73546  -4083926.58646  21756117.4844   21756121.2344
      1435.2664       1118.3894
   2152050.12747   1681442.38747  21584170.9454   21584174.1914
     -2001.9534      -1559.9634
    433185.68444    350623.62242  24753730.7274   24753737.9144
      -900.8754       -701.9814
  -1804556.71044  -1288975.37743  24432635.1024   24432640.2344
      2410.8284       1878.5674
  -5288813.19447  -4112459.95347  20652359.3754   20652363.3594
       425.6564        331.6804
 98  6 30 15 22 30.0000000  0  8G 4G 8G 7G 5G 9G16G30G24
   2109510.52147   1643774.45447  21036634.9614   21036637.8094
     -2040.8284      -1590.2564
  -5706185.00246  -4314482.75346  21930825.0004   21930828.8914
       476.3754        371.2014
   8989338.72045   6987001.91444  23670418.3754   23670424.1294
     -3198.5784      -2492.3994
  -6614113.60846  -4100662.57846  21752030.3054   21752033.7034
      1428.4224       1113.0564
   2182167.67647   1704910.59347  21589902.3134   21589905.8054
     -2013.7034      -1569.1194
    446788.21544    361222.94242  24756318.6564   24756324.1764
      -912.7504       -711.2344
  -1840696.75344  -1317136.43943  24425758.1024   24425761.9224
      2407.8754       1876.2664
  -5295108.94247  -4117365.72347  20651161.1804   20651165.1414
       413.7664        322.4154
 98  6 30 15 22 45.0000000  0  8G 4G 8G 7G 5G 9G16G30G24
   2140213.28547   1667698.67947  21042477.1484   21042480.0204
     -2052.8594      -1599.6314
  -5713233.37946  -4319974.99846  21929483.8134   21929487.4104
       463.4534        361.1324
   9037342.28645   7024407.22445  23679553.3524   23679559.0124
     -3201.8594      -2494.9554
  -6635488.91646  -4117318.64446  21747962.7344   21747966.0514
      1421.6564       1107.7844
   2212460.31747   1728515.23047  21595666.8984   21595670.2624
     -2025.2974      -1578.1534
    460568.20345    371960.58842  24758941.2584   24758947.3284
      -924.5944       -720.4634
  -1876792.66644  -1345263.09543  24418889.7274   24418893.5824
      2404.9534       1873.9894
  -5301225.60647  -4122131.94747  20649997.3204   20650001.2464
       401.7814        313.0764
 98  6 30 15 23  0.0000000  0  8G 4G 8G 7G 5G 9G16G30G24
   2171096.18247   1691763.27147  21048354.1484   21048356.9844
     -2064.9374      -1609.0424
  -5720089.77446  -4325317.63546  21928178.9924   21928182.7774
       450.6254        351.1364
   9085392.98245   7061849.31244  23688697.1804   23688702.4304
     -3204.9224      -2497.3424
  -6656763.81746  -4133896.47746  21743914.1094   21743917.7304
      1414.9224       1102.5374
   2242925.86547   1752254.60547  21601464.0314   21601467.4414
     -2036.9064      -1587.2004
    474525.26645    382836.19042  24761597.5474   24761605.7544
      -936.4374       -729.6924
  -1912847.29344  -1373357.58543  24412027.4064   24412032.9144
      2402.2664       1871.8954
  -5307162.92947  -4126758.42647  20648867.6644   20648871.6024
       389.7974        303.7384
 98  6 30 15 23 15.0000000  0  8G 4G 8G 7G 5G 9G16G30G24
   2202160.84947   1715969.49847  21054265.7034   21054268.5984
     -2077.0474      -1618.4784
  -5726750.33146  -4330507.68746  21926911.5004   21926915.1914
       437.4224        340.8484
   9133489.58745   7099327.12945  23697849.2344   23697854.9774
     -3208.0474      -2499.7774
  -6677936.55746  -4150394.70546  21739885.1804   21739888.6954
      1408.0314       1097.1674
   2273567.24147   1776130.99047  21607294.9534   21607298.5274
     -2048.7034      -1596.3924
    488660.73145    393850.85242  24764287.3914   24764293.4144
      -948.3594       -738.9814
  -1948861.73044  -1401420.78042  24405175.5084   24405181.7544
      2399.6414       1869.8504
  -5312920.90247  -4131245.14447  20647771.9924   20647775.9534
       377.8594        294.4364
 98  6 30 15 23 30.0000000  0  8G 4G 8G 7G 5G 9G16G30G24
   2233405.06947   1740315.63647  21060211.1644   21060213.9774
     -2088.9694      -1627.7684
  -5733214.85146  -4335544.97346  21925681.6174   21925685.2974
       424.4694        330.7554
   9181629.87745   7136839.00244  23707010.6254   23707016.8134
     -3210.7194      -2501.8594
  -6699007.11746  -4166813.30446  21735875.2814   21735878.9264
      1401.3134       1091.9324
   2304382.55347   1800142.90747  21613158.9614   21613162.1254
     -2060.0314      -1605.2194
    502973.41744    405003.59542  24767010.4614   24767017.8244
      -960.0784       -748.1134
  -1984839.08144  -1429455.06743  24398328.8364   24398332.2114
      2397.2344       1867.9754
  -5318499.68547  -4135592.24447  20646710.1724   20646714.2854
       365.9384        285.1464
 98  6 30 15 23 45.0000000  0  8G 4G 8G 7G 5G 9G16G30G24
   2264829.66147   1764802.32447  21066191.1334   21066194.2384
     -2101.2664      -1637.3504
  -5739484.24046  -4340430.20546  21924488.5164   21924492.2544
       411.1094        320.3454
   9229811.78545   7174383.32144  23716178.7194   23716183.7814
     -3213.7504      -2504.2214
  -6719976.44946  -4183153.03346  21731885.4144   21731889.1174
      1394.3594       1086.5144
   2335367.17047   1824286.74847  21619055.0864   21619058.5904
     -2071.5474      -1614.1924
    517463.02644    416294.21141  24769767.5004   24769773.8634
      -972.1874       -757.5494
  -2020778.28844  -1457459.59542  24391488.9384   24391494.2814
      2394.3134       1865.6984
  -5323899.07647  -4139799.55247  20645682.7034   20645686.7114
       353.6884        275.6014
 98  6 30 15 24  0.0000000  0  8G 4G 8G 7G 5G 9G16G30G24
   2296438.60447   1789432.65847  21072206.0864   21072209.1094
     -2113.2664      -1646.7004
  -5745552.25246  -4345158.52946  21923333.6884   21923337.4614
       397.9384        310.0814
   9278035.88145   7211960.49444  23725356.3754   23725361.8484
     -3216.1564      -2506.0964
  -6740842.94746  -4199412.63246  21727914.5704   21727918.2734
      1387.8594       1081.4494
   2366525.26847   1848565.77247  21624984.2424   21624987.5124
     -2082.9064      -1623.0444
    532134.48445    427726.54742  24772559.5234   24772564.9144
      -984.0474       -766.7904
  -2056670.61844  -1485427.66243  24384660.2814   24384665.4144
      2391.2504       1863.3124
  -5329115.07547  -4143863.95847  20644690.3284   20644694.1844
       341.7814        266.3234
 98  6 30 15 24 15.0000000  0  8G 4G 8G 7G 5G 9G16G30G24
   2328223.87347   1814200.39547  21078254.5234   21078257.5824
     -2124.7504      -1655.6494
  -5751423.68746  -4349733.67346  21922216.5164   21922220.3244
       384.8754        299.9034
   9326295.32445   7249565.19744  23734539.5704   23734545.5704
     -3218.4694      -2507.8984
  -6761614.42046  -4215598.18246  21723961.8594   21723965.6214
      1381.6414       1076.6034
   2397852.70547   1872976.74547  21630945.7814   21630949.1914
     -2094.0944      -1631.7614
    546982.66644    439296.60742  24775384.9774   24775392.6454
      -995.7194       -775.8854
  -2092516.63444  -1513359.61642  24377838.2194   24377843.3754
      2388.1564       1860.9014
  -5334155.34847  -4147791.43547  20643731.0634   20643735.1294
       330.2194        257.3134
 98  6 30 15 24 30.0000000  0  8G 4G 8G 7G 5G 9G16G30G24
   2360181.20847   1839102.20347  21084335.7584   21084338.8754
     -2136.1254      -1664.5134
  -5757097.67046  -4354154.95346  21921136.7504   21921140.3714
       371.7034        289.6394
   9374591.34145   7287198.41544  23743729.8594   23743736.0234
     -3221.0164      -2509.8824
  -6782290.58646  -4231709.46246  21720027.1334   21720030.6024
      1375.2664       1071.6364
   2429349.91347   1897520.01247  21636939.3754   21636942.6914
     -2105.4224      -1640.5884
    562006.03543    451003.07142  24778243.2584   24778251.4774
     -1007.2814       -784.8944
  -2128313.34844  -1541253.12742  24371025.9224   24371031.4304
      2384.8134       1858.2954
  -5339019.36047  -4151581.56847  20642805.5704   20642809.4614
       318.3914        248.0974
 98  6 30 15 24 45.0000000  0  8G 4G 8G 7G 5G 9G16G30G24
   2392309.34047   1864137.10447  21090449.5314   21090452.5664
     -2147.4844      -1673.3644
  -5762571.90846  -4358420.59746  21920094.8284   21920098.3444
       358.3444        279.2294
   9422929.47745   7324864.45044  23752929.7194   23752935.5904
     -3223.9374      -2512.1594
  -6802870.51646  -4247745.76246  21716110.8524   21716114.4614
      1368.8754       1066.6564
   2461016.86647   1922195.54347  21642965.5314   21642968.9534
     -2116.6414      -1649.3304
    577203.04044    462844.94842  24781135.9304   24781143.0474
     -1018.7814       -793.8564
  -2164057.43744  -1569105.65842  24364224.6414   24364230.1484
      2381.2504       1855.5194
  -5343704.46147  -4155232.28847  20641913.9454   20641917.8364
       306.4384        238.7824
 98  6 30 15 25  0.0000000  0  8G 4G 8G 7G 5G 9G16G30G24
   2424606.30647   1889303.56647  21096595.4844   21096598.5084
     -2158.7504      -1682.1434
  -5767848.18946  -4362531.98746  21919090.7114   21919094.2384
       345.1564        268.9534
   9471310.25145   7362563.73144  23762135.0164   23762140.2894
     -3226.8444      -2514.4244
  -6823356.13146  -4263708.56846  21712212.4614   21712215.9774
      1362.5314       1061.7134
   2492849.79047   1947000.40246  21649023.1804   21649026.6604
     -2127.7814      -1658.0114
    592570.17643    474819.34342  24784059.5864   24784065.4224
     -1030.2034       -802.7564
  -2199750.39044  -1596918.32642  24357432.7974   24357438.1764
      2377.7814       1852.8174
  -5348211.74847  -4158744.45247  20641056.2584   20641060.1134
       294.5314        229.5054
 98  6 30 15 25 15.0000000  0  8G 4G 8G 7G 5G 9G16G30G24
   2457071.17847   1914600.85947  21102773.3754   21102776.3284
     -2169.7814      -1690.7394
  -5772927.26746  -4366489.70346  21918124.4304   21918128.2624
       332.1564        258.8234
   9519734.71145   7400297.03844  23771349.9224   23771357.5204
     -3229.6564      -2516.6154
  -6843745.99446  -4279596.75946  21708332.5784   21708336.0704
      1356.2344       1056.8064
   2524850.32547   1971935.87447  21655112.8284   21655116.2974
     -2138.8594      -1666.6444
    608109.62043    486928.01342  24787016.8674   24787026.5514
     -1041.6254       -811.6564
  -2235390.34344  -1624689.69843  24350650.5474   24350655.5864
      2374.2194       1850.0414
  -5352541.34647  -4162118.16047  20640232.3284   20640236.4304
       282.8594        220.4104
 98  6 30 15 25 30.0000000  0  8G 4G 8G 7G 5G 9G16G30G24
   2489701.21947   1940026.85647  21108982.9694   21108986.2034
     -2180.8444      -1699.3594
  -5777811.02146  -4370295.22046  21917195.0314   21917198.9104
       319.1414        248.6814
   9568202.61845   7438064.15044  23780573.5634   23780578.8594
     -3232.6414      -2518.9414
  -6864041.12346  -4295411.13146  21704470.3594   21704473.9574
      1349.8284       1051.8144
   2557015.58947   1996999.69446  21661233.4844   21661236.9414
     -2149.7504      -1675.1304
    623820.07043    499169.99642  24790006.4224   24790016.2464
     -1053.0004       -820.5194
  -2270974.25644  -1652417.38943  24343879.1644   24343883.5004
      2370.3284       1847.0094
  -5356694.57847  -4165354.43647  20639442.0004   20639445.8674
       270.9384        211.1204
 98  6 30 15 25 45.0000000  0  8G 4G 8G 7G 5G 9G16G30G24
   2522496.27147   1965581.43447  21115223.7114   21115226.6764
     -2192.0944      -1708.1254
  -5782503.19946  -4373951.45646  21916302.1804   21916306.0824
       306.2194        238.6124
   9616712.39045   7475863.97944  23789803.9534   23789810.4804
     -3235.5784      -2521.2304
  -6884241.86246  -4311151.95946  21700626.4694   21700630.1844
      1343.3914       1046.7984
   2589342.07647   2022189.14646  21667385.1094   21667388.2974
     -2160.7344      -1683.6894
    639698.27343    511542.62542  24793027.9224   24793036.1054
     -1064.3754       -829.3834
  -2306499.78244  -1680099.62843  24337118.2504   24337124.3444
      2366.1884       1843.7824
  -5360670.17347  -4168452.29947  20638685.3524   20638689.2424
       258.9694        201.7944
 98  6 30 15 26  0.0000000  0  8G 4G 8G 7G 5G 9G16G30G24
   2555458.71547   1991266.44747  21121496.1724   21121499.1254
     -2203.0944      -1716.6964
  -5787002.72246  -4377457.57946  21915445.7894   21915449.6334
       293.5164        228.7134
   9665266.57545   7513698.35044  23799043.3134   23799050.2424
     -3238.4374      -2523.4584
  -6904346.91846  -4326818.22546  21696800.5474   21696804.1214
      1337.1094       1041.9034
   2621835.56147   2047508.72246  21673568.0704   21673571.3984
     -2171.9224      -1692.4074
    655747.96643    524048.85742  24796081.4694   24796090.0394
     -1075.7034       -838.2104
  -2341964.66444  -1707734.58043  24330369.9224   24330374.3404
      2362.3444       1840.7874
  -5364468.29147  -4171411.86147  20637962.5704   20637966.4614
       247.2814        192.6874
 98  6 30 15 26 15.0000000  0  8G 4G 8G 7G 5G 9G16G30G24
   2588590.16147   2017083.15147  21127800.8284   21127803.7234
     -2214.4534      -1725.5484
  -5791309.25446  -4380813.31946  21914626.4924   21914630.0204
       280.6724        218.7054
   9713866.04345   7551568.01244  23808291.9924   23808297.6054
     -3241.5944      -2525.9174
  -6924353.05646  -4342407.40946  21692993.5554   21692997.1764
      1330.3284       1036.6194
   2654501.35647   2072962.57846  21679784.6024   21679788.0354
     -2183.5474      -1701.4654
    671970.84044    536690.11942  24799169.4224   24799176.8324
     -1087.3444       -847.2814
  -2377370.22244  -1735323.31743  24323632.6484   24323637.8284
      2358.4844       1837.7804
  -5368086.14147  -4174230.96247  20637274.2114   20637278.1724
       235.0634        183.1664
 98  6 30 15 26 30.0000000  0  8G 4G 8G 7G 5G 9G16G30G24
   2621892.38847   2043032.92947  21134137.9924   21134140.9694
     -2225.9064      -1734.4724
  -5795423.51446  -4384019.23246  21913843.3204   21913847.1524
       267.9224        208.7704
   9762513.69245   7589475.21944  23817549.8754   23817555.3244
     -3244.7814      -2528.4014
  -6944256.81146  -4357916.81746  21689205.9614   21689209.6294
      1323.5164       1031.3114
   2687340.46347   2098551.46946  21686033.6954   21686036.9884
     -2195.0314      -1710.4144
    688366.97243    549466.34743  24802289.4534   24802294.3404
     -1098.7974       -856.2054
  -2412722.46144  -1762870.44843  24316905.2894   24316909.3094
      2355.2034       1835.2234
  -5371521.21747  -4176907.63947  20636620.8054   20636624.8134
       222.8914        173.6814
 98  6 30 15 26 45.0000000  0  8G 4G 8G 7G 5G 9G16G30G24
   2655370.44547   2069119.71847  21140508.7114   21140511.9344
     -2237.7194      -1743.6774
  -5799345.08046  -4387074.99946  21913097.1414   21913100.9614
       255.0944        198.7744
   9811211.88245   7627421.83444  23826816.5314   23826822.8714
     -3248.2034      -2531.0674
  -6964057.31046  -4373345.77546  21685437.8134   21685441.4344
      1316.6724       1025.9784
   2720355.24547   2124277.26046  21692315.9064   21692319.4574
     -2206.8284      -1719.6064
    704937.35443    562378.35642  24805442.4304   24805449.1454
     -1110.4374       -865.2764
  -2448025.80445  -1790379.56643  24310187.5234   24310193.7344
      2352.0634       1832.7764
  -5374772.24847  -4179440.90047  20636001.8594   20636005.8324
       210.7664        164.2334
 98  6 30 15 27  0.0000000  0  8G 4G 8G 7G 5G 9G16G30G24
   2689027.28047   2095345.81547  21146913.3134   21146916.3594
     -2249.8594      -1753.1374
  -5803074.17146  -4389980.78646  21912387.8444   21912391.5354
       242.2194        188.7424
   9859961.60845   7665408.60644  23836093.2894   23836100.3134
     -3251.6724      -2533.7704
  -6983754.15846  -4388693.95046  21681689.8674   21681693.4304
      1309.6414       1020.4994
   2753547.31647   2150141.19046  21698632.6024   21698636.1524
     -2218.7344      -1728.8844
    721682.76543    575426.70742  24808628.9144   24808636.5594
     -1122.2504       -874.4814
  -2483281.82045  -1817851.76143  24303477.4924   24303482.6374
      2348.8284       1830.2564
  -5377843.25647  -4181833.89447  20635417.3524   20635421.2544
       198.7974        154.9074
 98  6 30 15 27 15.0000000  0  8G 4G 8G 7G 5G 9G16G30G24
   2722865.33447   2121713.11847  21153352.3524   21153355.5164
     -2261.8594      -1762.4884
  -5806611.95146  -4392737.49246  21911714.4534   21911718.1454
       229.4844        178.8194
   9908760.07745   7703433.32644  23845379.3364   23845385.2664
     -3254.8284      -2536.2304
  -7003348.28746  -4403962.09446  21677961.2894   21677964.6294
      1302.9534       1015.2884
   2786917.17147   2176143.65646  21704982.3284   21704985.6454
     -2230.5624      -1738.1014
    738604.92544    588612.84942  24811849.1024   24811856.8984
     -1134.0474       -883.6734
  -2518491.84445  -1845288.08743  24296777.2734   24296783.1214
      2345.8594       1827.9424
  -5380736.30147  -4184088.20747  20634866.9614   20634870.7704
       187.0004        145.7144
 98  6 30 15 27 30.0010000  0  8G 4G 8G 7G 5G 9G16G30G24
   2756887.31147   2148223.74047  21159826.5994   21159829.6574
     -2274.0164      -1771.9604
  -5809955.92346  -4395343.18746  21911078.2864   21911082.2824
       216.3914        168.6164
   9957613.09445   7741500.58344  23854675.6224   23854681.2594
     -3258.4064      -2539.0184
  -7022840.98046  -4419151.19846  21674251.9584   21674255.3804
      1295.9844       1009.8584
   2820468.30747   2202287.38446  21711366.7634   21711370.2784
     -2242.5314      -1747.4274
    755707.02844    601939.15742  24815102.8964   24815107.3964
     -1146.0004       -892.9874
  -2553656.90345  -1872689.40744  24290085.7864   24290090.7784
      2342.6094       1825.4104
  -5383451.30547  -4186203.79147  20634350.6144   20634354.4234
       175.0004        136.3644
 98  6 30 15 27 45.0010000  0  8G 4G 8G 7G 5G 9G16G30G24
   2791088.51547   2174874.01747  21166335.1144   21166338.2084
     -2286.1564      -1781.4204
  -5813103.63846  -4397795.94446  21910478.9354   21910483.0364
       203.3284        158.4384
  10006515.71245   7779606.46044  23863981.3254   23863987.9354
     -3261.9374      -2541.7694
  -7042228.79346  -4434258.57846  21670562.5994   21670566.1854
      1289.0474       1004.4524
   2854194.93347   2228567.84846  21717784.8724   21717788.4464
     -2254.4064      -1756.6804
    772985.56844    615402.98442  24818391.9814   24818399.4154
     -1157.7974       -902.1794
  -2588774.83145  -1900053.99043  24283403.5834   24283407.7904
      2339.7974       1823.2184
  -5385986.84847  -4188179.53247  20633867.7864   20633871.6424
       163.1094        127.0984
 98  6 30 15 28  0.0010000  0  8G 4G 8G 7G 5G 9G16G30G24
   2825471.10247   2201665.63647  21172877.8104   21172881.0444
     -2298.1414      -1790.7594
  -5816055.64146  -4400096.20846  21909917.3024   21909921.7084
       190.2974        148.2834
  10055470.87145   7817753.29444  23873297.7784   23873303.9194
     -3265.4224      -2544.4854
  -7061513.43146  -4449285.55746  21666892.7164   21666895.9154
      1282.2814        999.1804
   2888100.90947   2254988.06946  21724237.4034   21724240.9544
     -2266.2974      -1765.9464
    790441.64144    629005.12442  24821713.1224   24821720.9664
     -1169.6874       -911.4454
  -2623851.64545  -1927386.54243  24276727.7634   24276733.7394
      2337.1884       1821.1854
  -5388345.61647  -4190017.52847  20633419.2004   20633423.0674
       151.4534        118.0154
 98  6 30 15 28 15.0010000  0  8G 4G 8G 7G 5G 9G16G30G24
   2860035.58147   2228598.98447  21179455.2864   21179458.2864
     -2310.4374      -1800.3414
  -5818809.59646  -4402242.14646  21909393.2244   21909397.3844
       176.9694        137.8984
  10104481.07445   7855943.01544  23882623.6144   23882631.7394
     -3269.2194      -2547.4434
  -7080694.23046  -4464231.62246  21663242.8414   21663246.3104
      1275.2034        993.6654
   2922186.40347   2281548.17646  21730723.5674   21730726.9664
     -2278.3284      -1775.3214
    808077.20844    642747.13542  24825069.0914   24825075.3494
     -1181.6254       -920.7474
  -2658888.33045  -1954687.83543  24270060.7164   24270066.4934
      2334.4384       1819.0424
  -5390527.28547  -4191717.52447  20633003.9974   20633007.8174
       139.4844        108.6894
 98  6 30 15 28 30.0010000  0  8G 4G 8G 7G 5G 9G16G30G24
   2894782.68247   2255674.64247  21186067.5444   21186070.7554
     -2322.5314      -1809.7654
  -5821366.36346  -4404234.43546  21908906.9504   21908911.1224
       163.8594        127.6834
  10153546.95445   7894176.13744  23891960.6144   23891965.9814
     -3273.0004      -2550.3904
  -7099769.33946  -4479095.33846  21659612.9114   21659616.4744
      1268.1254        988.1494
   2956448.99447   2308246.28046  21737243.2864   21737246.7674
     -2290.0164      -1784.4284
    825889.56843    656626.88942  24828459.1144   24828465.6884
     -1193.3914       -929.9154
  -2693885.39545  -1981958.26544  24263401.6534   24263407.5954
      2331.7814       1816.9724
  -5392531.90447  -4193279.55847  20632622.2164   20632626.1064
       127.8134         99.5944
 98  6 30 15 28 45.0010000  0  8G 4G 8G 7G 5G 9G16G30G24
   2929710.00047   2282890.72147  21192713.7084   21192716.7784
     -2334.4844      -1819.0794
  -5823725.93646  -4406073.05946  21908457.7084   21908461.6224
       150.6884        117.4194
  10202669.38545   7932453.30844  23901308.7474   23901314.7124
     -3276.7194      -2553.2874
  -7118739.94546  -4493877.62146  21656003.0524   21656006.5444
      1261.2664        982.8044
   2990885.17247   2335079.64646  21743796.6064   21743800.0284
     -2301.5314      -1793.4014
    843877.75243    670643.67742  24831881.6224   24831887.8454
     -1205.0784       -939.0224
  -2728840.99045  -2009196.33244  24256749.5364   24256753.8844
      2328.8284       1814.6714
  -5394364.38747  -4194707.46447  20632273.5674   20632277.2714
       116.4064         90.7064
 98  6 30 15 29  0.0010000  0  8G 4G 8G 7G 5G 9G16G30G24
   2964814.69647   2310245.02347  21199393.9894   21199397.1534
     -2346.1564      -1828.1744
  -5825889.10846  -4407758.65246  21908046.0524   21908049.6614
       137.6724        107.2774
  10251847.18345   7970773.62043  23910667.1694   23910672.2204
     -3280.3124      -2556.0884
  -7137608.24246  -4508580.18146  21652412.2474   21652415.7864
      1254.4534        977.4964
   3025492.33847   2362046.24546  21750381.8174   21750385.2284
     -2312.7344      -1802.1314
    862040.20944    684796.24842  24835338.3494   24835343.6814
     -1216.6094       -948.0074
  -2763750.04545  -2036398.18743  24250106.5674   24250113.1884
      2325.6724       1812.2124
  -5396026.38947  -4196002.52247  20631957.2714   20631960.9154
       105.1094         81.9034
 98  6 30 15 29 15.0010000  0  8G 4G 8G 7G 5G 9G16G30G24
   3000094.75047   2337735.96147  21206107.6144   21206110.7674
     -2357.7814      -1837.2324
  -5827855.10446  -4409290.60046  21907671.6774   21907675.4974
       124.4694         96.9894
  10301078.65045   8009135.78944  23920034.6224   23920041.6224
     -3283.8124      -2558.8154
  -7156372.50946  -4523201.68346  21648841.7864   21648845.3724
      1247.5314        972.1024
   3060266.75147   2389143.16746  21756998.9814   21757002.4274
     -2323.8124      -1810.7634
    880377.37944    699084.95942  24838828.5524   24838835.1614
     -1228.3284       -957.1394
  -2798609.86545  -2063561.65444  24243472.8414   24243477.4464
      2322.3594       1809.6314
  -5397514.83847  -4197162.34547  20631674.1854   20631677.9934
        93.3134         72.7114
 98  6 30 15 29 30.0010000  0  8G 4G 8G 7G 5G 9G16G30G24
   3035545.51747   2365359.93247  21212853.5754   21212856.5874
     -2369.0004      -1845.9744
  -5829624.11346  -4410669.04746  21907335.2394   21907339.1424
       111.3914         86.7984
  10350361.61245   8047538.00143  23929413.6694   23929420.7394
     -3287.2664      -2561.5064
  -7175034.73546  -4537743.67246  21645290.4114   21645294.1034
      1240.6884        966.7694
   3095206.15647   2416368.65746  21763647.8964   21763651.3994
     -2334.7664      -1819.2984
    898888.00444    713508.85342  24842350.4194   24842355.0244
     -1239.7194       -966.0154
  -2833421.09545  -2090687.27044  24236849.0834   24236852.1884
      2319.0784       1807.0744
  -5398825.42947  -4198183.58247  20631424.7474   20631428.5914
        81.4534         63.4704
 98  6 30 15 29 45.0010000  0  8G 4G 8G 7G 5G 9G16G30G24
   3071164.60847   2393115.05847  21219631.8804   21219634.9974
     -2380.2194      -1854.7164
  -5831197.32746  -4411894.93046  21907036.1384   21907039.9464
        98.3754         76.6564
  10399696.81945   8085981.02243  23938802.1774   23938809.3644
     -3290.6564      -2564.1484
  -7193592.72246  -4552204.43946  21641758.9424   21641762.4934
      1233.7664        961.3764
   3130308.52647   2443721.12846  21770327.9194   21770331.2824
     -2345.5944      -1827.7354
    917567.92844    728064.63242  24845904.8414   24845912.6964
     -1250.8914       -974.7204
  -2868183.45445  -2117774.77744  24230233.2634   24230238.5714
      2315.9384       1804.6274
  -5399958.80147  -4199066.72447  20631209.0134   20631212.7984
        69.6564         54.2784
 98  6 30 15 30  0.0010000  0  8G 4G 8G 7G 5G 9G16G30G24
   3106953.47347   2421002.47547  21226442.0604   21226445.1304
     -2391.5944      -1863.5804
  -5832575.78946  -4412969.05646  21906773.5284   21906777.4314
        85.4844         66.6114
  10449080.97845   8124462.13944  23948199.2554   23948204.5994
     -3293.8444      -2566.6314
  -7212047.20346  -4566584.54746  21638247.0284   21638250.6144
      1226.8914        956.0194
   3165575.39947   2471201.79046  21777039.0674   21777042.3494
     -2356.6094      -1836.3194
    936415.44844    742751.03542  24849490.9274   24849497.7594
     -1262.0314       -983.4014
  -2902896.96545  -2144824.21344  24223627.9504   24223632.7784
      2312.5784       1802.0094
  -5400915.14247  -4199811.92447  20631027.1224   20631031.0134
        57.8914         45.1104
 98  6 30 15 30 15.0010000  0  8G 4G 8G 7G 5G 9G16G30G24
   3142912.69347   2449022.63547  21233285.1144   21233288.1264
     -2402.9374      -1872.4194
  -5833761.01946  -4413892.60946  21906547.9274   21906551.7944
        72.6254         56.5914
  10498512.56045   8162980.18443  23957606.6304   23957613.3924
     -3296.9694      -2569.0674
  -7230398.87546  -4580884.54746  21634754.9814   21634758.4624
      1220.0784        950.7104
   3201007.23247   2498810.98646  21783781.4194   21783784.8064
     -2367.5164      -1844.8174
    955429.77543    757567.37242  24853109.3174   24853116.8214
     -1273.1414       -992.0584
  -2937559.92745  -2171834.26843  24217031.5994   24217037.5174
      2309.2664       1799.4284
  -5401694.57447  -4200419.26547  20630878.9814   20630882.9194
        46.0634         35.8934
 98  6 30 15 30 30.0010000  0  8G 4G 8G 7G 5G 9G16G30G24
   3179042.36147   2477175.61147  21240160.3884   21240163.5054
     -2414.2344      -1881.2224
  -5834754.75846  -4414666.95546  21906358.7554   21906362.8804
        59.9384         46.7054
  10547991.29445   8201535.00943  23967020.8564   23967029.1464
     -3300.1254      -2571.5264
  -7248648.26146  -4595104.84646  21631282.2244   21631285.7284
      1213.2034        945.3534
   3236603.14647   2526548.04246  21790555.2554   21790558.6654
     -2378.5004      -1853.3774
    974611.12544    772513.91742  24856760.2714   24856768.8764
     -1284.3444      -1000.7874
  -2972173.06445  -2198805.51443  24210444.5214   24210450.0404
      2305.8754       1796.7864
  -5402295.69147  -4200887.66147  20630764.5364   20630768.4744
        34.1724         26.6274
 98  6 30 15 30 45.0010000  0  8G 4G 8G 7G 5G 9G16G30G24
   3215338.51547   2505458.32147  21247067.1694   21247070.2164
     -2425.3124      -1889.8544
  -5835558.25346  -4415293.05646  21906206.1854   21906210.2744
        47.1414         36.7334
  10597515.47645   8240125.23544  23976445.3564   23976451.1924
     -3303.1564      -2573.8884
  -7266795.50446  -4609245.54546  21627828.7864   21627832.2674
      1206.4694        940.1064
   3272360.41147   2554410.82246  21797359.4274   21797362.8374
     -2389.1564      -1861.6804
    993960.89644    787591.67042  24860441.9194   24860447.7674
     -1295.5944      -1009.5544
  -3006736.37644  -2225737.94443  24203866.7164   24203872.0014
      2302.5784       1794.2174
  -5402720.03447  -4201218.31647  20630683.6534   20630687.4504
        22.3444         17.4114
 98  6 30 15 31  0.0010000  0  8G 4G 8G 7G 5G 9G16G30G24
   3251800.16147   2533869.98447  21254005.4504   21254008.4854
     -2436.3284      -1898.4374
  -5836171.30946  -4415770.75646  21906089.2784   21906093.0634
        34.5314         26.9074
  10647083.86545   8278749.92643  23985878.5914   23985884.6734
     -3306.0784      -2576.1654
  -7284844.62047  -4623309.78746  21624394.3254   21624397.6304
      1199.9694        935.0414
   3308277.05447   2582397.79446  21804194.1614   21804197.7944
     -2399.7974      -1869.9724
   1013477.40544    802799.35042  24864155.5834   24864162.1814
     -1306.7664      -1018.2594
  -3041251.06744  -2252632.47444  24197299.7004   24197305.2204
      2299.3444       1791.6964
  -5402966.36847  -4201410.25747  20630636.7474   20630640.4854
        10.3594          8.0724
 98  6 30 15 31 15.0010000  0  8G 4G 8G 7G 5G 9G16G30G24
   3288429.06947   2562411.97847  21260975.8254   21260978.9074
     -2447.4694      -1907.1194
  -5836591.97846  -4416098.55346  21906008.9354   21906012.9784
        21.6254         16.8514
  10696699.28945   8317411.22944  23995319.6854   23995326.5054
     -3309.2504      -2578.6364
  -7302792.46447  -4637295.11746  21620978.7634   21620982.2084
      1193.1094        929.6964
   3344355.76247   2610511.05346  21811059.8024   21811063.3174
     -2410.6724      -1878.4464
   1033165.39144    818140.66942  24867902.3024   24867909.3134
     -1318.2344      -1027.1964
  -3075715.53344  -2279487.87343  24190741.6384   24190746.4784
      2296.0314       1789.1154
  -5403028.94747  -4201459.01547  20630624.8564   20630628.5484
        -2.0164         -1.5714
 98  6 30 15 31 30.0010000  0  8G 4G 8G 7G 5G 9G16G30G24
   3325222.95147   2591082.52647  21267977.6064   21267980.7824
     -2458.5164      -1915.7264
  -5836821.35046  -4416277.29246  21905965.5284   21905969.2904
         8.8914          6.9284
  10746360.13645   8356107.91943  24004770.4744   24004776.6264
     -3312.2974      -2581.0114
  -7320639.32247  -4651201.75246  21617582.7784   21617586.0484
      1186.3444        924.4244
   3380596.79947   2638750.79746  21817956.0604   21817959.5524
     -2421.5784      -1886.9444
   1053023.33144    833614.33742  24871680.9504   24871686.7164
     -1329.5624      -1036.0234
  -3110132.53344  -2306306.26443  24184191.4664   24184197.7244
      2292.7504       1786.5584
  -5402907.32147  -4201364.23447  20630648.1064   20630651.6814
       -14.2344        -11.0924
 98  6 30 15 31 45.0010000  0  8G 4G 8G 7G 5G 9G16G30G24
   3362185.82047   2619884.75247  21275011.2474   21275014.4114
     -2469.9224      -1924.6144
  -5836858.50846  -4416306.24546  21905958.5604   21905962.4854
        -3.9374         -3.0684
  10796067.95644   8394841.28443  24014228.3724   24014235.7594
     -3315.4374      -2583.4584
  -7338381.60846  -4665026.90346  21614206.3804   21614209.7314
      1179.2664        918.9084
   3417003.30947   2667119.48246  21824884.2164   21824887.8844
     -2432.6414      -1895.5644
   1073053.21344    849222.10142  24875492.4504   24875496.9854
     -1341.1254      -1045.0324
  -3144498.76644  -2333085.13044  24177651.8804   24177655.3844
      2289.4384       1783.9774
  -5402603.38247  -4201127.39547  20630705.9584   20630709.6494
       -26.2504        -20.4554
 98  6 30 15 32  0.0010000  0  8G 4G 8G 7G 5G 9G16G30G24
   3399321.55947   2648821.68147  21282078.0054   21282081.1464
     -2481.4374      -1933.5884
  -5836701.87546  -4416184.19346  21905988.2714   21905992.1854
       -16.9844        -13.2354
  10845822.18345   8433610.72943  24023697.9194   24023703.2284
     -3318.4224      -2585.7834
  -7356017.23646  -4678768.94546  21610850.4814   21610853.8924
      1172.1884        913.3934
   3453577.10647   2695618.52246  21831843.9114   21831847.5324
     -2443.8444      -1904.2944
   1093258.36944    864966.36942  24879337.9664   24879345.4814
     -1352.8914      -1054.2004
  -3178815.45144  -2359825.35643  24171121.7084   24171126.1854
      2286.1094       1781.3844
  -5402120.14447  -4200750.84147  20630797.8174   20630801.4744
       -38.2194        -29.7814
 98  6 30 15 32 15.0010000  0  8G 4G 8G 7G 5G 9G16G30G24
   3436627.99447   2677891.62247  21289177.1384   21289180.1614
     -2492.7344      -1942.3904
  -5836350.48146  -4415910.38446  21906055.3804   21906059.3764
       -29.9534        -23.3404
  10895621.80845   8472415.63543  24033173.4584   24033180.8684
     -3321.5784      -2588.2434
  -7373545.93446  -4692427.66446  21607514.9744   21607518.4544
      1164.9384        907.7444
   3490317.02047   2724247.00746  21838835.3104   21838838.9544
     -2454.7974      -1912.8294
   1113640.22744    880848.34042  24883216.5994   24883223.8214
     -1364.7194      -1063.4174
  -3213081.55944  -2386526.19844  24164600.0834   24164605.9544
      2282.7504       1778.7664
  -5401457.40247  -4200234.41147  20630923.9974   20630927.5834
       -50.1724        -39.0954
 98  6 30 15 32 30.0010000  0  8G 4G 8G 7G 5G 9G16G30G24
   3474100.84547   2707091.23747  21296308.0054   21296311.2394
     -2503.7504      -1950.9744
  -5835803.17146  -4415483.90946  21906159.4424   21906163.3684
       -43.1564        -33.6284
  10945469.27345   8511257.75943  24042658.8564   24042665.1494
     -3324.8594      -2590.8004
  -7390966.22146  -4706001.90446  21604199.9034   21604203.5484
      1157.6724        902.0824
   3527218.94147   2753001.73146  21845857.4974   21845861.2004
     -2465.5164      -1921.1814
   1134200.60944    896869.46042  24887128.6694   24887136.1494
     -1376.7974      -1072.8294
  -3247298.24144  -2413188.48543  24158090.2554   24158095.7394
      2279.3754       1776.1364
  -5400616.00247  -4199578.77247  20631084.0754   20631087.9894
       -62.1414        -48.4214
 98  6 30 15 32 45.0010000  0  8G 4G 8G 7G 5G 9G16G30G24
   3511737.65547   2736418.61447  21303470.1064   21303473.3294
     -2514.6254      -1959.4484
  -5835057.75346  -4414903.06046  21906301.1304   21906305.1854
       -56.4694        -44.0024
  10995365.05545   8550137.51243  24052154.6924   24052161.2674
     -3328.0314      -2593.2714
  -7408276.94146  -4719490.77446  21600905.9424   21600909.5174
      1150.2974        896.3354
   3564280.33847   2781880.71746  21852909.8024   21852913.4934
     -2476.0944      -1929.4244
   1154941.01244    913030.81242  24891075.6694   24891081.8804
     -1388.6874      -1082.0944
  -3281464.55945  -2439811.54843  24151588.6064   24151593.8564
      2275.9534       1773.4704
  -5399596.21847  -4198784.13047  20631278.2864   20631281.8844
       -73.9694        -57.6384
 98  6 30 15 33  0.0010000  0  8G 4G 8G 7G 5G 9G16G30G24
   3549540.51247   2765875.37647  21310663.5674   21310666.8724
     -2525.7664      -1968.1294
  -5834108.50046  -4414163.38246  21906482.0364   21906486.0444
       -70.1254        -54.6434
  11045310.28145   8589055.86343  24061658.2554   24061664.4894
     -3331.3444      -2595.8524
  -7425475.14446  -4732891.96146  21597632.9034   21597636.5134
      1142.8134        890.5034
   3601501.85047   2810884.46946  21859993.2164   21859996.8374
     -2486.8754      -1937.8254
   1175860.46943    929331.70842  24895056.1534   24895063.5174
     -1400.5944      -1091.3724
  -3315576.67245  -2466392.40544  24145096.9034   24145103.0794
      2272.2504       1770.5844
  -5398396.72747  -4197849.45347  20631506.3494   20631510.2514
       -85.9534        -66.9764
 98  6 30 15 33 15.0010000  0  8G 4G 8G 7G 5G 9G16G30G24
   3587507.80447   2795460.27147  21317888.6464   21317891.8334
     -2536.5624      -1976.5424
  -5832955.39046  -4413264.86046  21906701.2474   21906705.2314
       -83.6724        -65.1994
  11095302.79045   8628011.03343  24071172.6144   24071179.0714
     -3334.2974      -2598.1534
  -7442561.46846  -4746205.97346  21594381.4814   21594385.0214
      1135.2814        884.6354
   3638885.99347   2840014.95046  21867107.4034   21867110.8604
     -2497.6564      -1946.2264
   1196958.07044    945771.42342  24899070.7394   24899076.1654
     -1412.4694      -1100.6254
  -3349632.96445  -2492929.73844  24138616.1614   24138621.5174
      2268.5474       1767.6994
  -5397019.65247  -4196776.40547  20631768.3964   20631771.9704
       -97.6414        -76.0844
 98  6 30 15 33 30.0010000  0  8G 4G 8G 7G 5G 9G16G30G24
   3625637.78847   2825171.93847  21325144.6384   21325147.7904
     -2547.5164      -1985.0774
  -5831598.52546  -4412207.57046  21906959.6924   21906963.4664
       -97.2504        -75.7794
  11145338.11444   8666999.53644  24080692.0754   24080699.6614
     -3337.0944      -2600.3334
  -7459534.43846  -4759431.65346  21591151.7244   21591155.3804
      1127.7664        878.7784
   3676431.35447   2869271.05246  21874252.0674   21874255.6424
     -2508.4374      -1954.6274
   1218231.63443    962348.20642  24903118.8414   24903124.0794
     -1424.0624      -1109.6594
  -3383633.95445  -2519423.98144  24132145.6614   24132151.0404
      2264.8754       1764.8384
  -5395468.42947  -4195567.65447  20632063.6854   20632067.3764
      -109.2194        -85.1064
 98  6 30 15 33 45.0010000  0  8G 4G 8G 7G 5G 9G16G30G24
   3663933.83547   2855013.00346  21332431.8964   21332434.8604
     -2558.5164      -1993.6494
  -5830036.33246  -4410990.27746  21907257.0284   21907260.9784
      -110.9064        -86.4204
  11195414.53445   8706020.03543  24090223.4114   24090229.8804
     -3339.6724      -2602.3424
  -7476394.76646  -4772569.57046  21587943.0994   21587946.8134
      1120.3594        873.0074
   3714139.79347   2898654.23046  21881427.6384   21881430.9544
     -2519.2194      -1963.0284
   1239680.86743    979061.89842  24907199.6534   24907206.2864
     -1435.7664      -1118.7784
  -3417577.14845  -2545873.20043  24125687.3564   24125693.4624
      2261.0004       1761.8184
  -5393744.28747  -4194224.16147  20632391.7474   20632395.4624
      -120.5314        -93.9204
 98  6 30 15 34  0.0010000  0  8G 4G 8G 7G 5G 9G16G30G24
   3702393.12047   2884981.26846  21339750.7314   21339753.8134
     -2569.4224      -2002.1474
  -5828269.86046  -4409613.80046  21907592.8884   21907596.8604
      -124.7034        -97.1714
  11245529.83545   8745070.92743  24099758.5524   24099763.4154
     -3342.4224      -2604.4854
  -7493145.27646  -4785621.89746  21584755.7314   21584759.4354
      1112.9844        867.2614
   3752008.49647   2928162.28846  21888633.8104   21888637.1144
     -2530.0164      -1971.4414
   1261305.28044    995912.10942  24911316.1224   24911321.8994
     -1447.5164      -1127.9344
  -3451464.40645  -2572278.79543  24119238.9034   24119243.9424
      2257.2504       1758.8964
  -5391851.24847  -4192749.06147  20632751.8884   20632755.6614
      -131.9534       -102.8214
 98  6 30 15 34 15.0010000  0  8G 4G 8G 7G 5G 9G16G30G24
   3741013.85547   2915075.33846  21347099.8724   21347103.0604
     -2579.8594      -2010.2804
  -5826295.56946  -4408075.39446  21907968.4894   21907972.3454
      -138.3594       -107.8124
  11295687.66145   8784154.90643  24109304.0444   24109309.1184
     -3345.1724      -2606.6274
  -7509784.82746  -4798587.77946  21581589.3724   21581593.2634
      1105.7504        861.6234
   3790038.35547   2957795.92346  21895870.7714   21895873.9704
     -2540.4844      -1979.5984
   1283104.81644   1012898.79742  24915463.9814   24915472.6924
     -1458.9694      -1136.8594
  -3485293.32845  -2598638.96543  24112801.3174   24112805.9584
      2253.3594       1755.8644
  -5389784.63347  -4191138.70547  20633145.3104   20633149.0604
      -143.5624       -111.8674
 98  6 30 15 34 30.0010000  0  8G 4G 8G 7G 5G 9G16G30G24
   3779790.38047   2945290.79946  21354478.9744   21354482.0914
     -2590.2974      -2018.4134
  -5824119.32446  -4406379.62146  21908382.7164   21908386.5014
      -151.7664       -118.2594
  11345887.03444   8823271.28943  24118855.7864   24118862.8924
     -3348.0004      -2608.8314
  -7526317.11046  -4811470.06946  21578443.3334   21578447.0954
      1098.7034        856.1324
   3828224.51847   2987551.34946  21903137.0524   21903140.4974
     -2550.9694      -1987.7684
   1305076.38444   1030019.49842  24919645.4974   24919652.5914
     -1470.5004      -1145.8444
  -3519064.84045  -2624954.43444  24106374.2314   24106379.3174
      2249.6414       1752.9674
  -5387543.32247  -4189392.22447  20633571.6384   20633575.3294
      -155.1724       -120.9134
 98  6 30 15 34 45.0010000  0  8G 4G 8G 7G 5G 9G16G30G24
   3818725.45847   2975629.81446  21361888.0834   21361891.0954
     -2601.0004      -2026.7534
  -5821742.35346  -4404527.43246  21908835.0674   21908838.9934
      -165.0474       -128.6084
  11396127.67245   8862419.73544  24128417.5834   24128423.2554
     -3350.6874      -2610.9254
  -7542745.03246  -4824271.03846  21575317.3414   21575321.1384
      1091.8134        850.7634
   3866569.14147   3017430.24746  21910434.0134   21910437.4464
     -2561.5944      -1996.0474
   1327220.48044   1047274.67242  24923858.6774   24923865.1344
     -1481.9694      -1154.7814
  -3552779.67945  -2651225.68844  24099959.0444   24099962.5954
      2245.8134       1749.9844
  -5385126.36847  -4187508.87947  20634031.5754   20634035.3254
      -167.0164       -130.1424
 98  6 30 15 35  0.0010000  0  8G 4G 8G 7G 5G 9G16G30G24
   3857822.11847   3006094.73546  21369327.9194   21369330.9544
     -2611.7504      -2035.1304
  -5819166.55746  -4402520.31846  21909325.7394   21909329.6064
      -178.1874       -138.8474
  11446409.12345   8901600.07543  24137985.8334   24137990.9664
     -3353.3914      -2613.0324
  -7559069.19246  -4836991.15746  21572210.9504   21572214.7824
      1084.8914        845.3694
   3905075.11347   3047434.88446  21917761.4424   21917764.7004
     -2572.4694      -2004.5214
   1349536.38244   1064663.65342  24928105.7244   24928110.9384
     -1493.3444      -1163.6444
  -3586437.30245  -2677452.38744  24093553.4974   24093558.1734
      2241.9534       1746.9764
  -5382532.91947  -4185488.00347  20634524.9584   20634528.6494
      -178.7344       -139.2744
 98  6 30 15 35 15.0010000  0  8G 4G 8G 7G 5G 9G16G30G24
   3897076.95647   3036682.91046  21376797.9274   21376801.1264
     -2622.2034      -2043.2754
  -5816397.50846                  21909852.2784
      -190.9844
  11496728.71445   8940810.11443  24147560.3884   24147564.9114
     -3355.8914      -2614.9804
  -7575292.14246  -4849632.40946  21569123.9504   21569127.6064
      1078.2034        840.1584
   3943743.76447   3077566.26746  21925120.1534   21925123.5404
     -2583.4064      -2013.0444
   1372021.99144   1082184.90242  24932384.5054   24932391.2084
     -1504.7814      -1172.5574
  -3620038.93445  -2703635.45644  24087160.1534   24087165.1574
      2238.2814       1744.1154
  -5379764.89747  -4183331.09346  20635051.9274   20635055.8994
      -190.3444       -148.3204
 98  6 30 15 35 30.0010000  0  8G 4G 8G 7G 5G 9G16G30G24
   3936487.77347   3067392.62746  21384297.3884   21384300.5524
     -2632.7034      -2051.4574
  -5813439.50246                  21910414.9974
      -203.4534
  11547085.28345   8980048.91743  24157143.6224   24157148.4384
     -3358.3914      -2616.9284
  -7591416.05646  -4862196.49646  21566055.3964   21566058.9234
      1071.5634        834.9844
   3982576.59047   3107825.58946  21932509.6304   21932513.0404
     -2594.3594      -2021.5794
   1394678.49143   1099839.28842  24936695.2554   24936702.5014
     -1516.1254      -1181.3964
  -3653588.11645  -2729777.64244  24080775.6064   24080780.8104
      2234.8444       1741.4374
  -5376822.18947  -4181038.06447  20635612.0444   20635615.9234
      -202.1094       -157.4884
 98  6 30 15 35 45.0010000  0  8G 4G 8G 7G 5G 9G16G30G24
   3976057.72547   3098226.34246  21391827.3254   21391830.5714
     -2643.2344      -2059.6634
  -5810293.58246       167.67356  21911013.9354   21911017.8604
      -215.9534       -168.2754
  11597481.54145   9019318.74843  24166733.1384   24166738.7744
     -3361.0784      -2619.0224
  -7607439.52846  -4874682.30146  21563006.5914   21563010.1424
      1064.9224        829.8094
   4021573.99447   3138213.14846  21939930.5054   21939933.9034
     -2605.2814      -2030.0894
   1417506.17544   1117627.11342  24941040.0604   24941049.2394
     -1527.5784      -1190.3214
  -3687084.92145  -2755879.00244  24074401.5134   24074406.8454
      2231.4384       1738.7824
  -5373701.08547  -4178606.03846  20636205.7864   20636209.3374
      -214.0314       -166.7784
 98  6 30 15 36  0.0010000  0  8G 4G 8G 7G 5G 9G16G30G24
   4015783.78947   3129181.71046  21399386.8804   21399390.1494
     -2653.5314      -2067.6874
  -5806960.88846      2764.57846  21911648.0914   21911652.1694
      -228.3444       -177.9304
  11647917.88045   9058619.70043  24176332.1144   24176337.9274
     -3363.7814      -2621.1284
  -7623363.14146  -4887090.31146  21559976.0364   21559979.7634
      1058.2344        824.5984
   4060734.49147   3168727.80246  21947382.7244   21947386.0524
     -2616.0474      -2038.4784
   1440506.16344   1135549.21242  24945416.6464   24945422.6104
     -1539.0314      -1199.2454
  -3720531.78245  -2781941.47744  24068036.2554   24068041.8564
      2228.2344       1736.2874
  -5370401.59747  -4176035.00647  20636833.7314   20636837.5174
      -225.9694       -176.0804
 98  6 30 15 36 15.0010000  0  8G 4G 8G 7G 5G 9G16G30G24
   4055663.27047   3160256.61546  21406975.8174   21406979.1344
     -2663.7814      -2075.6744
  -5803445.71446      5503.64746  21912317.0054   21912321.0834
      -240.4224       -187.3424
  11698394.60244   9097952.23542  24185935.4504   24185942.4384
     -3366.4374      -2623.1984
  -7639187.31447  -4899420.82546  21556964.9114   21556968.5674
      1051.6254        819.4484
   4100054.81447   3199366.99146  21954864.9744   21954868.3844
     -2626.7344      -2046.8064
   1463675.02144   1153602.86042  24949825.6064   24949831.8764
     -1550.1414      -1207.9024
  -3753933.95745  -2807969.10944  24061679.8964   24061684.7354
      2225.2974       1733.9984
  -5366922.35847  -4173323.89946  20637495.5284   20637499.1144
      -237.9374       -185.4064
 98  6 30 15 36 30.0010000  0  8G 4G 8G 7G 5G 9G16G30G24
   4095696.78947   3191451.55646  21414593.8254   21414597.1184
     -2674.0314      -2083.6614
  -5799750.74946      8382.84846  21913020.0994   21913023.9544
      -252.1874       -196.5104
  11748910.66845   9137315.33243  24195550.2244   24195556.7044
     -3369.0004      -2625.1954
  -7654913.86847  -4911675.27746  21553972.2084   21553975.7244
      1045.3134        814.5294
   4139534.98847   3230130.73946  21962377.8174   21962381.3564
     -2637.2814      -2055.0244
   1487010.40944   1171786.21442  24954265.8644   24954270.1424
     -1561.2344      -1216.5464
  -3787291.40745  -2833961.92544  24055332.3174   24055337.2634
      2222.4384       1731.7694
  -5363264.46247  -4170473.58846  20638191.8334   20638195.5834
      -249.7034       -194.5744
 98  6 30 15 36 45.0010000  0  8G 4G 8G 7G 5G 9G16G30G24
   4135885.44347   3222767.38046  21422241.5214   21422244.8134
     -2684.5314      -2091.8434
  -5795879.01646     11399.78146  21913757.1384   21913761.1464
      -264.1414       -205.8244
  11799463.75745   9176707.33043  24205169.1384   24205174.7284
     -3371.4224      -2627.0824
  -7670546.58347  -4923856.60646  21550997.2634   21551000.6384
      1038.9694        809.5864
   4179173.72947   3261018.05046  21969920.7244   21969924.3804
     -2647.8914      -2063.2914
   1510511.59844   1190098.86142  24958738.2164   24958744.3564
     -1572.2344      -1225.1184
  -3820607.92045  -2859922.78244  24048992.6064   24048997.0714
      2219.7344       1729.6634
  -5359433.37447  -4167488.32147  20638920.6694   20638924.5244
      -261.1564       -203.4984
 98  6 30 15 37  0.0010000  0  8G 4G 8G 7G 5G 9G16G30G24
   4176231.85147   3254206.12646  21429919.2944   21429922.5054
     -2694.9844      -2099.9884
  -5791827.10946     14557.09846  21914527.8414   21914531.8604
      -276.1414       -215.1754
  11850052.95445   9216127.42343  24214796.6064   24214801.9504
     -3373.8594      -2628.9814
  -7686081.03647  -4935961.37046  21548041.2944   21548044.7864
      1032.2504        804.3514
   4218970.48247   3292028.48646  21977494.1774   21977497.7864
     -2658.3594      -2071.4494
   1534176.97744   1208539.44642  24963242.1144   24963249.4074
     -1583.1254      -1233.6044
  -3853883.64745  -2885851.89244  24042660.5214   24042665.3254
      2217.0004       1727.5324
  -5355429.59547  -4164368.48546  20639682.5444   20639686.4354
      -272.5784       -212.3994
 98  6 30 15 37 15.0010000  0  8G 4G 8G 7G 5G 9G16G30G24
   4216735.20547   3285767.16746  21437626.7634   21437630.1144
     -2705.4844      -2108.1704
  -5787593.96346     17855.65146  21915333.5134   21915337.4034
      -288.3444       -224.6834
  11900680.16744   9255577.19943  24224429.4354   24224436.6344
     -3376.4534      -2631.0024
  -7701513.01147  -4947986.27946  21545104.6304   21545107.9934
      1025.3284        798.9574
   4258924.13247   3323161.17346  21985096.9814   21985100.6734
     -2668.7814      -2079.5704
   1558006.52044   1227107.93541  24967776.5214   24967781.6304
     -1594.1564      -1242.2004
  -3887116.55845  -2911747.63544  24036336.2394   24036341.7594
      2214.0314       1725.2194
  -5351255.69947  -4161116.09646  20640476.9034   20640480.7594
      -283.9694       -221.2744
 98  6 30 15 37 30.0010000  0  8G 4G 8G 7G 5G 9G16G30G24
   4257395.73847   3317450.69246  21445364.4814   21445367.9624
     -2715.9694      -2116.3394
  -5783177.24246     21297.24846  21916173.6534   21916177.4624
      -300.5784       -234.2174
  11951345.58945   9295056.66143  24234072.6064   24234076.7904
     -3378.9694      -2632.9634
  -7716842.81947  -4959931.57546  21542187.7244   21542191.2744
      1018.6094        793.7224
   4299030.77447   3354413.07646  21992728.7784   21992732.2944
     -2678.7664      -2087.3504
   1582000.51744   1245804.51942  24972341.7244   24972347.0324
     -1605.0624      -1250.6984
  -3920306.83245  -2937610.17044  24030020.7554   24030026.3454
      2211.3134       1723.1014
  -5346913.36947  -4157732.45746  20641303.1614   20641307.0874
      -295.0474       -229.9074
 98  6 30 15 37 45.0010000  0  8G 4G 8G 7G 5G 9G16G30G24
   4298216.04647   3349258.71146  21453132.2944   21453135.5054
     -2726.7664      -2124.7524
  -5778575.53546     24882.98946  21917049.6774   21917053.5674
      -313.0474       -243.9334
  12002049.66145   9334566.35143  24243720.1694   24243727.0404
     -3381.6564      -2635.0574
  -7732069.21447  -4971796.29346  21539290.0524   21539293.6614
      1011.4844        788.1704
   4339286.13347   3385780.86846  22000389.2474   22000392.8924
     -2688.5784      -2094.9964
   1606158.15644   1264628.64842  24976938.8564   24976945.9154
     -1616.0314      -1259.2454
  -3953454.79145  -2963439.69144  24023712.1304   24023718.2244
      2208.3444       1720.7874
  -5342403.31747  -4154218.12846  20642161.5604   20642165.3684
      -306.3284       -238.6974
 98  6 30 15 38  0.0010000  0  8G 4G 8G 7G 5G 9G16G30G24
   4339196.62747   3381191.62846  21460930.8024   21460933.9074
     -2737.2504      -2132.9224
  -5773786.33346     28614.84046  21917960.9194   21917964.6344
      -325.4844       -253.6244
  12052794.88645   9374108.03943  24253377.7474   24253385.7904
     -3384.3594      -2637.1634
  -7747188.95947  -4983577.90346  21536412.7634   21536416.3724
      1004.5784        782.7884
   4379685.14947   3417260.59746  22008076.7474   22008080.1924
     -2697.9694      -2102.3134
   1630479.79544   1283580.60942  24981567.6774   24981574.4854
     -1626.8124      -1267.6464
  -3986559.08445  -2989235.25744  24017413.1774   24017417.9354
      2205.6094       1718.6574
  -5337725.70947  -4150573.23646  20643051.4354   20643055.3724
      -317.2814       -247.2324
 98  6 30 15 38 15.0010000  0  8G 4G 8G 7G 5G 9G16G30G24
   4380333.04947   3413245.96746  21468758.5674   21468761.8134
     -2747.6564      -2141.0314
  -5768811.11546     32491.62146  21918907.6304   21918911.4974
      -337.9224       -263.3164
  12103581.90245   9413682.31343  24263040.7244   24263047.5564
     -3387.2664      -2639.4284
  -7762206.63547  -4995279.98346  21533554.9584   21533558.7554
       997.7344        777.4554
   4420225.37647   3448850.36346  22015791.6384   22015795.3294
     -2707.3914      -2109.6554
   1654962.08044   1302657.66942  24986225.6774   24986233.6384
     -1637.5314      -1275.9984
  -4019621.65745  -3014998.27344  24011120.7004   24011125.3644
      2202.6564       1716.3564
  -5332885.35647  -4146801.52646  20643972.5754   20643976.5364
      -328.0944       -255.6574
 98  6 30 15 38 30.0010000  0  8G 4G 8G 7G 5G 9G16G30G24
   4421627.01947   3445423.07946  21476616.5674   21476619.7084
     -2758.1414      -2149.2004
  -5763646.92146     36515.66846  21919890.5284   21919894.4074
      -350.7034       -273.2754
  12154414.01045   9453291.65243  24272715.9114   24272723.7314
     -3390.3124      -2641.8024
  -7777121.18347  -5006901.69946  21530717.0444   21530720.5954
       990.9064        772.1354
   4460907.65247   3480550.81146  22023533.1614   22023536.8994
     -2716.8914      -2117.0584
   1679606.47044   1321861.13042  24990915.4504   24990922.4504
     -1648.4224      -1284.4854
  -4052636.07945  -3040723.74244  24004839.2084   24004843.6734
      2199.2194       1713.6774
  -5327884.03947  -4142904.39446  20644924.1854   20644928.1104
      -338.7034       -263.9254
 98  6 30 15 38 45.0010000  0  8G 4G 8G 7G 5G 9G16G30G24
   4463077.23947   3477721.93846  21484504.1924   21484507.2984
     -2768.5314      -2157.2974
  -5758289.47446     40690.29546  21920910.4424   21920914.5324
      -363.6564       -283.3694
  12205291.52045   9492936.48143  24282395.9974   24282399.6534
     -3393.3124      -2644.1404
  -7791932.44047  -5018442.94046  21527898.5914   21527902.1654
       983.8754        766.6564
   4501731.18447   3512361.33346  22031301.5134   22031305.4744
     -2726.2034      -2124.3144
   1704416.46644   1341193.53642  24995637.4584   24995646.5214
     -1659.5314      -1293.1414
  -4085599.43945  -3066409.45644  23998565.5994   23998570.3564
      2195.9224       1711.1084
  -5322723.60247  -4138883.27146  20645906.2314   20645910.2634
      -349.2974       -272.1794
 98  6 30 15 39  0.0010000  0  8G 4G 8G 7G 5G 9G16G30G24
   4504680.13347   3510139.77046  21492421.0364   21492424.1774
     -2778.6094      -2165.1504
  -5752737.87446     45016.21446  21921966.3804   21921970.5174
      -376.6564       -293.4984
  12256211.08245   9532614.05043  24292086.8964   24292094.1884
     -3396.0944      -2646.3074
  -7806638.44347  -5029902.15446  21525100.1144   21525103.7004
       976.8134        761.1534
   4542692.75747   3544279.41646  22039096.4744   22039100.2244
     -2735.4374      -2131.5104
   1729389.53644   1360653.05841  25000388.9194   25000398.5674
     -1670.3444      -1301.5674
  -4118515.42245  -3092058.24344  23992302.7864   23992308.6344
      2192.7344       1708.6244
  -5317406.94147  -4134740.41146  20646918.2634   20646922.2824
      -359.7344       -280.3124
 98  6 30 15 39 15.0010000  0  8G 4G 8G 7G 5G 9G16G30G24
   4546434.37247   3542675.53246  21500366.4744   21500369.7904
     -2788.5164      -2172.8694
  -5746989.84846     49495.18746  21923060.4194   21923064.4504
      -389.6724       -303.6404
  12307175.42245   9572326.45243  24301784.1924   24301790.8964
     -3399.0624      -2648.6204
  -7821237.58747  -5041278.11046  21522321.9584   21522325.4854
       969.9384        755.7954
   4583795.15947   3576307.23446  22046917.8174   22046921.4624
     -2744.8444      -2138.8394
   1754527.91344   1380241.42542  25005172.7944   25005178.3134
     -1681.3754      -1310.1624
  -4151379.78945  -3117666.81544  23986048.4274   23986053.3374
      2189.2814       1705.9334
  -5311930.58847  -4130473.12146  20647960.1384   20647964.0634
      -370.3284       -288.5674
 98  6 30 15 39 30.0010000  0  8G 4G 8G 7G 5G 9G16G30G24
   4588335.75147   3575325.94446  21508340.3644   21508343.5284
     -2798.2664      -2180.4674
  -5741045.79346     54126.91946  21924191.4584   21924195.3134
      -402.7664       -313.8434
  12358181.73544   9612071.62142  24311491.2164   24311497.0284
     -3401.6564      -2650.6414
  -7835736.52147  -5052575.97446  21519562.6384   21519565.9784
       963.3444        750.6574
   4625039.12147   3608445.35846  22054766.6694   22054770.2674
     -2754.2664      -2146.1814
   1779832.13244   1399958.97142  25009988.2244   25009995.9624
     -1692.4224      -1318.7704
  -4184193.40745  -3143235.82545  23979804.5364   23979810.5134
      2185.9694       1703.3524
  -5306295.31847  -4126081.99846  20649032.3724   20649036.3454
      -381.0314       -296.9074
 98  6 30 15 39 45.0010000  0  8G 4G 8G 7G 5G 9G16G30G24
   4630382.65047   3608089.75546  21516341.5914   21516344.8024
     -2807.8444      -2187.9304
  -5734905.67146     58911.42846  21925359.7004   21925363.8964
      -415.7664       -323.9734
  12409225.98145   9651846.38043  24321204.4504   24321210.8724
     -3404.0624      -2652.5164
  -7850137.04447  -5063797.16046  21516822.5444   21516825.9314
       956.8444        745.5934
   4666425.94547   3640694.81046  22062642.1224   22062645.7784
     -2763.8284      -2153.6324
   1805301.24444   1419804.98842  25014834.8884   25014841.1924
     -1703.2814      -1327.2324
  -4216958.03345  -3168766.69244  23973569.2784   23973574.3294
      2182.8134       1700.8934
  -5300496.72747  -4121563.61346  20650135.8254   20650139.9624
      -391.9844       -305.4424
 98  6 30 15 40  0.0010000  0  8G 4G 8G 7G 5G 9G16G30G24
   4672570.34247   3640963.26946  21524369.6144   21524372.7314
     -2817.1564      -2195.1874
  -5728572.19546     63846.59546  21926564.9424   21926568.9854
      -428.7664       -334.1034
  12460303.78044   9691647.10043  24330924.0134   24330932.3604
     -3406.3594      -2654.3064
  -7864442.22547  -5074944.05046  21514100.2084   21514103.8994
       950.5314        740.6744
   4707953.78647   3673054.14346  22070544.9424   22070548.5634
     -2773.2344      -2160.9624
   1830931.01644   1439776.25042  25019712.5604   25019720.1344
     -1714.0944      -1335.6574
  -4249677.84445  -3194262.60645  23967343.2554   23967349.0444
      2179.7814       1698.5314
  -5294536.52847  -4116919.29746  20651270.2084   20651274.3564
      -402.7344       -313.8194
 98  6 30 15 40 15.0010000  0  9G10G 4G 8G 7G 5G 9G16G30G24
     -2160.91153                  25047091.3884
      2162.4384
   4714900.01847   3673947.42346  21532424.5914   21532427.7554
     -2826.6254      -2202.5654
  -5722039.89246     68936.69246  21927808.2394   21927812.2944
      -442.0314       -344.4404
  12511419.33645   9731477.47542  24340650.6534   24340655.6574
     -3408.7664      -2656.1814
  -7878650.98147  -5086015.80746  21511396.3804   21511399.7784
       944.1724        735.7184
   4749627.02347   3705526.76646  22078474.6774   22078478.3454
     -2783.0944      -2168.6444
   1856725.77844   1459876.03442  25024621.1694   25024627.2514
     -1725.0474      -1344.1924
  -4282349.37945  -3219720.92144  23961125.6924   23961130.5564
      2176.5634       1696.0234
  -5288411.97847  -4112146.91746  20652435.7084   20652439.8334
      -413.6874       -322.3544
 98  6 30 15 40 30.0010000  0  9G10G 4G 8G 7G 5G 9G16G30G24
    -34591.92544                  25040919.9974
      2161.6414
   4757370.79647   3707041.52346  21540506.7164   21540509.9154
     -2836.2034      -2210.0284
  -5715309.94546     74180.80546  21929088.5134   21929092.5214
      -455.3284       -354.8014
  12562566.24344   9771332.16043  24350383.1614   24350391.2984
     -3410.8124      -2657.7764
  -7892765.37747  -5097014.03846  21508710.7394   21508714.2674
       937.6724        730.6534
   4791447.15547   3738113.85546  22086432.7634   22086436.5244
     -2792.9224      -2176.3034
   1882683.74944   1480103.06142  25029560.2394   25029567.7674
     -1736.0784      -1352.7884
  -4314973.16945  -3245142.02044  23954917.0994   23954922.9704
      2173.2504       1693.4424
  -5282123.72047  -4107246.97146  20653632.2864   20653636.1774
      -424.8754       -331.0714
 98  6 30 15 40 45.0010000  0  9G10G 4G 8G 7G 5G 9G16G30G24
    -67011.32344                  25034751.3494
      2160.9534
   4799985.04847   3740247.42846  21548615.8564   21548619.0324
     -2845.6874      -2217.4194
  -5708381.23946     79579.79246  21930407.2474   21930410.9624
      -468.4694       -365.0414
  12613742.10145   9811209.29842  24360121.9664   24360128.5874
     -3412.6094      -2659.1764
  -7906782.19347  -5107936.23046  21506043.2244   21506046.5634
       931.2194        725.6254
   4833415.08647   3770816.11346  22094418.8174   22094422.5794
     -2802.7974      -2183.9984
   1908807.55044   1500459.25542  25034531.2314   25034539.8374
     -1747.0624      -1361.3474
  -4347549.91645  -3270526.46545  23948718.0214   23948723.0364
      2170.3754       1691.2014
  -5275665.23247  -4102214.37846  20654861.1464   20654865.0834
      -436.2974       -339.9724
 98  6 30 15 41  0.0010000  0  9G10G 4G 8G 7G 5G 9G16G30G24
    -99417.71643                  25028583.1464
      2159.9384
   4842742.99847   3773565.29746  21556752.4584   21556755.6694
     -2855.3594      -2224.9554
  -5701255.22346     85132.52746  21931763.3804   21931767.0014
      -481.5784       -375.2564
  12664946.49945   9851108.94443  24369866.0284   24369870.0714
     -3414.6254      -2660.7474
  -7920699.57647  -5118780.93846  21503394.7394   21503398.2314
       924.5164        720.4024
   4875533.22846   3803635.41946  22102433.6854   22102437.7284
     -2812.9694      -2191.9244
   1935096.40944   1520944.05342  25039534.5444   25039540.7904
     -1758.0474      -1369.9074
  -4380083.88245  -3295877.59245  23942526.8964   23942530.7284
      2167.5004       1688.9614
  -5269032.69447  -4097046.16246  20656123.4194   20656127.3564
      -448.0314       -349.1154
 98  6 30 15 41 15.0010000  0  9G10G 4G 8G 7G 5G 9G16G30G24
   -131811.50043                  25022419.0524
      2159.3134
   4885642.85347   3806993.74846  21564916.0054   21564919.1694
     -2864.6094      -2232.1634
  -5693937.02246     90835.01246  21933156.0914   21933159.6304
      -494.1414       -385.0454
  12716180.07444   9891031.18943  24379614.8414   24379621.1464
     -3416.5004      -2662.2084
  -7934521.09247  -5129550.94646  21500764.5524   21500768.1034
       918.3594        715.6054
   4917803.49947   3836573.26646  22110477.8254   22110481.5054
     -2823.0474      -2199.7774
   1961547.27344   1541555.11242  25044567.3494   25044574.6064
     -1768.7194      -1378.2224
  -4412575.52645  -3321195.72845  23936344.5364   23936349.3174
      2164.7504       1686.8184
  -5262223.79547  -4091740.52646  20657419.1304   20657423.0214
      -459.8124       -358.2954
 98  6 30 15 41 30.0010000  0  9G10G 4G 8G 7G 5G 9G16G30G24
   -164198.58844     -1680.57652  25016256.4664   25016263.3254
      2158.8284       1682.2044
   4928681.70147   3840530.50046  21573106.1534   21573109.3174
     -2874.0624      -2239.5294
  -5686431.67246     96683.33546  21934584.2084   21934588.0994
      -506.7034       -394.8344
  12767440.41944   9930974.16042  24389369.3174   24389376.8104
     -3418.2814      -2663.5964
  -7948249.11247  -5140248.10246  21498152.2474   21498155.6814
       911.9384        710.6014
   4960224.69146   3869628.71446  22118550.4274   22118554.3174
     -2833.2034      -2207.6914
   1988157.38344   1562290.24442  25049631.7784   25049639.3064
     -1779.4224      -1386.5624
  -4445025.79845  -3346481.60845  23930169.8494   23930174.6064
      2161.8754       1684.5784
  -5255237.66947  -4086296.78646  20658748.1694   20658752.2124
      -471.7814       -367.6224
 98  6 30 15 41 45.0010000  0  9G10G 4G 8G 7G 5G 9G16G30G24
   -196575.39642    -26909.14842  25010094.7244   25010107.1964
      2158.1254       1681.6564
   4971866.10147   3874180.67047  21581323.8724   21581327.0834
     -2883.8284      -2247.1394
  -5678735.84946    102680.07746  21936048.6774   21936052.3214
      -519.2664       -404.6234
  12818729.69844   9970939.86942  24399129.8334   24399135.7864
     -3420.2974      -2665.1664
  -7961876.42247  -5150866.78246  21495559.1224   21495562.7084
       905.0474        705.2314
   5002798.72046   3902803.25546  22126651.7084   22126655.8334
     -2843.2344      -2215.5074
   2014929.32344   1583151.48843  25054725.7314   25054733.5054
     -1790.0944      -1394.8784
  -4477431.62145  -3371732.87344  23924002.0834   23924007.2044
      2158.9224       1682.2774
  -5248070.64347  -4080712.08546  20660112.2314   20660116.1574
      -483.7664       -376.9604
 98  6 30 15 42  0.0010000  0  8G 4G 8G 7G 5G 9G16G30G24
   5015195.59047   3907943.89946  21589569.0364   21589571.9894
     -2893.5624      -2254.7244
  -5670854.52746    108821.36246  21937548.3644   21937552.0094
      -531.6254       -414.2534
  12870050.01545  10010929.67543  24408895.7944   24408901.7354
     -3422.5624      -2666.9324
  -7975401.01847  -5161405.42546  21492985.5834   21492989.1104
       898.0634        699.7894
   5045521.22146   3936093.49046  22134781.8724   22134785.7514
     -2853.1724      -2223.2514
   2041859.96044   1604136.45542  25059849.7004   25059859.5014
     -1800.7814      -1403.2064
  -4509793.93645  -3396950.22445  23917844.3564   23917849.5244
      2155.9064       1679.9274
  -5240726.98447  -4074989.74946  20661509.4584   20661513.3134
      -495.4374       -386.0554
 98  6 30 15 42 15.0010000  0  9G10G 4G 8G 7G 5G 9G16G30G24
    -17256.21952                  24997776.8414
      2156.9844
   5058668.82547   3941819.13046  21597841.6304   21597844.7354
     -2903.1094      -2262.1634
  -5662790.56146    115104.96546  21939082.9194   21939086.6574
      -543.7034       -423.6654
  12921402.69344  10050944.69843  24418667.4424   24418675.5914
     -3424.6564      -2668.5634
  -7988822.80547  -5171863.95646  21490431.2784   21490434.7474
       891.2814        694.5054
   5088389.50046   3969497.31746  22142938.9354   22142942.9544
     -2862.8594      -2230.8004
   2068948.72244   1625244.58442  25065005.3724   25065013.5564
     -1811.2504      -1411.3644
  -4542112.55345  -3422133.55145  23911694.4744   23911699.9704
      2152.9694       1677.6384
  -5233212.96847  -4069134.66846  20662939.5754   20662943.6304
      -506.7034       -394.8344
 98  6 30 15 42 30.0010000  0  9G10G 4G 8G 7G 5G 9G16G30G24
    -49605.52543                  24991621.6774
      2156.0474
   5102287.13847   3975807.41946  21606141.8494   21606145.0244
     -2912.8284      -2269.7364
  -5654546.90146    121528.59446  21940651.7864   21940655.6304
      -555.6414       -432.9674
  12972786.60344  10090984.06442  24428446.6384   24428454.3414
     -3426.6254      -2670.0974
  -8002139.76547  -5182240.80146  21487897.3254   21487900.8764
       884.1414        688.9414
   5131406.12746   4003016.74246  22151124.9744   22151128.9814
     -2872.8124      -2238.5554
   2096194.65944   1646475.14042  25070190.3024   25070195.3534
     -1821.7194      -1419.5214
  -4574384.83045  -3447280.75945  23905553.1694   23905558.5604
      2149.8444       1675.2034
  -5225526.12247  -4063144.91446  20664402.4894   20664406.4744
      -518.3594       -403.9164
 98  6 30 15 42 45.0010000  0  9G10G 4G 8G 7G 5G 9G16G30G24
    -81940.72642                  24985468.3964
      2155.2814
   5146050.34847   4009908.60646  21614469.9274   21614473.0444
     -2922.2974      -2277.1144
  -5646125.15146    128090.99546  21942254.3254   21942258.2634
      -567.2664       -442.0254
  13024201.47545  10131047.63443  24438230.9274   24438238.2434
     -3428.7034      -2671.7174
  -8015348.90147  -5192533.63246  21485383.7784   21485387.3534
       877.0944        683.4504
   5174570.25046   4036651.09446  22159338.7244   22159342.5444
     -2882.4064      -2246.0314
   2123598.22944   1667828.54542  25075404.9894   25075409.9114
     -1832.0944      -1427.6064
  -4606610.38345  -3472391.54345  23899420.4664   23899425.4354
      2146.9064       1672.9144
  -5217665.17647  -4057019.49446  20665898.3644   20665902.2314
      -529.7344       -412.7804
 98  6 30 15 43  0.0010000  0  9G10G 4G 8G 7G 5G 9G16G30G24
   -114262.33443                  24979317.3494
      2154.2194
   5189957.55747   4044122.00346  21622825.2554   21622828.4544
     -2931.9844      -2284.6634
  -5637526.98846    134790.85546  21943890.5754   21943894.6654
      -579.1874       -451.3154
  13075650.34443  10171137.55643  24448020.0834   24448029.4274
     -3431.1094      -2673.5924
  -8028450.39147  -5202742.57946  21482890.6224   21482894.0214
       869.7504        677.7274
   5217880.51146   4070399.32246  22167580.7474   22167584.6384
     -2892.2344      -2253.6894
   2151157.65243   1689303.47042  25080649.4354   25080656.9384
     -1842.4844      -1435.7024
  -4638790.25445  -3497466.73245  23893296.7244   23893301.2824
      2143.7344       1670.4424
  -5209634.79047  -4050762.04646  20667426.2314   20667430.1814
      -540.9534       -421.5224
 98  6 30 15 43 15.0010000  0  9G10G 4G 8G 7G 5G 9G16G30G24
   -146569.17143                  24973169.7714
      2153.3914
   5234007.78847   4078446.84446  21631207.5364   21631210.5714
     -2941.4224      -2292.0174
  -5628752.19546    141628.35046  21945560.3254   21945564.6964
      -590.8444       -460.3984
  13127131.68445  10211252.83343  24457816.8414   24457821.5404
     -3433.0624      -2675.1144
  -8041443.28447  -5212866.91046  21480418.0524   21480421.6034
       862.5944        672.1514
   5261333.67946   4104258.91046  22175849.4114   22175853.4784
     -2901.5164      -2260.9214
   2178870.81944   1710898.13042  25085923.0834   25085929.7164
     -1852.6564      -1443.6284
  -4670922.98445  -3522505.19345  23887182.5994   23887188.0714
      2140.5944       1667.9954
  -5201439.14347  -4044375.82946  20668985.9894   20668989.7984
      -551.8444       -430.0084
 98  6 30 15 43 30.0010000  0  9G10G 4G 8G 7G 5G 9G16G30G24
   -178862.40543    -11740.56252  24967025.4114   24967031.8454
      2152.3284       1677.1394
   5278200.54347   4112882.74446  21639617.2784   21639620.4074
     -2951.0164      -2299.4934
  -5619798.92946    148604.91246  21947263.9974   21947267.9814
      -602.9374       -469.8214
  13178641.43143  10251390.31742  24467618.2864   24467623.5714
     -3434.8444      -2676.5024
  -8054325.56547  -5222905.04046  21477966.5674   21477970.1534
       855.0314        666.2584
   5304925.23446   4138226.32246  22184144.8024   22184149.0444
     -2910.6094      -2268.0074
   2206739.29244   1732613.80942  25091225.6304   25091230.7044
     -1863.0944      -1451.7614
  -4703006.21145  -3547505.08445  23881077.2394   23881083.2514
      2137.2034       1665.3534
  -5193079.61747  -4037861.90846  20670576.6534   20670580.4384
      -562.7034       -438.4704
 98  6 30 15 43 45.0010000  0  9G10G 4G 8G 7G 5G 9G16G30G24
   -211136.72543    -36889.32142  24960884.1614   24960891.5604
      2151.0004       1676.1044
   5322539.89247   4147432.87246  21648054.6464   21648057.7984
     -2960.7344      -2307.0664
  -5610661.02546    155725.35246  21949003.1224   21949006.9784
      -615.3284       -479.4764
  13230179.93944  10291550.10842  24477426.4114   24477434.1264
     -3436.7814      -2678.0114
  -8067093.11847  -5232853.78546  21475537.2004   21475540.4704
       847.5314        660.4144
   5348651.83146   4172298.96946  22192465.5914   22192469.6694
     -2919.3914      -2274.8504
   2234766.48344   1754453.15942  25096559.3174   25096565.3994
     -1873.7194      -1460.0414
  -4735037.94745  -3572464.86245  23874981.6384   23874986.4314
      2133.8754       1662.7604
  -5184558.25747  -4031221.88146  20672198.1464   20672201.8964
      -573.2974       -446.7254
 98  6 30 15 44  0.0010000  0  9G10G 4G 8G 7G 5G 9G16G30G24
   -243392.09443    -62023.29442  24954745.5134   24954754.3534
      2149.8134       1675.1794
   5367022.87847   4182094.92846  21656519.9034   21656523.1034
     -2970.2034      -2314.4444
  -5601338.08546    162989.97446  21950776.7084   21950780.4584
      -627.6564       -489.0834
  13281747.76945  10331732.74943  24487239.8724   24487244.8884
     -3438.8284      -2679.6064
  -8079750.49947  -5242716.67846  21473128.4274   21473131.7784
       840.2664        654.7524
   5392508.46746   4206472.94046  22200811.5054   22200815.5484
     -2928.0944      -2281.6314
   2262951.53043   1776415.52742  25101923.5214   25101930.0604
     -1884.2034      -1468.2104
  -4767020.73545  -3597386.49645  23868895.5364   23868900.9504
      2130.5634       1660.1794
  -5175880.60647  -4024460.06846  20673849.4744   20673853.4114
      -583.6874       -454.8214
 98  6 30 15 44 15.0010000  0  9G10G 4G 8G 7G 5G 9G16G30G24
   -275632.24242    -87145.47441  24948609.4194   24948613.4034
      2148.6254       1674.2534
   5411644.30947   4216864.85746  21665010.5674   21665013.7554
     -2979.5944      -2321.7614
  -5591831.41446    170397.76246  21952586.2084   21952590.0404
      -640.1254       -498.7994
  13333342.20344  10371936.21943  24497057.7634   24497063.3764
     -3440.6094      -2680.9944
  -8092303.37147  -5252498.13046  21470739.6384   21470742.7784
       833.2344        649.2744
   5436493.64546   4240747.07946  22209181.3564   22209185.3174
     -2936.8124      -2288.4254
   2291290.97743   1798498.21342  25107315.4194   25107324.7044
     -1894.6094      -1476.3194
  -4798956.90445  -3622271.79845  23862818.0674   23862823.3174
      2127.3134       1657.6464
  -5167048.58147  -4017577.96946  20675530.1854   20675533.9354
      -594.1874       -463.0034
 98  6 30 15 44 30.0010000  0  9G10G 4G 8G 7G 5G 9G16G30G24
   -307852.37443   -112251.99642  24942478.8024   24942486.9854
      2147.3754       1673.2794
   5456407.14147   4251744.97346  21673529.0134   21673532.5404
     -2988.7664      -2328.9084
  -5582136.52046    177952.21746  21954431.1774   21954434.7284
      -652.5624       -508.4904
  13384962.74545  10412160.00643  24506880.9504   24506888.3724
     -3442.1414      -2682.1874
  -8104750.36447  -5262197.08646  21468371.0054   21468374.3214
       826.3134        643.8804
   5480609.34046   4275122.92146  22217576.5604   22217580.6734
     -2945.2974      -2295.0374
   2319786.59744   1820702.60242  25112738.8174   25112746.7084
     -1904.8284      -1484.2824
  -4830843.11445  -3647118.18045  23856750.5444   23856756.1814
      2124.1564       1655.1874
  -5158056.00847  -4010570.76446  20677241.3334   20677245.2244
      -604.9064       -471.3564
 98  6 30 15 44 45.0010000  0  9G10G 4G 8G 7G 5G 9G16G30G24
   -340052.44544   -137342.96042  24936351.7784   24936355.4814
      2146.0474       1672.2444
   5501307.13647   4286731.96746  21682073.1614   21682076.4664
     -2997.9064      -2336.0314
  -5572252.24946    185654.24346  21956311.8884   21956315.4624
      -665.4064       -518.4984
  13436608.27643  10452403.17642  24516707.6464   24516714.6464
     -3443.9844      -2683.6244
  -8117091.57947  -5271813.61646  21466022.5674   21466026.0134
       819.2034        638.3404
   5524852.64046   4309598.18846  22225995.5604   22225999.4154
     -2953.7974      -2301.6604
   2348438.63743   1843028.86741  25118190.7784   25118194.3764
     -1915.5004      -1492.5974
  -4862681.55145  -3671927.31145  23850692.1774   23850696.9234
      2120.9384       1652.6794
  -5148900.96747  -4003436.96246  20678983.6304   20678987.5444
      -615.6874       -479.7564
 98  6 30 15 45  0.0010000  0  9G10G 4G 8G 7G 5G 9G16G30G24
   -372234.18342   -162419.67442  24930226.8104   24930234.0794
      2144.7194       1671.2094
   5546344.44147   4321825.95746  21690643.4744   21690646.5674
     -3007.1724      -2343.2514
  -5562173.49946    193507.80846  21958229.5994   21958233.5954
      -678.5314       -528.7264
  13488284.16744  10492670.10242  24526542.8334   24526547.7084
     -3446.2194      -2685.3654
  -8129326.83147  -5281347.57446  21463694.6304   21463698.0874
       812.0634        632.7764
   5569224.27646   4344173.46546  22234439.2714   22234443.0324
     -2962.5944      -2308.5154
   2377250.75843   1865479.85942  25123673.6534   25123680.5604
     -1926.2344      -1500.9624
  -4894470.95145  -3696698.25545  23844642.3494   23844647.1304
      2117.5004       1650.0004
  -5139585.68647  -3996178.29946  20680756.3024   20680760.2514
      -626.4844       -488.1704
 98  6 30 15 45 15.0010000  0  9G10G 4G 8G 7G 5G 9G16G30G24
   -404396.64242   -187481.23041  24924105.5284   24924112.6224
      2143.4534       1670.2234
   5591518.25547   4357026.31546  21699239.5524   21699242.8214
     -3016.1414      -2350.2394
  -5551900.52946    201512.70946  21960184.7944   21960188.6144
      -691.3594       -538.7224
  13539990.24044  10532960.52443  24536382.1854   24536388.2434
     -3448.0944      -2686.8264
  -8141457.15747  -5290799.77546  21461385.9894   21461389.1304
       805.1564        627.3944
   5613726.30946   4378850.34646  22242907.9584   22242911.6264
     -2971.1564      -2315.1874
   2406221.90043   1888054.84441  25129186.2474   25129193.4814
     -1936.7974      -1509.1924
  -4926210.65245  -3721430.46645  23838601.9974   23838606.7554
      2114.2504       1647.4684
  -5130109.39347  -3988794.17246  20682559.6224   20682563.6774
      -637.2344       -496.5464
 98  6 30 15 45 30.0010000  0  9G10G 4G 8G 7G 5G 9G16G30G24
   -436538.89343   -212527.13842  24917991.2244   24917999.4664
      2142.2664       1669.2984
   5636828.67247   4392333.11746  21707861.9424   21707865.3764
     -3025.2194      -2357.3134
  -5541433.39246    209668.91846  21962176.3804   21962180.1064
      -704.1874       -548.7184
  13591726.63844  10573274.52043  24546226.7084   24546234.6924
     -3450.1094      -2688.3974
  -8153483.13247  -5300170.66046  21459097.5284   21459100.6104
       798.3594        622.0984
   5658358.91446   4413628.97546  22251401.3104   22251405.1654
     -2979.8124      -2321.9324
   2435354.58043   1910755.59041  25134730.2004   25134735.8374
     -1947.4844      -1517.5204
  -4957897.45745  -3746121.46445  23832573.0914   23832578.9744
      2110.7504       1644.7404
  -5120468.49047  -3981281.77846  20684394.2084   20684398.1694
      -648.0784       -504.9964
 98  6 30 15 45 45.0010000  0  9G10G 4G 8G 7G 5G 9G16G30G24
   -468663.27043   -237559.12842  24911876.8644   24911884.9664
      2140.9694       1668.2874
   5682275.64247   4427746.32446  21716510.2554   21716513.5244
     -3034.4534      -2364.5094
  -5530773.18146    217975.57246  21964205.1924   21964209.0244
      -717.2194       -558.8724
  13643496.27244  10613614.41343  24556077.8564   24556085.1144
     -3452.6254      -2690.3574
  -8165407.65347  -5309462.49446  21456828.4504   21456831.7674
       791.5634        616.8024
   5703122.18046   4448509.41746  22259919.6534   22259923.4854
     -2988.6874      -2328.8474
   2464646.94943   1933580.78342  25140304.3964   25140310.1494
     -1958.1564      -1525.8364
  -4989532.68845  -3770772.27245  23826552.5524   23826557.0634
      2107.2504       1642.0134
  -5110665.94447  -3973643.42846  20686259.6854   20686263.5754
      -658.9534       -513.4704
 98  6 30 15 46  0.0010000  0  9G10G 4G 8G 7G 5G 9G16G30G24
   -500770.17043   -262577.45642  24905767.6384   24905776.7474
      2139.8594       1667.4234
   5727861.14147   4463267.47546  21725184.8964   21725188.0954
     -3043.7194      -2371.7294
  -5519919.41246    226433.04546  21966270.3334   21966274.4464
      -730.0474       -568.8684
  13695305.46445  10653985.24643  24565937.3644   24565943.6104
     -3455.3754      -2692.5004
  -8177230.75347  -5318675.29846  21454578.6304   21454582.0174
       784.7034        611.4574
   5748019.84247   4483494.57646  22268463.1064   22268466.7864
     -2997.8284      -2335.9704
   2494098.25143   1956529.81642  25145908.7864   25145912.5364
     -1968.7974      -1534.1274
  -5021115.51145  -3795382.23945  23820542.4584   23820547.8964
      2103.6564       1639.2134
  -5100700.32547  -3965878.01146  20688156.1224   20688159.9194
      -669.9224       -522.0174
 98  6 30 15 46 15.0010000  0  9G10G 4G 8G 7G 5G 9G16G30G24
   -532862.34643   -287584.32042  24899660.9274   24899667.2784
      2138.9224       1666.6924
   5773584.59247   4498896.12746  21733885.6224   21733889.0094
     -3052.8754      -2378.8644
  -5508875.05046    235039.04046  21968372.2864   21968376.4934
      -742.6094       -578.6574
  13747154.95844  10694387.43243  24575803.2164   24575810.8254
     -3457.9844      -2694.5334
  -8188950.34947  -5327807.44546  21452348.5524   21452351.8454
       777.7194        606.0154
   5793056.43946   4518588.00746  22277033.3254   22277037.1464
     -3007.1724      -2343.2514
   2523708.87443   1979603.12141  25151543.5214   25151548.7004
     -1979.4374      -1542.4194
  -5052644.86345  -3819950.53945  23814542.5914   23814548.5914
      2100.1414       1636.4734
  -5090569.32247  -3957983.72246  20690083.7944   20690087.4854
      -681.0164       -530.6624
 98  6 30 15 46 30.0010000  0  9G10G 4G 8G 7G 5G 9G16G30G24
   -564938.20043   -312578.49742  24893556.6384   24893561.7714
      2137.9384       1665.9254
   5819445.82447   4534632.12846  21742612.8334   21742616.1964
     -3061.8594      -2385.8644
  -5497642.97446    243791.29846  21970509.6854   21970513.7044
      -754.9064       -588.2394
  13799043.45444  10734819.91843  24585678.4664   24585684.8534
     -3460.4374      -2696.4454
  -8200563.30147  -5336856.50046  21450138.6224   21450141.9034
       770.7034        600.5484
   5838233.02947   4553790.51946  22285630.1614   22285633.9704
     -3016.3124      -2350.3734
   2553480.53843   2002801.75742  25157208.5444   25157212.7864
     -1990.0944      -1550.7224
  -5084121.86045  -3844478.03145  23808552.7864   23808557.7554
      2096.7974       1633.8684
  -5080271.66847  -3949959.57346  20692043.4354   20692047.2204
      -691.9374       -539.1724
 98  6 30 15 46 45.0010000  0  9G10G 4G 8G 7G 5G 9G16G30G24
   -596997.67543   -337559.88342  24887456.3254   24887464.0874
      2136.5784       1664.8664
   5865441.92047   4570473.22446  21751365.6614   21751369.1424
     -3071.0004      -2392.9874
  -5486224.59546    252688.72946  21972682.6534   21972686.3214
      -767.6094       -598.1374
  13850971.76644  10775283.56742  24595559.7164   24595566.1384
     -3463.4224      -2698.7704
  -8212067.08047  -5345820.47947  21447949.7634   21447952.9274
       763.1094        594.6314
   5883548.51747   4589101.26346  22294253.4424   22294256.9934
     -3025.8124      -2357.7764
   2583415.68443   2026127.83341  25162905.8644   25162911.1384
     -2001.2974      -1559.4524
  -5115545.84745  -3868964.23845  23802573.0284   23802577.9274
      2093.0474       1630.9464
  -5069809.38347  -3941807.14047  20694034.3564   20694037.9424
      -703.0784       -547.8534
 98  6 30 15 47  0.0010000  0  9G10G 4G 8G 7G 5G 9G16G30G24
   -629040.35944   -362528.16042  24881357.8804   24881366.3454
      2135.7194       1664.1964
   5911575.33847   4606421.32646  21760144.5214   21760147.8494
     -3080.2344      -2400.1834
  -5474618.56246    261732.38846  21974890.7634   21974894.7944
      -779.8754       -607.6954
  13902943.04744  10815780.61943  24605449.6924   24605456.5014
     -3466.1564      -2700.9014
  -8223460.35347  -5354698.35947  21445781.4664   21445784.5604
       755.9844        589.0794
   5929005.50547   4624522.26346  22302903.6924   22302907.4784
     -3035.1724      -2365.0694
   2613517.93843   2049584.12542  25168633.3804   25168640.8604
     -2012.3594      -1568.0724
  -5146915.22045  -3893407.87545  23796603.2944   23796607.4544
      2089.4224       1628.1214
  -5059183.52447  -3933527.25147  20696056.5054   20696060.2784
      -713.7504       -556.1694
 98  6 30 15 47 15.0010000  0  9G10G 4G 8G 7G 5G 9G16G30G24
   -661067.35843   -387484.26342  24875263.9034   24875271.5714
      2134.5474       1663.2834
   5957849.59047   4642479.17346  21768950.3174   21768953.5284
     -3089.6564      -2407.5244
  -5462829.33946    270918.78846  21977134.3644   21977138.2204
      -791.9694       -617.1194
  13954955.83844  10856310.00143  24615347.3564   24615354.4744
     -3468.7664      -2702.9344
  -8234745.83947  -5363492.24947  21443633.9114   21443637.1814
       748.7664        583.4544
   5974603.13146   4660052.85246  22311580.6384   22311584.3174
     -3044.4694      -2372.3134
   2643785.43243   2073169.18942  25174393.7164   25174398.4624
     -2023.2974      -1576.5954
  -5178227.95445  -3917807.37345  23790645.1304   23790649.4074
      2085.6254       1625.1624
  -5048396.59047  -3925121.84646  20698108.9894   20698112.9274
      -724.5164       -564.5584
 98  6 30 15 47 30.0010000  0  9G10G 4G 8G 7G 5G 9G16G30G24
   -693078.60443   -412428.08542  24869172.1924   24869179.6264
      2133.5784       1662.5284
   6004263.91447   4678646.15946  21777782.6774   21777786.0404
     -3098.9224      -2414.7444
  -5450861.07346    280244.69746  21979411.8884   21979415.5794
      -803.8754       -626.3964
  14007004.36844  10896867.26942  24625251.6774   24625258.0634
     -3471.0784      -2704.7364
  -8245924.08947  -5372202.57246  21441506.9274   21441510.2674
       741.6094        577.8774
   6020336.43246   4695689.16446  22320283.1854   22320286.7714
     -3053.3594      -2379.2414
   2674215.31143   2096880.79342  25180183.4424   25180190.5134
     -2034.1094      -1585.0204
  -5209486.26345  -3942164.46945  23784697.1614   23784701.6734
      2082.0314       1622.3624
  -5037449.80447  -3916591.88247  20700192.0834   20700195.9274
      -735.0784       -572.7884
 98  6 30 15 47 45.0010000  0  9G10G 4G 8G 7G 5G 9G16G30G24
   -725073.40943   -437359.03243  24863083.8564   24863090.8454
      2132.3284       1661.5544
   6050819.51347   4714923.23346  21786642.1224   21786645.2394
     -3108.5314      -2422.2324
  -5438710.91846    289712.34146  21981723.8804   21981727.6304
      -816.1414       -635.9544
  14059091.08745  10937454.30243  24635163.5994   24635172.1344
     -3473.8754      -2706.9164
  -8256992.17747  -5380827.05647  21439400.7714   21439403.8994
       734.0784        572.0094
   6066206.27346   4731431.87046  22329012.1144   22329015.8534
     -3062.6564      -2386.4854
   2704810.95143   2120721.52742  25186005.7474   25186011.9354
     -2045.3124      -1593.7504
  -5240687.00545  -3966476.69645  23778759.9114   23778764.6224
      2078.1094       1619.3064
  -5026343.18947  -3907937.37247  20702305.9034   20702309.6884
      -745.8444       -581.1774
 98  6 30 15 48  0.0010000  0  8G10G 4G 8G 7G 5G 9G30G24
   -757048.01843   -462274.27342  24856999.2084   24857006.2784
      2131.0164       1660.5324
   6097517.30647   4751311.10746  21795528.0444   21795531.4074
     -3117.7664      -2429.4284
  -5426377.52746    299322.76646  21984071.4744   21984075.2244
      -828.2504       -645.3904
  14111217.88844  10978072.52543  24645082.4664   24645087.1534
     -3476.2664      -2708.7784
  -8267948.06347  -5389364.10846  21437315.9814   21437319.4974
       726.7814        566.3234
   6112214.71546   4767282.57546  22337767.1774   22337771.1854
     -3071.7504      -2393.5714
  -5271830.87545  -3990744.60745  23772832.6614   23772838.1464
      2074.4384       1616.4454
  -5015074.21147  -3899156.35047  20704450.0674   20704453.8644
      -756.6414       -589.5904
 98  6 30 15 48 15.0010000  0  8G10G 4G 8G 7G 5G 9G30G24
   -789001.80943   -487173.34442  24850919.0364   24850928.3804
      2129.4224       1659.2904
   6144352.86447   4787806.33146  21804440.7164   21804443.9384
     -3126.9844      -2436.6114
  -5413864.89546    309072.85846  21986452.3494   21986456.1224
      -840.1874       -654.6924
  14163379.03643  11018717.53042  24655009.0284   24655011.8174
     -3478.5474      -2710.5564
  -8278794.73247  -5397816.06047  21435251.8414   21435254.9464
       719.3914        560.5644
   6158359.92146   4803239.85546  22346548.2784   22346552.1224
     -3080.9694      -2400.7554
  -5302918.50645  -4014968.71245  23766917.1534   23766923.0834
      2070.5634       1613.4254
  -5003643.25747  -3890249.11747  20706625.4194   20706629.2164
      -767.5314       -598.0764
 98  6 30 15 48 30.0010000  0  8G10G 4G 8G 7G 5G 9G30G24
   -820929.37944   -512051.96743  24844843.3414   24844849.8454
      2127.5784       1657.8534
   6191326.70947   4824409.31146  21813379.4974   21813382.8604
     -3136.2034      -2443.7954
  -5401172.32046    318963.16646  21988867.6144   21988871.3534
      -852.2504       -664.0914
  14215573.62244  11059388.57242  24664942.1144   24664947.3644
     -3480.7344      -2712.2614
  -8289529.56447  -5406180.86446  21433209.1534   21433212.3764
       711.9534        554.7694
   6204642.87946   4839304.46846  22355355.5914   22355359.3534
     -3090.0164      -2407.8044
  -5333947.54645  -4039147.15945  23761012.7864   23761017.6854
      2066.6254       1610.3574
  -4992047.83747  -3881213.72047  20708832.0524   20708835.9314
      -778.5004       -606.6234
 98  6 30 15 48 45.0010000  0  8G10G 4G 8G 7G 5G 9G30G24
   -852831.41843   -536910.66542  24838772.2554   24838779.7004
      2126.0784       1656.6844
   6238437.96147   4861119.35846  21822344.3964   21822347.6064
     -3145.2664      -2450.8564
  -5388297.48346    328995.49546  21991317.3334   21991321.0244
      -864.4374       -673.5884
  14267799.36444  11100083.98443  24674879.2244   24674885.5634
     -3482.6564      -2713.7584
  -8300154.85047  -5414460.30946  21431187.2084   21431190.4194
       704.7974        549.1924
   6251058.80346   4875472.69746  22364188.4664   22364192.3334
     -3098.7814      -2414.6354
  -5364917.55145  -4063279.60745  23755119.1064   23755123.7824
      2062.7034       1607.3014
  -4980289.74147  -3872051.56947  20711069.4744   20711073.3644
      -789.2664       -615.0124
 98  6 30 15 49  0.0010000  0  8G10G 4G 8G 7G 5G 9G30G24
   -884709.08143   -561750.38442  24832706.5524   24832713.6814
      2124.4534       1655.4184
   6285688.68147   4897938.08046  21831336.1924   21831339.4744
     -3154.7504      -2458.2474
  -5375236.33546    339173.00346  21993802.7634   21993806.7004
      -876.9064       -683.3044
  14320055.67644  11140803.13843  24684823.4354   24684830.2674
     -3484.7034      -2715.3534
  -8310671.90947  -5422655.41847  21429185.7314   21429188.6964
       697.7034        543.6654
   6297608.67646   4911745.30146  22373046.7864   22373050.6884
     -3107.7664      -2421.6364
  -5395827.95645  -4087365.58945  23749237.1224   23749241.9154
      2058.8444       1604.2944
  -4968367.25247  -3862761.31347  20713338.2244   20713341.9974
      -800.2814       -623.5964
 98  6 30 15 49 15.0010000  0  8G10G 4G 8G 7G 5G 9G30G24
   -916564.69643   -586572.91942  24826644.1224   24826652.5524
      2122.9224       1654.2254
   6333080.24347   4934866.55546  21840354.5134   21840357.8644
     -3164.1094      -2465.5404
  -5361990.50146    349494.41446  21996323.5134   21996327.4384
      -889.2974       -692.9594
  14372340.79443  11181544.76942  24694771.9664   24694779.0484
     -3486.7194      -2716.9244
  -8321085.92547  -5430770.23847  21427204.1924   21427207.4504
       690.7344        538.2354
   6344292.16946   4948122.01646  22381930.5444   22381934.3644
     -3116.7194      -2428.6124
  -5426682.03545  -4111407.70345  23743365.7864   23743370.4034
      2055.0314       1601.3234
  -4956281.13747  -3853343.56747  20715638.0134   20715641.8804
      -811.2504       -632.1434
 98  6 30 15 49 30.0010000  0  8G10G 4G 8G 7G 5G 9G30G24
   -948397.67344   -611377.81543  24820587.1694   24820594.8844
      2121.4224       1653.0564
   6380607.97347   4971901.13446  21849398.7314   21849402.1884
     -3173.0004      -2472.4684
  -5348558.50446    359960.89146  21998879.4744   21998883.5284
      -901.7974       -702.6994
  14424654.61744  11222308.70442  24704728.7864   24704736.1964
     -3488.5164      -2718.3244
  -8331394.98847  -5438803.27446  21425242.2394   21425245.3924
       683.7194        532.7684
   6391108.90546   4984602.56346  22390839.2474   22390842.9384
     -3125.6094      -2435.5404
  -5457482.45945  -4135408.01745  23737503.8334   23737508.8134
      2051.6254       1598.6694
  -4944030.56247  -3843797.65847  20717969.2474   20717972.9744
      -822.2504       -640.7144
 98  6 30 15 49 45.0010000  0  8G10G 4G 8G 7G 5G 9G30G24
   -980208.06443   -636165.07442  24814533.2554   24814540.4074
      2119.9064       1651.8754
   6428269.18947   5009039.72346  21858468.3254   21858471.5364
     -3181.8124      -2479.3344
  -5334935.82946    370575.94846  22001471.7784   22001475.6694
      -914.6564       -712.7194
  14476997.72343  11263095.56042  24714688.0914   24714693.2244
     -3490.6564      -2719.9924
  -8341597.54247  -5446753.31646  21423300.6774   21423303.8884
       676.6414        527.2524
   6438060.63246   5021188.30046  22399773.8254   22399777.6344
     -3134.6564      -2442.5894
  -5488230.40645  -4159367.43445  23731653.4194   23731657.8844
      2048.1254       1595.9424
  -4931613.67947  -3834122.16447  20720332.1614   20720335.7714
      -833.3914       -649.3954
 98  6 30 15 50  0.0010000  0  8G10G 4G 8G 7G 5G 9G30G24
  -1011996.64444   -660935.36142  24808484.4744   24808489.6884
      2118.5314       1650.8044
   6476062.37247   5046281.14646  21867562.9744   21867566.0794
     -3190.6414      -2486.2134
  -5321120.82146    381340.87946  22004100.9504   22004104.9234
      -927.3914       -722.6424
  14529371.97143  11303906.58743  24724653.6854   24724659.9894
     -3492.6564      -2721.5504
  -8351696.02647  -5454622.26646  21421379.0364   21421382.1534
       669.7664        521.8954
   6485146.98246   5057878.93946  22408734.1304   22408738.0214
     -3143.5474      -2449.5174
  -5518928.85545  -4183288.27045  23725811.9274   23725816.4624
      2045.0004       1593.5064
  -4919030.41947  -3824317.02347  20722726.6694   20722730.4194
      -844.4534       -658.0154
 98  6 30 15 50 15.0010000  0  8G10G 4G 8G 7G 5G 9G30G24
  -1043764.03944   -685689.17043  24802439.1384   24802446.2904
      2117.1564       1649.7324
   6523988.58247   5083626.22946  21876683.2864   21876686.4974
     -3199.4844      -2493.1054
  -5307113.41346    392255.72946  22006766.1384   22006770.2164
      -940.2504       -732.6624
  14581775.97344  11344740.78142  24734627.5444   24734633.6734
     -3494.5784      -2723.0484
  -8361689.03847  -5462409.02746  21419477.3804   21419480.4854
       662.6564        516.3564
   6532366.82246   5094673.59346  22417719.7474   22417723.3924
     -3152.4694      -2456.4694
  -5549579.36345  -4207171.75945  23719979.0754   23719983.4704
      2041.7034       1590.9384
  -4906279.08847  -3814380.92147  20725153.2164   20725156.7904
      -855.6874       -666.7694
 98  6 30 15 50 30.0010000  0  8G10G 4G 8G 7G 5G 9G30G24
  -1075509.92643   -710426.15942  24796396.9504   24796403.9034
      2115.7034       1648.6004
   6572048.01247   5121075.11746  21885828.4504   21885831.6854
     -3208.3284      -2499.9964
  -5292911.98846    403321.75946  22009468.6464   22009472.6654
      -953.2664       -742.8044
  14634211.71344  11385599.79842  24744605.0834   24744609.2314
     -3496.7504      -2724.7404
  -8371573.58847  -5470111.27446  21417596.5214   21417599.6034
       655.3594        510.6704
   6579722.24846   5131573.89746  22426731.2944   22426735.0444
     -3161.4534      -2463.4704
  -5580179.12845  -4231015.70945  23714155.9504   23714160.1924
      2038.4064       1588.3694
  -4893359.38047  -3804313.61547  20727611.4894   20727615.2514
      -866.8444       -675.4634
 98  6 30 15 50 45.0010000  0  8G10G 4G 8G 7G 5G 9G30G24
  -1107235.24643   -735147.12442  24790361.1384   24790367.6654
      2114.2814       1647.4924
   6620238.34747   5158626.00846  21894999.2634   21895002.6034
     -3217.0944      -2506.8264
  -5278515.35546    414539.90546  22012208.2084   22012212.2284
      -966.3754       -753.0194
  14686678.69143  11426483.19242  24754589.6854   24754595.8964
     -3498.8914      -2726.4084
  -8381350.14047  -5477729.37046  21415736.1304   21415739.2944
       648.1724        505.0694
   6627210.93546   5168578.04046  22435767.8414   22435771.3924
     -3170.4534      -2470.4834
  -5610730.84845  -4254822.24145  23708342.5134   23708346.4974
      2035.1094       1585.8004
  -4880272.84247  -3794116.31047  20730102.0054   20730105.7084
      -878.0474       -684.1924
 98  6 30 15 51  0.0010000  0  8G10G 4G 8G 7G 5G 9G30G24
  -1138939.94143   -759852.01543  24784326.9664   24784334.2004
      2112.9224       1646.4334
   6668558.98447   5196278.43246  21904194.1144   21904197.4664
     -3225.7034      -2513.5354
  -5263923.48246    425910.18246  22014985.3334   22014989.2714
      -979.2034       -763.0154
  14739177.35943  11467391.12642  24764580.1534   24764588.4424
     -3501.0004      -2728.0524
  -8391019.57847  -5485263.99546  21413896.1854   21413899.3254
       641.0164        499.4934
   6674835.62046   5205688.15946  22444830.6224   22444833.9384
     -3179.5474      -2477.5694
  -5641234.71145  -4278591.45245  23702537.2784   23702540.9584
      2032.0314       1583.4014
  -4867019.58747  -3783789.09847  20732624.0524   20732627.7904
      -889.1094       -692.8124
 98  6 30 15 51 15.0010000  0  8G10G 4G 8G 7G 5G 9G30G24
  -1170622.78744   -784539.89643  24778297.9354   24778304.8174
      2111.4844       1645.3134
   6717008.52047   5234031.30046  21913413.7864   21913417.0674
     -3234.2344      -2520.1834
  -5249141.93246    437428.26446  22017797.9814   22017801.8844
      -991.5624       -772.6464
  14791709.60943  11508325.25741  24774577.2634   24774585.6924
     -3503.2974      -2729.8424
  -8400580.61847  -5492714.16146  21412076.6224   21412079.7744
       633.7974        493.8684
   6722595.69646   5242903.77546  22453918.9274   22453922.6184
     -3188.3914      -2484.4604
  -5671692.98245  -4302325.14045  23696741.3174   23696745.3964
      2029.0634       1581.0884
  -4853600.87947  -3773332.96347  20735177.6464   20735181.5244
      -900.0314       -701.3234
 98  6 30 15 51 30.0010000  0  8G10G 4G 8G 7G 5G 9G30G24
  -1202282.08743   -809209.40842  24772274.0214   24772280.4424
      2109.6724       1643.9004
   6765586.09147   5271883.93446  21922657.7634   21922661.0794
     -3242.7664      -2526.8304
  -5234174.88146    449090.89046  22020645.9274   22020649.9114
     -1004.0784       -782.3994
  14844276.58944  11549286.63342  24784580.6854   24784586.6614
     -3505.6724      -2731.6924
  -8410030.18947  -5500077.45746  21410278.4194   21410281.7474
       626.0944        487.8654
   6770488.11146   5280222.51346  22463032.8964   22463036.4114
     -3197.2504      -2491.3644
  -5702103.65345  -4326021.74845  23690954.3724   23690958.3104
      2025.6724       1578.4464
  -4840018.42147  -3762749.22747  20737762.1304   20737765.9504
      -911.0164       -709.8824
 98  6 30 15 51 45.0010000  0  8G10G 4G 8G 7G 5G 9G30G24
  -1233911.95543   -833856.01543  24766254.3494   24766260.9354
      2107.6254       1642.3054
   6814292.46247   5309836.92746  21931926.4584   21931929.7744
     -3251.4844      -2533.6244
  -5219020.61346    460899.40246  22023530.1534   22023534.0324
     -1016.4844       -792.0664
  14896879.05044  11590275.51842  24794589.9114   24794598.2474
     -3507.9534      -2733.4704
  -8419363.97547  -5507350.54046  21408502.0674   21408505.4664
       618.4064        481.8754
   6818513.26646   5317644.68646  22472171.5834   22472175.0634
     -3206.1094      -2498.2674
  -5732462.73145  -4349678.14545  23685177.6144   23685182.6064
      2022.1884       1575.7314
  -4826269.72347  -3752035.95847  20740378.4894   20740382.3454
      -922.1094       -718.5274
 98  6 30 15 52  0.0010000  0  8G10G 4G 8G 7G 5G 9G30G24
  -1265510.19443   -858477.93443  24760241.3174   24760247.3064
      2105.6254       1640.7474
   6863130.62847   5347892.62746  21941220.0214   21941223.3134
     -3260.1564      -2540.3814
  -5203681.08846    472852.26446  22026448.9584   22026452.6964
     -1028.6094       -801.5144
  14949516.10442  11631291.28342  24804605.6534   24804615.3254
     -3510.1564      -2735.1874
  -8428581.99547  -5514533.40946  21406748.2314   21406751.7594
       610.7664        475.9214
   6866671.48346   5355170.54946  22481335.8804   22481339.8764
     -3214.8754      -2505.0974
  -5762767.99745  -4373292.61945  23679410.6464   23679414.0324
      2018.6564       1572.9794
  -4812355.09147  -3741193.38547  20743026.1854   20743030.0404
      -933.0474       -727.0504
 98  6 30 15 52 15.0010000  0  8G10G 4G 8G 7G 5G 9G30G24
  -1297079.22743   -883077.05842  24754233.8724   24754241.2124
      2103.6254       1639.1884
   6912098.05847   5386049.04246  21950538.1304   21950541.4584
     -3268.7814      -2547.1024
  -5188163.22546    484944.09646  22029401.7784   22029405.5174
     -1040.3914       -810.6944
  15002183.29143  11672330.60742  24814628.7164   24814636.5484
     -3512.0784      -2736.6844
  -8437684.79547  -5521626.50146  21405015.8564   21405019.1494
       602.9694        469.8464
   6914960.85046   5392798.60246  22490524.8174   22490528.8604
     -3223.6874      -2511.9644
  -5793020.62245  -4396866.05845  23673653.4584   23673657.1264
      2015.0314       1570.1544
  -4798276.57147  -3730223.10847  20745705.4664   20745709.3334
      -944.0944       -735.6574
 98  6 30 15 52 30.0010000  0  8G10G 4G 8G 7G 5G 9G30G24
  -1328616.97644   -907651.87442  24748232.7714   24748239.5914
      2101.5004       1637.5324
   6961193.68447   5424305.35346  21959880.8414   21959884.2164
     -3277.2814      -2553.7264
  -5172467.73846    497174.33246  22032388.7944   22032393.0134
     -1052.3284       -819.9964
  15054879.28144  11713392.41542  24824656.4814   24824663.2554
     -3514.0784      -2738.2434
  -8446670.72447  -5528628.52046  21403305.7474   21403309.0174
       595.2034        463.7954
   6963381.89546   5430529.26146  22499739.4034   22499743.1884
     -3232.4534      -2518.7954
  -5823217.76445  -4420396.28045  23667907.2394   23667911.7984
      2011.2664       1567.2204
  -4784032.35247  -3719123.72047  20748416.0994   20748419.9424
      -955.0944       -744.2294
 98  6 30 15 52 45.0010000  0  8G10G 4G 8G 7G 5G 9G30G24
  -1360124.74344   -932203.27042  24742237.1854   24742244.8764
      2099.5004       1635.9744
   7010416.25647   5462660.58346  21969247.5444   21969250.8024
     -3285.7974      -2560.3614
  -5156594.70446    509542.92046  22035409.1384   22035413.2984
     -1064.0944       -829.1644
  15107603.94243  11754476.52842  24834689.0914   24834695.8644
     -3515.8754      -2739.6434
  -8455541.15947  -5535540.54846  21401618.0674   21401621.2784
       587.5004        457.7924
   7011931.72446   5468360.27046  22508978.2084   22508982.0754
     -3240.8754      -2525.3574
  -5853358.99245  -4443882.90945  23662170.9744   23662175.5094
      2007.5634       1564.3344
  -4769625.31047  -3707897.45047  20751157.6614   20751161.4704
      -965.8594       -752.6184
 98  6 30 15 53  0.0010000  0  8G10G 4G 8G 7G 5G 9G30G24
  -1391602.80343   -956731.52342  24736246.1384   24736252.9974
      2097.5474       1634.4524
   7059768.77347   5501117.06746  21978639.1774   21978642.3294
     -3294.6094      -2567.2284
  -5140544.84346    522049.28946  22038463.3494   22038467.4154
     -1075.9224       -838.3814
  15160355.93042  11795581.92742  24844727.3964   24844738.8604
     -3517.6724      -2741.0434
  -8464294.86247  -5542361.61346  21399952.1694   21399955.2744
       579.6724        451.6924
   7060609.04846   5506290.63046  22518241.1224   22518245.1774
     -3249.4534      -2532.0414
  -5883443.58345  -4467325.42945  23656446.5674   23656450.5174
      2003.7344       1561.3514
  -4755056.15647  -3696544.86347  20753929.9194   20753933.7044
      -976.6724       -761.0434
 98  6 30 15 53 15.0020000  0  8G10G 4G 8G 7G 5G 9G30G24
  -1423052.03343   -981237.30642  24730262.5334   24730270.0024
      2095.4844       1632.8454
   7109259.37647   5539681.15046  21988056.6664   21988059.8184
     -3303.6414      -2574.2654
  -5124315.57546    534695.46846  22041551.4864   22041555.3544
     -1087.7664       -847.6104
  15213139.61943  11836712.04542  24854771.7444   24854778.5884
     -3519.6414      -2742.5774
  -8472930.44147  -5549090.63246  21398308.8934   21398312.3384
       571.7344        445.5074
   7109417.57046   5544323.21946  22527529.1504   22527533.1114
     -3257.8124      -2538.5554
  -5913472.99845  -4490724.94645  23650732.3464   23650736.5884
      1999.9384       1558.3934
  -4740323.57347  -3685064.92747  20756733.5964   20756737.4044
      -987.5164       -769.4934
 98  6 30 15 53 30.0020000  0  8G10G 4G 8G 7G 5G 9G30G24
  -1454467.82044  -1005717.09842  24724283.5964   24724288.1194
      2093.4224       1631.2384
   7158882.38747   5578348.40946  21997499.6434   21997502.9004
     -3312.6564      -2581.2914
  -5107907.31346    547481.11746  22044674.0644   22044677.9204
     -1099.9224       -857.0824
  15265950.23143  11877863.10342  24864821.5414   24864828.5184
     -3521.5944      -2744.0994
  -8481447.16647  -5555727.04046  21396688.0254   21396691.6704
       563.9694        439.4564
   7158347.51546   5582450.42546  22536840.2684   22536844.3814
     -3266.0944      -2545.0084
  -5943442.32145  -4514077.64445  23645029.5884   23645034.1464
      1996.0474       1555.3614
  -4725429.16047  -3673458.89347  20759567.6044   20759571.2834
      -998.3124       -777.9064
 98  6 30 15 53 45.0020000  0  8G10G 4G 8G 7G 5G 9G30G24
  -1485854.15144  -1030173.84842  24718310.9394   24718317.5844
      2091.5004       1629.7404
   7208637.63147   5617118.70846  22006967.8774   22006971.2054
     -3321.2974      -2588.0244
  -5091315.27246    560409.96846  22047831.4244   22047835.3734
     -1112.2814       -866.7134
  15318786.99943  11919034.53442  24874876.1044   24874881.2484
     -3523.2504      -2745.3904
  -8489848.99347  -5562273.91446  21395089.3854   21395092.6434
       556.3594        433.5274
   7207402.02346   5620674.69646  22546175.0574   22546179.2404
     -3274.4534      -2551.5224
  -5973353.28645  -4537384.84445  23639337.1354   23639341.2254
      1992.1724       1552.3424
  -4710373.51147  -3661727.21547  20762432.7834   20762436.3464
     -1009.0624       -786.2824
 98  6 30 15 54  0.0020000  0  8G10G 4G 8G 7G 5G 9G30G24
  -1517211.75844  -1054608.25643  24712344.1974   24712350.0684
      2089.6564       1628.3044
   7258523.57047   5655990.84446  22016460.6974   22016463.8144
     -3330.1094      -2594.8904
  -5074536.99346    573483.93946  22051024.3224   22051028.2954
     -1124.7344       -876.4164
  15371649.43244  11960225.96042  24884936.9004   24884943.6044
     -3525.0164      -2746.7654
  -8498135.68847  -5568731.07646  21393512.5024   21393515.8184
       548.6094        427.4884
   7256582.27446   5658996.94046  22555533.8934   22555538.0184
     -3282.8284      -2558.0484
  -6003206.10545  -4560646.75845  23633656.3694   23633660.5534
      1988.2344       1549.2744
  -4695156.00547  -3649869.41947  20765328.6744   20765332.2834
     -1019.8284       -794.6714
 98  6 30 15 54 15.0020000  0  8G10G 4G 8G 7G 5G 9G30G24
  -1548545.12643  -1079023.74242  24706381.0334   24706386.4124
      2088.0474       1627.0504
   7308538.61747   5694963.59146  22025978.6194   22025982.0184
     -3338.6414      -2601.5384
  -5057573.47046    586702.25446  22054252.1974   22054256.0644
     -1137.1564       -886.0964
  15424539.30344  12001438.80342  24895001.1504   24895007.9594
     -3527.0474      -2748.3484
  -8506308.32547  -5575099.36846  21391957.3464   21391960.6864
       541.0314        421.5834
   7305885.39046   5697414.93146  22564915.7054   22564919.6314
     -3290.9844      -2564.4034
  -6033000.74345  -4583863.32245  23627987.0804   23627991.1464
      1984.3284       1546.2304
  -4679780.18447  -3637888.26247  20768254.6274   20768258.3654
     -1030.4064       -802.9144
 98  6 30 15 54 30.0020000  0  8G10G 4G 8G 7G 5G 9G30G24
  -1579851.03244  -1103417.85443  24700424.4164   24700430.9674
      2086.1884       1625.6014
   7358684.43047   5734038.22446  22035520.8384   22035524.2254
     -3347.3284      -2608.3084
  -5040419.28246    600069.13946  22057516.7294   22057520.7134
     -1149.9694       -896.0804
  15477463.14143  12042678.15242  24905071.4474   24905076.7914
     -3529.3914      -2750.1754
  -8514366.54347  -5581378.49346  21390423.9474   21390427.4634
       533.5474        415.7514
   7355312.51046   5735929.54646  22574321.6274   22574325.8464
     -3299.1414      -2570.7594
  -6062734.95645  -4607032.82645  23622328.1504   23622332.6154
      1980.3594       1543.1374
  -4664242.70447  -3625781.13347  20771211.2294   20771214.9904
     -1041.0784       -811.2304
 98  6 30 15 54 45.0020000  0  8G10G 4G 8G 7G 5G 9G30G24
  -1611129.75544  -1127790.78443  24694472.3384   24694478.7484
      2084.2664       1624.1034
   7408958.11647   5773212.49946  22045087.5724   22045090.8654
     -3355.8284      -2614.9314
  -5023073.24946    613585.52046  22060817.4864   22060821.3304
     -1162.8124       -906.0884
  15530421.68643  12083944.47842  24915148.2444   24915154.0574
     -3531.7814      -2752.0374
  -8522314.39647  -5587571.61946  21388911.5724   21388914.9714
       526.1254        409.9684
   7404859.84346   5774537.83446  22583750.0574   22583754.1234
     -3307.2034      -2577.0414
  -6092411.32945  -4630157.22745  23616681.3544   23616685.3144
      1976.4384       1540.0814
  -4648549.18247  -3613552.41547  20774197.3934   20774201.0964
     -1051.4224       -819.2904
 98  6 30 15 55  0.0020000  0  8G10G 4G 8G 7G 5G 9G30G24
  -1642378.72144  -1152140.51843  24688524.7444   24688531.2714
      2082.3134       1622.5814
   7459359.14647   5812486.01046  22054678.8144   22054682.1894
     -3364.2194      -2621.4694
  -5005535.72546    627251.11146  22064154.8614   22064158.7754
     -1175.4844       -915.9624
  15583415.91744  12125238.72542  24925234.7684   24925243.3144
     -3534.0784      -2753.8274
  -8530151.25347  -5593678.26446  21387419.8694   21387423.2444
       518.8754        404.3184
   7454529.48946   5813241.42946  22593201.7994   22593205.9364
     -3315.4534      -2583.4704
  -6122028.36945  -4653235.42345  23611045.4084   23611049.2524
      1972.6094       1537.0984
  -4632700.36647  -3601202.68847  20777213.6194   20777217.3344
     -1061.7034       -827.3014
 98  6 30 15 55 15.0020000  0  8G10G 4G 8G 7G 5G 9G30G24
  -1673598.25344  -1176467.34643  24682583.9164   24682590.3384
      2080.3134       1621.0234
   7509883.81947   5851855.85646  22064293.2444   22064296.7954
     -3372.3594      -2627.8124
  -4987806.57046    641066.02346  22067528.6354   22067532.2444
     -1188.3594       -925.9944
  15636446.16844  12166560.88842  24935326.0574   24935332.1394
     -3536.5474      -2755.7514
  -8537880.88147  -5599701.34546  21385949.2914   21385952.5964
       511.7814        398.7914
   7504324.08346   5852042.38046  22602677.5804   22602681.7994
     -3323.7664      -2589.9474
  -6151589.37845  -4676269.93545  23605419.7294   23605424.2294
      1968.8754       1534.1884
  -4616695.96047  -3588731.72747  20780258.8934   20780262.7364
     -1072.1724       -835.4594
 98  6 30 15 55 30.0020000  0  8G10G 4G 8G 7G 5G 9G30G24
  -1704788.67044  -1200771.46542  24676649.0644   24676653.6934
      2078.5474       1619.6474
   7560528.20847   5891318.99546  22073930.3144   22073933.7954
     -3380.0314      -2633.7914
  -4969885.38146    655030.56746  22070938.5574   22070942.5294
     -1201.0004       -935.8444
  15689514.42943  12207912.74242  24945423.9244   24945430.6044
     -3539.0624      -2757.7114
  -8545504.04047  -5605641.46846  21384498.4324   21384501.9244
       504.7974        393.3484
   7554243.13346   5890940.32046  22612176.7834   22612181.0374
     -3331.9844      -2596.3514
  -6181093.27245  -4699259.95545  23599805.5724   23599809.7914
      1965.1094       1531.2544
  -4600533.92847  -3576137.93547  20783334.7134   20783338.3694
     -1082.6094       -843.5924
 98  6 30 15 55 45.0020000  0  8G10G 4G 8G 7G 5G 9G30G24
  -1735952.92045  -1225055.18043  24670718.9004   24670725.4634
      2076.8134       1618.2954
   7611285.90047   5930870.41746  22083589.0804   22083592.8074
     -3387.5164      -2639.6234
  -4951773.24846    669143.90746  22074385.4864   22074389.2714
     -1213.7344       -945.7674
  15742617.38744  12249291.62343  24955529.2834   24955534.8614
     -3541.1094      -2759.3064
  -8553022.38947  -5611499.91646  21383068.1114   21383071.4164
       497.7974        387.8944
   7604285.32046   5929934.20646  22621699.5724   22621703.6394
     -3340.1874      -2602.7444
  -6210542.00645  -4722206.99845  23594202.0964   23594206.7604
      1961.5474       1528.4784
  -4584216.80647  -3563423.29547  20786439.6974   20786443.3654
     -1092.8914       -851.6034
 98  6 30 15 56  0.0020000  0  8G10G 4G 8G 7G 5G 9G30G24
  -1767088.68345  -1249316.75643  24664793.9794   24664800.3304
      2074.6414       1616.6034
   7662156.02147   5970509.44746  22093269.6274   22093273.2364
     -3395.2194      -2645.6254
  -4933471.25746    683405.18846  22077868.1894   22077872.1394
     -1226.4374       -955.6664
  15795751.14344  12290694.51442  24965639.4714   24965645.9634
     -3543.4064      -2761.0964
  -8560435.31947  -5617276.22147  21381657.2754   21381660.6274
       490.6564        382.3304
   7654451.31746   5969024.56446  22631245.7834   22631249.6044
     -3348.5474      -2609.2574
  -6239937.18546  -4745112.30045  23588608.6274   23588612.8114
      1957.8444       1525.5934
  -4567744.11847  -3550587.44347  20789574.2054   20789577.8854
     -1103.4374       -859.8214
 98  6 30 15 56 15.0020000  0  8G10G 4G 8G 7G 5G 9G30G24
  -1798191.49544  -1273552.61243  24658874.5964   24658881.3574
      2072.3444       1614.8134
   7713143.68447   6010240.07846  22102972.3144   22102975.7364
     -3403.1564      -2651.8104
  -4914979.14646    697814.60746  22081387.2214   22081391.0294
     -1239.2344       -965.6374
  15848920.10843  12332124.83642  24975757.7054   24975762.2644
     -3545.8284      -2762.9834
  -8567742.13747  -5622969.84247  21380266.7524   21380270.3964
       483.6094        376.8384
   7704742.32546   6008212.33546  22640816.1504   22640820.2994
     -3356.9694      -2615.8204
  -6269277.13845  -4767974.57445  23583024.7444   23583028.4124
      1954.0944       1522.6704
  -4551113.43647  -3537628.46747  20792739.1824   20792743.0024
     -1114.0164       -868.0644
 98  6 30 15 56 30.0020000  0  7G10G 4G 8G 5G 9G30G24
  -1829261.05444  -1297762.53742  24652962.1824   24652968.1354
      2070.1884       1613.1334
   7764248.18847   6050061.74646  22112697.2834   22112700.8464
     -3410.8284      -2657.7884
  -4896296.23846    712372.71046  22084942.5184   22084946.7484
     -1251.8284       -975.4504
  -8574944.53147  -5628582.09546  21378896.3614   21378899.9474
       476.6564        371.4204
   7755159.33246   6047498.29046  22650409.9554   22650413.9514
     -3365.3284      -2622.3344
  -6298562.42645  -4790794.25145  23577452.0334   23577455.9364
      1950.6094       1519.9554
  -4534324.21647  -3524545.95847  20795933.8694   20795937.5494
     -1124.6254       -876.3314
 98  6 30 15 56 45.0020000  0  7G10G 4G 8G 5G 9G30G24
  -1860297.07445  -1321946.37343  24647056.3934   24647062.5684
      2067.9844       1611.4164
   7815469.04747   6089974.08346  22122444.1584   22122447.8734
     -3418.6254      -2663.8644
  -4877424.85646    727077.67246  22088533.3464   22088537.4944
     -1264.3124       -985.1794
  -8582040.39247  -5634111.33147  21377545.9324   21377549.4244
       469.3914        365.7594
   7805702.72846   6086882.72846  22660027.8304   22660031.7214
     -3373.7344      -2628.8844
  -6327794.72545  -4813572.63345  23571889.2994   23571892.9554
      1947.0004       1517.1434
  -4517374.57647  -3511338.44647  20799159.3854   20799163.1824
     -1135.2974       -884.6474
 98  6 30 15 57  0.0020000  0  7G10G 4G 8G 5G 9G30G24
  -1891302.48145  -1346106.32243  24641155.7524   24641162.9284
      2066.1254       1609.9684
   7866807.46247   6129978.02546  22132213.5104   22132217.0844
     -3426.5164      -2670.0124
  -4858367.92346    741927.21846  22092159.9944   22092164.2954
     -1276.5624       -994.7244
  -8589027.11247  -5639555.52646  21376216.5254   21376220.0184
       462.2034        360.1584
   7856371.53946   6126364.89846  22669670.0254   22669674.0104
     -3382.0784      -2635.3864
  -6356972.68546  -4836308.68145  23566336.5964   23566340.4984
      1943.4534       1514.3794
  -4500266.16547  -3498007.22147  20802415.1194   20802418.7054
     -1145.8124       -892.8414
 98  6 30 15 57 15.0020000  0  7G10G 4G 8G 5G 9G30G24
  -1922280.60745  -1370245.07542  24635261.2134   24635267.0024
      2064.2344       1608.4944
   7918266.82447   6170076.20846  22142005.8614   22142009.4594
     -3434.7034      -2676.3924
  -4839127.75946    756919.53446  22095821.3694   22095825.4004
     -1288.7814      -1004.2454
  -8595905.95547  -5644915.65847  21374907.3934   21374910.8734
       454.9534        354.5094
   7907165.38546   6165944.48646  22679336.0414   22679339.9084
     -3390.3754      -2641.8514
  -6386097.07946  -4859002.98445  23560794.1354   23560797.9794
      1939.8284       1511.5544
  -4482998.11847  -3484551.60247  20805700.9634   20805704.5724
     -1156.5474       -901.2054
 98  6 30 15 57 30.0020000  0  7G10G 4G 8G 5G 9G30G24
  -1953229.43044  -1394360.91043  24629371.9084   24629378.4714
      2062.3444       1607.0214
   7969848.71847   6210269.87146  22151821.6114   22151825.3384
     -3442.8914      -2682.7724
  -4819705.82846    772053.49646  22099517.1974   22099521.0644
     -1300.7344      -1013.5594
  -8602674.72847  -5650190.02147  21373619.2054   21373622.7324
       447.5474        348.7384
   7958080.93746   6205618.91246  22689024.8694   22689029.0064
     -3398.2814      -2648.0114
  -6415166.57846  -4881654.51645  23555262.5964   23555266.8504
      1936.0944       1508.6444
  -4465569.56647  -3470970.91347  20809017.5184   20809021.1394
     -1167.1874       -909.4974
 98  6 30 15 57 45.0020000  0  7G10G 4G 8G 5G 9G30G24
  -1984147.65945  -1418452.94543  24623487.6194   24623495.3934
      2060.0474       1605.2314
   8021555.56847   6250560.90646  22161661.2054   22161664.8854
     -3451.3594      -2689.3714
  -4800105.08346    787326.78746  22103247.0804   22103250.8544
     -1312.7344      -1022.9104
  -8609330.46547  -5655376.30747  21372352.7994   21372356.4084
       439.8914        342.7724
   8009115.69746   6245386.23146  22698736.6974   22698740.7524
     -3406.2974      -2654.2574
  -6444177.55946  -4904260.44345  23549742.5644   23549746.8774
      1932.0474       1505.4914
  -4447980.77547  -3457265.36347  20812364.6114   20812368.3854
     -1177.9224       -917.8614
 98  6 30 15 58  0.0020000  0  7G10G 4G 8G 5G 9G30G24
  -2015029.24744  -1442516.45343  24617610.8774   24617617.2644
      2057.5634       1603.2954
   8073391.51647   6290952.52746  22171525.4084   22171529.0534
     -3460.0474      -2696.1404
  -4780324.37846    802740.31046  22107011.2684   22107015.2174
     -1324.5944      -1032.1514
  -8615870.45047  -5660472.39347  21371108.3144   21371111.9244
       432.1254        336.7214
   8060270.16646   6285246.82846  22708471.0254   22708474.9514
     -3414.2974      -2660.4914
  -6473126.42946  -4926817.97245  23544233.6664   23544238.1894
      1927.7504       1502.1434
  -4430230.30247  -3443433.82747  20815742.4084   20815746.3114
     -1188.7974       -926.3354
 98  6 30 15 58 15.0020000  0  7G10G 4G 8G 5G 9G30G24
  -2045876.52245  -1466553.20443  24611740.9554   24611747.3074
      2055.4384       1601.6404
   8125354.82047   6331443.39246  22181413.6974   22181417.3654
     -3468.4694      -2702.7034
  -4760369.89646    818289.24346  22110808.5254   22110812.4284
     -1336.0944      -1041.1124
  -8622295.11447  -5665478.62247  21369885.7834   21369889.0764
       424.3594        330.6704
   8111543.15746   6325199.78246  22718227.9164   22718231.8304
     -3422.1564      -2666.6154
  -6502010.37446  -4949324.91345  23538737.1744   23538740.8894
      1923.3754       1498.7344
  -4412318.60147  -3429476.65947  20819150.8614   20819154.7404
     -1199.4844       -934.6634
 98  6 30 15 58 30.0020000  0  7G10G 4G 8G 5G 9G30G24
  -2076690.93245  -1490564.37043  24605877.2834   24605882.5574
      2053.1254       1599.8384
   8177445.81547   6372033.75646  22191326.1274   22191329.7484
     -3477.0624      -2709.3994
  -4740239.77046    833975.03646  22114639.1584   22114642.9674
     -1348.0004      -1050.3904
  -8628598.50847  -5670390.35247  21368686.3384   21368689.8184
       416.0004        324.1564
   8162936.67446   6365246.64746  22728007.8544   22728011.9904
     -3430.3594      -2673.0074
  -6530827.38146  -4971779.70645  23533253.2444   23533257.4634
      1918.8284       1495.1914
  -4394244.24647  -3415392.74747  20822590.4474   20822594.4084
     -1210.5314       -943.2714
 98  6 30 15 58 45.0020000  0  7G10G 4G 8G 5G 9G30G24
  -2107471.13244  -1514548.82843  24600019.7054   24600027.1744
      2050.9844       1598.1704
   8229665.14547   6412724.11646  22201263.1744   22201266.7714
     -3485.3914      -2715.8894
  -4719932.74546    849798.67846  22118503.3934   22118507.2604
     -1359.5004      -1059.3514
  -8634776.03247  -5675204.00147  21367510.6504   21367514.3074
       407.7974        317.7644
   8214452.08346   6405388.49646  22737810.6824   22737814.6434
     -3438.2344      -2679.1444
  -6559576.03846  -4994181.22445  23527782.9554   23527786.4364
      1914.4064       1491.7454
  -4376004.35547  -3401179.84547  20826061.3774   20826065.2794
     -1221.2974       -951.6604
 98  6 30 15 59  0.0020000  0  7G10G 4G 8G 5G 9G30G24
  -2138217.45344  -1538506.95343  24594169.1354   24594176.4634
      2048.6254       1596.3314
   8282010.45347   6453512.64646  22211224.0964   22211227.7754
     -3493.8594      -2722.4884
  -4699452.79646    865757.06346  22122400.6824   22122404.5724
     -1371.1094      -1068.3974
  -8640830.78147  -5679921.98247  21366358.4474   21366361.9754
       399.5944        311.3724
   8266085.54846   6445622.34246  22747636.0184   22747640.2954
     -3446.1414      -2685.3044
  -6588255.82846  -5016529.08345  23522325.0884   23522328.6044
      1909.6884       1488.0684
  -4357604.14347  -3386842.02447  20829562.4794   20829566.3224
     -1231.9224       -959.9394
 98  6 30 15 59 15.0020000  0  7G10G 4G 8G 5G 9G30G24
  -2168926.74944  -1562436.18243  24588325.1504   24588331.5374
      2046.0004       1594.2864
   8334481.64747   6494399.26846  22221209.1354   22221212.9434
     -3502.1564      -2728.9534
  -4678796.70946    881852.70346  22126331.5414   22126335.5614
     -1382.9374      -1077.6144
  -8646762.32847  -5684543.96547  21365229.7994   21365233.3734
       391.3754        304.9684
   8317839.18146   6485949.81846  22757484.5804   22757489.0684
     -3454.2034      -2691.5874
  -6616866.07446  -5038822.75145  23516880.5334   23516884.5534
      1905.0784       1484.4764
  -4339045.19947  -3372380.51047  20833094.2364   20833097.9284
     -1242.5474       -968.2184
 98  6 30 15 59 30.0020000  0  7G10G 4G 8G 5G 9G30G24
  -2199596.62144  -1586334.71943  24582488.8544   24582495.1704
      2043.3754       1592.2404
   8387072.43447   6535379.08146  22231216.8144   22231220.4594
     -3509.8444      -2734.9434
  -4657964.59446    898085.50546  22130295.7444   22130299.9284
     -1394.7034      -1086.7824
  -8652571.43047  -5689070.52947  21364124.3464   21364127.7794
       383.1884        298.5884
   8369710.27046   6526368.82346  22767355.6194   22767359.9324
     -3461.9224      -2697.6014
  -6645407.55346  -5061062.85045  23511449.8384   23511453.7994
      1900.5474       1480.9464
  -4320327.88147  -3357795.58447  20836656.1974   20836660.0064
     -1253.0004       -976.3644
 98  6 30 15 59 45.0020000  0  7G10G 4G 8G 5G 9G30G24
  -2230227.73944  -1610203.05543  24576660.1974   24576667.0414
      2040.7034       1590.1584
   8439779.50647   6576449.50646  22241246.9394   22241250.7014
     -3517.8754      -2741.2014
  -4636952.85046    914458.28146  22134294.0884   22134298.0494
     -1406.9694      -1096.3394
  -8658256.76147  -5693500.65247  21363042.6194   21363046.2054
       374.7974        292.0504
   8421698.69346   6566879.25246  22777248.6974   22777252.7754
     -3469.9534      -2703.8604
  -6673881.11846  -5083250.01345  23506030.6744   23506034.8224
      1895.8914       1477.3174
  -4301453.37447  -3343088.18047  20840247.8144   20840251.4594
     -1263.6414       -984.6554
 98  6 30 16  0  0.0020000  0  7G10G 4G 8G 5G 9G30G24
  -2260820.02745  -1634041.11344  24570838.7134   24570846.5574
      2038.3444       1588.3204
   8492603.89947   6617611.34646  22251299.1194   22251302.5184
     -3525.3444      -2747.0214
  -4615758.15046    930973.61846  22138326.8144   22138331.0104
     -1418.9694      -1105.6904
  -8663818.34847  -5697834.35347  21361984.0334   21361987.4674
       366.7664        285.7914
   8473806.93546   6607483.04746  22787164.2214   22787168.2874
     -3477.8124      -2709.9844
  -6702288.72646  -5105385.78645  23500625.2294   23500629.1894
      1891.8444       1474.1644
  -4282423.42547  -3328259.64947  20843869.2364   20843872.9394
     -1273.6724       -992.4724
 98  6 30 16  0 15.0020000  0  7G10G 4G 8G 5G 9G30G24
  -2291377.30644  -1657851.95043  24565023.8694   24565030.1974
      2036.0164       1586.5064
   8545542.00947   6658861.79846  22261372.7834   22261376.4044
     -3533.0164      -2752.9994
  -4594380.79246    947631.27946  22142395.3464   22142399.3654
     -1431.3124      -1115.3084
  -8669256.43247  -5702071.81847  21360949.1894   21360952.7754
       358.3594        279.2414
   8526035.30546   6648180.45446  22797103.1044   22797107.4864
     -3485.9374      -2716.3154
  -6730635.03946  -5127473.79345  23495230.5724   23495234.4634
      1887.7344       1470.9624
  -4263241.39147  -3313312.61847  20847519.2524   20847522.9204
     -1283.8594      -1000.4104
 98  6 30 16  0 30.0020000  0  7G10G 4G 8G 5G 9G30G24
  -2321900.69344  -1681636.33643  24559214.6894   24559221.1464
      2033.7344       1584.7284
   8598594.64647   6700201.49846  22271468.5334   22271471.9554
     -3540.7194      -2759.0024
  -4572817.26046    964434.03046  22146498.9004   22146502.8384
     -1443.8914      -1125.1104
  -8674568.94747  -5706211.43147  21359938.2214   21359941.7134
       349.9694        272.7034
   8578383.83946   6688971.49046  22807064.7994   22807069.0184
     -3493.8444      -2722.4764
  -6758922.01946  -5149515.57445  23489847.8464   23489851.4554
      1883.8754       1467.9554
  -4243909.16347  -3298248.53846  20851198.2994   20851202.0964
     -1293.8124      -1008.1664
 98  6 30 16  0 45.0020000  0  7G10G 4G 8G 5G 9G30G24
  -2352390.31245  -1705394.36543  24553413.6894   24553421.0884
      2031.4844       1582.9754
   8651762.91247   6741631.28946  22281585.9554   22281589.7644
     -3548.5004      -2765.0654
  -4551065.10646    981383.74146  22150638.0414   22150642.0144
     -1456.4224      -1134.8744
  -8679758.70147  -5710255.39247  21358950.5644   21358953.9284
       341.9384        266.4454
   8630849.16346   6729853.53646  22817048.6354   22817052.7254
     -3501.5314      -2728.4664
  -6787151.94046  -5171512.88245  23484476.0024   23484480.1624
      1880.0164       1464.9474
  -4224428.12247  -3283068.51147  20854905.2054   20854908.7324
     -1303.6724      -1015.8484
 98  6 30 16  1  0.0020000  0  7G10G 4G 8G 5G 9G30G24
  -2382846.88544  -1729126.71144  24547617.3304   24547624.1744
      2029.2504       1581.2344
   8705048.33547   6783152.37846  22291725.7294   22291729.1394
     -3556.3914      -2771.2134
  -4529127.10246    998478.28146  22154812.7604   22154816.9674
     -1468.8124      -1144.5294
  -8684829.45147  -5714206.62447  21357985.7754   21357989.2094
       334.0164        260.2724
   8683427.91646   6770823.96846  22827054.0024   22827057.8574
     -3509.0944      -2734.3594
  -6815323.70146  -5193464.87345  23479115.2214   23479119.0064
      1876.1254       1461.9164
  -4204802.28147  -3267775.65147  20858640.1434   20858643.8344
     -1313.2664      -1023.3244
 98  6 30 16  1 15.0020000  0  7G10G 4G 8G 5G 9G30G24
  -2413271.55445  -1752834.20144  24541828.0334   24541833.4004
      2027.2194       1579.6514
   8758451.41847   6824765.14346  22301888.0804   22301891.4554
     -3564.1414      -2777.2524
  -4507003.54846   1015717.40446  22159022.5334   22159026.5764
     -1481.1254      -1154.1234
  -8689782.37647  -5718066.04547  21357043.3774   21357046.7644
       326.2194        254.1964
   8736117.49746   6811880.75146  22837080.6434   22837084.8614
     -3516.3124      -2739.9844
  -6843440.25546  -5215373.85045  23473764.6044   23473768.5534
      1872.6414       1459.2004
  -4185032.36247  -3252370.51947  20862401.9554   20862405.7524
     -1322.8444      -1030.7874
 98  6 30 16  1 30.0020000  0  7G10G 4G 8G 5G 9G30G24
  -2443663.23744  -1776516.00643  24536044.7134   24536049.8464
      2025.0784       1577.9834
   8811973.51347   6866470.64146  22312073.1584   22312076.6744
     -3572.1094      -2783.4624
  -4484693.54146   1033101.81546  22163268.1664   22163271.9514
     -1493.5624      -1163.8154
  -8694616.63247  -5721832.99347  21356123.4084   21356126.7954
       318.3594        248.0724
   8788916.45846   6853022.77946  22847127.7684   22847132.0454
     -3523.5004      -2745.5844
  -6871501.93046  -5237240.06745  23468424.9944   23468428.8964
      1868.8914       1456.2784
  -4165114.60547  -3236850.19446  20866192.2604   20866196.1624
     -1332.8594      -1038.5924
 98  6 30 16  1 45.0020000  0  7G10G 4G 8G 5G 9G30G24
  -2474022.84344  -1800172.72643  24530266.1504   24530272.0454
      2022.7664       1576.1814
   8865616.18947   6908270.10346  22322280.8694   22322284.4324
     -3580.4064      -2789.9274
  -4462197.21946   1050631.40646  22167549.0574   22167552.9594
     -1506.0164      -1173.5194
  -8699331.96247  -5725507.27347  21355226.0724   21355229.5414
       310.2504        241.7534
   8841823.39846   6894248.93846  22857195.7684   22857199.8934
     -3530.9224      -2751.3684
  -6899506.15546  -5259061.52145  23463095.2754   23463099.3774
      1864.9384       1453.1984
  -4145045.58047  -3221211.99347  20870011.0334   20870014.7954
     -1343.1254      -1046.5914
 98  6 30 16  2  0.0020000  0  7G10G 4G 8G 5G 9G30G24
  -2504348.34945  -1823802.98843  24524496.2134   24524503.1314
      2020.5784       1574.4764
   8919383.19747   6950166.44946  22332512.4324   22332516.2174
     -3588.5004      -2796.2344
  -4439517.77746   1068303.68146  22171864.8074   22171868.6394
     -1517.9064      -1182.7844
  -8703927.26547  -5729088.02647  21354351.7684   21354355.2604
       302.4064        235.6414
   8894840.96146   6935561.29846  22867284.5334   22867288.6934
     -3538.1094      -2756.9684
  -6927451.99546  -5280837.47145  23457777.7914   23457781.6464
      1861.1254       1450.2274
  -4124822.82247  -3205454.00246  20873859.6274   20873863.5534
     -1353.2814      -1054.5054
 98  6 30 16  2 15.0020000  0  7G10G 4G 8G 5G 9G30G24
  -2534640.75045  -1847407.34444  24518731.6824   24518738.2094
      2018.3754       1572.7604
   8973269.51047   6992155.74946  22342766.7214   22342770.1784
     -3596.4224      -2802.4074
  -4416660.62746   1086114.43946  22176214.2524   22176217.8734
     -1529.7814      -1192.0374
  -8708403.89947  -5732576.30847  21353499.7294   21353503.1744
       294.4844        229.4684
   8947966.79646   6976958.02246  22877394.3384   22877398.4044
     -3545.3444      -2762.6064
  -6955338.65246  -5302567.30245  23452470.6664   23452475.0254
      1857.0004       1447.0134
  -4104446.70147  -3189576.50746  20877736.9474   20877740.8034
     -1363.6724      -1062.6014
 98  6 30 16  2 30.0020000  0  7G10G 4G 8G 5G 9G30G24
  -2564898.77645  -1870985.01144  24512974.0184   24512979.9714
      2016.0164       1570.9214
   9027275.79247   7034238.53546  22353043.6824   22353047.3264
     -3604.3594      -2808.5924
  -4393624.75246   1104064.45846  22180597.9164   22180601.7134
     -1541.5784      -1201.2304
  -8712762.14447  -5735972.34247  21352670.3854   21352673.8774
       286.7034        223.4054
   9001199.89546   7018438.33546  22887524.1194   22887528.5254
     -3552.3754      -2768.0844
  -6983162.07946  -5324247.87745  23447176.3934   23447180.1784
      1852.8134       1443.7504
  -4083911.98047  -3173575.42647  20881644.5574   20881648.2834
     -1374.2814      -1070.8694
 98  6 30 16  2 45.0020000  0  7G10G 4G 8G 5G 9G30G24
  -2595120.13345  -1894534.06243  24507222.4714   24507227.8384
      2013.4534       1568.9254
   9081399.92647   7076413.16246  22363343.1044   22363346.6314
     -3612.2344      -2814.7284
  -4370412.87546   1122151.62646  22185015.1194   22185019.1044
     -1553.3754      -1210.4224
  -8717006.07047  -5739279.29147  21351862.9324   21351866.3304
       279.1414        217.5124
   9054539.31646   7060001.49646  22897674.3854   22897678.7324
     -3559.6254      -2773.7344
  -7010921.64746  -5345878.67945  23441894.0334   23441897.4084
      1848.4064       1440.3174
  -4063216.65147  -3157449.20447  20885582.8074   20885586.5574
     -1385.2034      -1079.3794
 98  6 30 16  3  0.0020000  0  7G10G 4G 8G 5G 9G30G24
  -2625302.97545  -1918053.10643  24501478.5334   24501485.1784
      2010.9224       1566.9524
   9135640.42947   7118678.45746  22373665.0804   22373668.8654
     -3619.7344      -2820.5724
  -4347024.75846   1140376.12646  22189465.5184   22189469.6894
     -1564.9374      -1219.4324
  -8721137.37847  -5742498.49247  21351076.8074   21351080.0414
       271.7194        211.7294
   9107988.32246   7101650.04846  22907845.4944   22907849.8774
     -3566.8124      -2779.3344
  -7038614.69946  -5367457.65145  23436624.5804   23436628.4124
      1844.0784       1436.9444
  -4042357.64247  -3141195.42947  20889552.2054   20889555.9434
     -1395.8914      -1087.7074
 98  6 30 16  3 15.0020000  0  7G10G 4G 8G 5G 9G30G24
  -2655444.53345  -1941539.99244  24495743.2834   24495749.6584
      2007.9064       1564.6024
   9189992.08747   7161030.37146  22384007.8464   22384011.4204
     -3627.1094      -2826.3194
  -4323462.50546   1158736.31246  22193949.3934   22193953.5414
     -1576.7664      -1228.6494
  -8725156.21847  -5745630.05147  21350312.0494   21350315.3184
       264.1094        205.8004
   9161546.77446   7143383.88046  22918037.3074   22918041.5724
     -3574.3444      -2785.2034
  -7066242.63646  -5388985.90345  23431366.8224   23431370.3264
      1839.5634       1433.4254
  -4021336.65047  -3124815.43947  20893552.1274   20893555.7954
     -1407.0004      -1096.3644
 98  6 30 16  3 30.0020000  0  7G10G 4G 8G 5G 9G30G24
  -2685541.53144  -1964992.16644  24490015.7364   24490023.0184
      2005.0004       1562.3384
   9244450.67847   7203465.60446  22394371.0724   22394374.7054
     -3634.0314      -2831.7134
  -4299723.02946   1177234.59346  22198466.8384   22198470.8224
     -1588.5314      -1237.8174
  -8729061.66947  -5748673.25947  21349568.6744   21349571.9434
       256.5944        199.9434
   9215218.66546   7185206.10146  22928250.8144   22928255.3854
     -3581.9374      -2791.1204
  -7093801.37146  -5410460.21245  23426122.4084   23426126.5574
      1834.8914       1429.7854
  -4000149.54047  -3108306.00646  20897584.2754   20897587.8734
     -1417.9224      -1104.8744
 98  6 30 16  3 45.0020000  0  7G10G 4G 8G 5G 9G30G24
  -2715595.98345  -1988411.14044  24484296.6114   24484302.4944
      2002.2974       1560.2314
   9299010.65847   7245979.84946  22404753.3544   22404756.9864
     -3640.5314      -2836.7784
  -4275806.55046   1195870.80046  22203017.8854   22203021.9514
     -1600.2814      -1246.9724
  -8732854.61747  -5751628.79647  21348846.9084   21348850.1894
       249.1254        194.1234
   9269005.59846   7227117.97146  22938485.9324   22938490.0214
     -3589.6724      -2797.1474
  -7121290.39946  -5431880.21145  23420891.8384   23420895.2604
      1830.3754       1426.2664
  -3978799.29047  -3091669.45147  20901646.9794   20901650.6934
     -1428.7194      -1113.2874
 98  6 30 16  4  0.0020000  0  7G10G 4G 8G 5G 9G30G24
  -2745608.93845  -2011797.85643  24478585.6044   24478593.9514
      1999.5314       1558.0764
   9353666.57347   7288568.85046  22415154.0104   22415157.7834
     -3646.8594      -2841.7094
  -4251714.59146   1214643.74346  22207602.4554   22207606.2874
     -1611.9224      -1256.0434
  -8736535.25947  -5754496.82847  21348146.6584   21348149.7994
       241.6884        188.3284
   9322909.65846   7269121.10246  22948743.7524   22948747.9004
     -3597.4844      -2803.2354
  -7148713.90646  -5453249.15445  23415672.9084   23415676.8224
      1826.0944       1422.9304
  -3957288.12147  -3074907.50147  20905740.2444   20905743.8544
     -1439.3754      -1121.5914
 98  6 30 16  4 15.0020000  0  7G10G 4G 8G 5G 9G30G24
  -2775581.86444  -2035153.35243  24472881.4244   24472887.8114
      1996.8914       1556.0194
   9408416.79547   7331231.33746  22425572.5884   22425576.2684
     -3653.1414      -2846.6034
  -4227445.98846   1233554.32746  22212220.5414   22212224.5614
     -1623.9224      -1265.3944
  -8740106.30147  -5757279.45447  21347467.1434   21347470.5534
       234.4694        182.7034
   9376929.81946   7311214.71346  22959023.3544   22959027.7484
     -3605.1564      -2809.2134
  -7176073.41046  -5474568.22645  23410466.4794   23410470.2054
      1821.8754       1419.6434
  -3935619.30747  -3058022.71847  20909863.8774   20909867.6044
     -1449.7194      -1129.6514
 98  6 30 16  4 30.0020000  0  7G10G 4G 8G 5G 9G30G24
  -2805515.39445  -2058478.12444  24467185.1434   24467192.5764
      1994.1884       1553.9124
   9463261.90247   7373967.75546  22436009.4944   22436013.3504
     -3659.6094      -2851.6444
  -4202996.72346   1252605.69646  22216873.5334   22216877.5064
     -1636.0474      -1274.8424
  -8743569.19047  -5759977.80447  21346807.8384   21346811.2484
       227.2034        177.0414
   9431063.75446   7353396.97346  22969324.8074   22969329.2484
     -3612.7664      -2815.1424
  -7203370.15746  -5495838.38945  23405272.1894   23405275.9394
      1817.7194       1416.4044
  -3913796.72247  -3041018.10846  20914016.6274   20914020.4364
     -1459.9844      -1137.6504
 98  6 30 16  4 45.0020000  0  7G10G 4G 8G 5G 9G30G24
  -2835407.89645  -2081770.92744  24461497.6504   24461503.7444
      1991.5474       1551.8554
   9518204.24347   7416779.94346  22446464.5494   22446468.4754
     -3665.9844      -2856.6114
  -4178365.59346   1271798.76646  22221560.7134   22221564.6974
     -1648.0474      -1284.1924
  -8746922.51847  -5762590.78447  21346169.9864   21346173.3264
       219.9384        171.3804
   9485311.73246   7395668.10146  22979647.7214   22979652.1154
     -3620.2664      -2820.9864
  -7230605.99146  -5517061.08745  23400089.5334   23400093.6584
      1813.7344       1413.3004
  -3891821.79247  -3023894.79246  20918198.0334   20918201.9474
     -1469.8914      -1145.3694
 98  6 30 16  5  0.0020000  0  7G10G 4G 8G 5G 9G30G24
  -2865263.54345  -2105035.06643  24455816.1504   24455821.8114
      1989.0314       1549.8944
   9573240.79547   7459665.53746  22456937.8934   22456941.9124
     -3672.4224      -2861.6274
  -4153556.30446   1291130.66946  22226281.6044   22226285.5884
     -1660.0944      -1293.5804
  -8750167.92847  -5765119.67047  21345552.6274   21345555.9434
       212.5784        165.6454
   9539669.32246   7438024.63346  22989991.5574   22989995.7754
     -3627.4844      -2826.6114
  -7257782.93446  -5538237.91445  23394917.6974   23394921.7294
      1809.7344       1410.1834
  -3869702.29647  -3006658.82046  20922407.4004   20922411.3384
     -1479.4844      -1152.8454
 98  6 30 16  5 15.0020000  0  8G10G 4G 8G 6G 5G 9G30G24
  -2895079.95845  -2128268.62543  24450142.0724   24450148.8114
      1986.3754       1547.8254
   9628375.83747   7502627.88146  22467429.6194   22467433.4864
     -3679.0164      -2866.7654
  -4128565.45546   1310604.04246  22231037.0644   22231040.8964
     -1672.0784      -1302.9184
     -2432.77653                  25594169.9394
      1216.3284
  -8753299.71147  -5767560.01746  21344956.3934   21344959.6624
       204.8914        159.6554
   9594134.47246   7480464.97946  23000356.5804   23000361.0104
     -3634.5624      -2832.1274
  -7284899.19846  -5559367.44645  23389757.8144   23389761.6004
      1805.7034       1407.0414
  -3847439.05747  -2989310.85246  20926643.9634   20926648.0064
     -1489.0164      -1160.2724
 98  6 30 16  5 30.0020000  0  8G10G 4G 8G 6G 5G 9G30G24
  -2924855.72445  -2151470.43444  24444475.9554   24444483.6584
      1983.8444       1545.8524
   9683612.40747   7545669.33746  22477940.6584   22477944.6544
     -3685.8124      -2872.0624
  -4103393.11646   1330218.84246  22235827.3774   22235831.4794
     -1684.1254      -1312.3054
    -20658.55643                  25590701.3224
      1213.8134
  -8756314.83347  -5769909.45646  21344382.8144   21344386.2484
       197.1884        153.6534
   9648706.02646   7522988.24746  23010740.8224   23010745.1004
     -3641.5314      -2837.5574
  -7311954.60646  -5580449.56545  23384608.8074   23384612.5214
      1801.7814       1403.9854
  -3825030.94147  -2971849.98146  20930908.1274   20930911.9714
     -1498.6094      -1167.7484
 98  6 30 16  5 45.0020000  0  8G10G 4G 8G 6G 5G 9G30G24
  -2954593.14845  -2174642.40544  24438816.7994   24438823.4904
      1981.1564       1543.7584
   9738953.96147   7588792.59646  22488471.8144   22488475.6824
     -3693.1094      -2877.7484
  -4078039.97546   1349974.51746  22240651.8224   22240655.8424
     -1696.2504      -1321.7534
    -38846.26643                  25587240.6044
      1211.3134
  -8759211.52547  -5772166.61947  21343831.0884   21343834.6274
       189.0474        147.3094
   9703381.19246   7565592.24546  23021144.8464   23021149.4984
     -3648.4534      -2842.9504
  -7338951.87546  -5601486.36845  23379471.6824   23379475.3854
      1797.9064       1400.9664
  -3802479.45647  -2954277.39946  20935199.5494   20935203.2874
     -1508.2504      -1175.2604
 98  6 30 16  6  0.0020000  0  8G10G 4G 8G 6G 5G 9G30G24
  -2984293.59545  -2197785.57844  24433164.9634   24433171.2324
      1978.7664       1541.8954
   9794403.85846   7632000.27946  22499023.7294   22499027.7714
     -3700.3594      -2883.3974
  -4052509.41846   1369868.44646  22245510.1274   22245514.2524
     -1707.8754      -1330.8124
    -57002.68343                  25583785.6354
      1209.3914
  -8761989.10347  -5774330.96047  21343302.8544   21343306.2174
       181.2034        141.1974
   9758155.70346   7608273.64546  23031568.6504   23031573.1044
     -3654.8594      -2847.9424
  -7365894.16246  -5622480.33345  23374344.7604   23374348.9204
      1794.2814       1398.1414
  -3779785.38347  -2936593.71446  20939517.8854   20939521.5884
     -1517.7034      -1182.6264
 98  6 30 16  6 15.0020000  0  8G10G 4G 8G 6G 5G 9G30G24
  -3013955.13545  -2220898.48244  24427520.8074   24427526.4904
      1976.2664       1539.9474
   9849968.65747   7675297.49246  22509597.2914   22509601.3114
     -3708.1874      -2889.4974
  -4026802.66646   1389899.66946  22250402.0964   22250406.2914
     -1719.5944      -1339.9434
    -75127.62942                  25580337.1664
      1207.4224
  -8764646.02147  -5776401.28247  21342797.3304   21342800.5064
       173.1724        134.9394
   9813026.89846   7651030.39446  23042010.1354   23042014.3184
     -3661.1414      -2852.8374
  -7392777.60146  -5643428.44845  23369229.0024   23369232.7404
      1790.2194       1394.9764
  -3756947.83847  -2918798.22346  20943863.8304   20943867.5924
     -1527.1254      -1189.9684
 98  6 30 16  6 30.0020000  0  8G10G 4G 8G 6G 5G 9G30G24
  -3043578.40145  -2243981.48244  24421883.4084   24421890.3034
      1973.5004       1537.7924
   9905652.66247   7718687.60346  22520193.9164   22520198.0294
     -3716.3284      -2895.8404
  -4000919.16346   1410068.62146  22255327.5644   22255331.5844
     -1731.5004      -1349.2214
    -93223.45042      -938.96751  25576892.7684   25576898.1584
      1205.4064        939.2784
  -8767180.43047  -5778376.14146  21342314.9864   21342318.1504
       164.6884        128.3284
   9867991.71646   7693860.09146  23052469.4794   23052473.5684
     -3667.5004      -2857.7924
  -7419598.10446  -5664327.51245  23364125.3854   23364129.0644
      1785.8284       1391.5544
  -3733969.92647  -2900893.36346  20948236.3224   20948240.1074
     -1536.6724      -1197.4074
 98  6 30 16  6 45.0020000  0  8G10G 4G 8G 6G 5G 9G30G24
  -3073160.51845  -2267032.41544  24416254.2294   24416260.8504
      1970.7504       1535.6494
   9961457.35347   7762171.74546  22530813.1894   22530817.1864
     -3724.2664      -2902.0254
  -3974860.46746   1430374.08546  22260286.2444   22260290.4164
     -1742.9844      -1358.1704
   -111288.98142    -15016.02942  25573454.6974   25573462.4714
      1203.2974        937.6344
  -8769586.18847  -5780250.75246  21341857.2754   21341860.5214
       156.0784        121.6194
   9923051.63346   7736763.89746  23062947.2134   23062951.3384
     -3673.8444      -2862.7354
  -7446353.03746  -5685175.48345  23359033.5804   23359037.8114
      1781.4694       1388.1574
  -3710847.87847  -2882876.18846  20952636.3224   20952639.9554
     -1546.3444      -1204.9434
 98  6 30 16  7  0.0020000  0  8G10G 4G 8G 6G 5G 9G30G24
  -3102700.10245  -2290050.24844  24410632.7444   24410638.7684
      1967.9534       1533.4704
  10017381.35547   7805748.86546  22541455.2054   22541459.2484
     -3732.1414      -2908.1624
  -3948629.05946   1450814.12746  22265278.0254   22265282.1624
     -1754.3914      -1367.0584
   -129321.99942    -29067.68842  25570021.9004   25570029.8144
      1201.2194        936.0154
  -8771862.88747  -5782024.80446  21341423.8614   21341427.2364
       147.6254        115.0324
   9978207.32546   7779742.32346  23073443.3144   23073447.3464
     -3680.0944      -2867.6064
  -7473038.88046  -5705969.63245  23353955.8614   23353959.6354
      1776.7974       1384.5174
  -3687578.22447  -2864743.99446  20957064.5414   20957068.3144
     -1556.2034      -1212.6264
 98  6 30 16  7 15.0020000  0  8G10G 4G 8G 6G 5G 9G30G24
  -3132199.35845  -2313036.63443  24405019.6434   24405025.3854
      1965.2194       1531.3394
  10073421.32747   7849416.35346  22552119.1664   22552123.0214
     -3739.8284      -2914.1524
  -3922229.24946   1471385.38646  22270301.5574   22270305.7294
     -1765.6254      -1375.8124
   -147327.00742    -43097.65041  25566596.7684   25566606.1584
      1199.3754        934.5784
  -8774015.34947  -5783702.03846  21341014.1974   21341017.4084
       139.3754        108.6044
  10033453.55646   7822791.30746  23083956.2134   23083960.4324
     -3686.1414      -2872.3174
  -7499657.99746  -5726711.78545  23348890.2444   23348894.0644
      1772.4224       1381.1084
  -3664160.95747  -2846496.77946  20961520.6744   20961524.5294
     -1566.1724      -1220.3944
 98  6 30 16  7 30.0020000  0  8G10G 4G 8G 6G 5G 9G30G24
  -3161656.01145  -2335989.85344  24399414.4634   24399420.1464
      1962.4064       1529.1484
  10129576.52347   7893173.62146  22562805.1114   22562809.0614
     -3747.5164      -2920.1424
  -3895661.21146   1492087.74946  22275357.1664   22275361.4324
     -1776.7504      -1384.4814
   -165302.95342    -57104.83942  25563175.8934   25563183.8424
      1197.4224        933.0564
  -8776042.74547  -5785281.82846  21340628.4394   21340631.7444
       131.0004        102.0784
  10088794.84546   7865914.36546  23094486.8854   23094490.8574
     -3692.6724      -2877.4074
  -7526209.28646  -5747401.06745  23343837.7914   23343841.5884
      1767.7664       1377.4804
  -3640590.13647  -2828129.90846  20966006.0334   20966010.0414
     -1576.5474      -1228.4784
 98  6 30 16  7 45.0020000  0  8G10G 4G 8G 6G 5G 9G30G24
  -3191074.79245  -2358913.52244  24393815.4634   24393821.3114
      1960.1564       1527.3944
  10185844.53247   7937018.80046  22573512.9084   22573517.0574
     -3754.8594      -2925.8644
  -3868927.67846   1512919.05546  22280444.7134   22280448.9674
     -1787.7034      -1393.0154
   -183250.39442    -71089.90142  25559761.6744   25559770.5144
      1195.5634        931.6074
  -8777947.73147  -5786766.23046  21340265.9944   21340269.3464
       122.9694         95.8204
  10144232.13446   7909112.21946  23105036.6824   23105040.8774
     -3698.9534      -2882.3014
  -7552692.44446  -5768037.27545  23338798.1974   23338801.8894
      1763.3284       1374.0224
  -3616866.83947  -2809644.22946  20970520.2604   20970524.1744
     -1586.5784      -1236.2954
 98  6 30 16  8  0.0020000  0  8G10G 4G 8G 6G 5G 9G30G24
  -3220460.44145  -2381811.39243  24388223.9474   24388229.2094
      1957.9224       1525.6534
  10242220.70747   7980948.26346  22584240.8304   22584244.9324
     -3761.9534      -2931.3924
  -3842030.47346   1533877.89646  22285563.1974   22285567.4864
     -1798.6094      -1401.5144
   -201170.29642    -85053.39941  25556350.6194   25556360.3144
      1193.7504        930.1954
  -8779731.94947  -5788156.52446  21339926.5414   21339929.6354
       114.9534         89.5744
  10199763.51746   7952383.39646  23115604.0494   23115608.0684
     -3705.2664      -2887.2204
  -7579108.20646  -5788620.96745  23333771.0964   23333774.9164
      1758.7344       1370.4424
  -3592992.10447  -2791040.54446  20975063.6194   20975067.6154
     -1596.6874      -1244.1724
 98  6 30 16  8 15.0020000  0  8G10G 4G 8G 6G 5G 9G30G24
  -3249811.44845  -2404682.28644  24382638.6434   24382644.8304
      1955.4694       1523.7424
  10298703.00747   8024960.42446  22594989.0334   22594992.9714
     -3769.0314      -2936.9074
  -3814967.74746   1554965.72246  22290712.9864   22290716.7484
     -1809.8594      -1410.2804
   -219060.48242    -98993.84141  25552946.5254   25552955.9864
      1191.4844        928.4294
  -8781396.79947  -5789453.80546  21339609.5184   21339612.7644
       107.0164         83.3894
  10255391.72846   7995730.02546  23126189.8144   23126194.2324
     -3711.8594      -2892.3584
  -7605454.13946  -5809150.24445  23328757.5724   23328761.6274
      1754.0634       1366.8024
  -3568966.43847  -2772319.25346  20979635.6044   20979639.3074
     -1606.7504      -1252.0134
 98  6 30 16  8 30.0020000  0  8G10G 4G 8G 6G 5G 9G30G24
  -3279125.95845  -2427524.71644  24377060.6194   24377067.0294
      1953.1564       1521.9404
  10355287.75946   8069052.41446  22605756.8224   22605760.6784
     -3775.5004      -2941.9484
  -3787737.61646   1576183.98646  22295894.6504   22295898.6354
     -1820.8124      -1418.8154
   -236919.33842   -112909.80142  25549547.5884   25549553.1544
      1189.7194        927.0544
  -8782945.29947  -5790660.43146  21339314.9864   21339318.3734
        99.4694         77.5084
  10311117.76946   8039152.88446  23136793.9944   23136798.3184
     -3718.2344      -2897.3254
  -7631733.20246  -5829627.40945  23323757.1194   23323761.1864
      1749.8754       1363.5394
  -3544792.21647  -2753482.19946  20984235.8384   20984239.6004
     -1616.4694      -1259.5864
 98  6 30 16  8 45.0020000  0  8G10G 4G 8G 6G 5G 9G30G24
  -3308402.88445  -2450337.84744  24371488.9864   24371495.7134
      1950.4224       1519.8094
  10411967.90446   8113218.73746  22616542.6044   22616546.7524
     -3781.8594      -2946.9034
  -3760342.78446   1597530.59546  22301107.4394   22301111.4244
     -1831.9064      -1427.4594
   -254750.66342   -126804.32242  25546155.2214   25546161.4324
      1187.7344        925.5074
  -8784379.59347  -5791778.05446  21339041.9794   21339045.3654
        91.7504         71.4944
  10366940.76546   8082651.28846  23147416.6664   23147420.5924
     -3724.9224      -2902.5374
  -7657949.94946  -5850056.02945  23318768.2054   23318772.3544
      1745.6254       1360.2274
  -3520469.97447  -2734529.81246  20988864.1824   20988867.9904
     -1626.6254      -1267.5004
 98  6 30 16  9  0.0020000  0  8G10G 4G 8G 6G 5G 9G30G24
  -3337639.79445  -2473119.83044  24365925.1824   24365931.3114
      1947.7974       1517.7644
  10468740.51347   8157457.10246  22627345.9944   22627350.1664
     -3787.7814      -2951.5184
  -3732781.55846   1619006.85946  22306352.5644   22306356.6194
     -1842.9374      -1436.0554
   -272552.33242   -140675.73342  25542766.5334   25542770.7524
      1185.8754        924.0584
  -8785700.33647  -5792807.20446  21338790.6894   21338794.0414
        84.4224         65.7834
  10422863.98846   8126227.79746  23158058.7444   23158062.7404
     -3731.4534      -2907.6264
  -7684103.05346  -5870435.04345  23313791.4794   23313795.6394
      1741.4694       1356.9894
  -3495995.26747  -2715458.61346  20993521.4864   20993525.0844
     -1636.6564      -1275.3174
 98  6 30 16  9 15.0020000  0  8G10G 4G 8G 6G 5G 9G30G24
  -3366836.95545  -2495870.81144  24360369.4244   24360376.0334
      1945.2504       1515.7794
  10525602.02946   8201764.75846  22638166.3304   22638170.2914
     -3793.6874      -2956.1204
  -3705053.39646   1640613.20746  22311629.0334   22311633.2754
     -1854.1414      -1444.7854
   -290327.31742   -154526.38742  25539384.6824   25539391.0804
      1184.1724        922.7314
  -8786911.77347  -5793751.18246  21338560.1044   21338563.4794
        77.1094         60.0854
  10478884.66546   8169880.24646  23168719.1974   23168723.0534
     -3737.9224      -2912.6664
  -7710193.21146  -5890765.02345  23308826.8854   23308830.5184
      1737.3444       1353.7744
  -3471371.31247  -2696271.11846  20998207.1744   20998210.9364
     -1646.4374      -1282.9384
 98  6 30 16  9 30.0020000  0  8G10G 4G 8G 6G 5G 9G30G24
  -3395997.00445  -2518592.87944  24354819.8544   24354825.5964
      1942.7664       1513.8434
  10582552.47846   8246141.69846  22649003.6824   22649007.7484
     -3799.7194      -2960.8204
  -3677155.87146   1662351.52846  22316937.7684   22316941.8344
     -1865.5784      -1453.6974
   -308076.65542   -168357.04842  25536007.4944   25536014.6824
      1182.3754        921.3314
  -8788010.91147  -5794607.64747  21338351.0254   21338354.4244
        69.4384         54.1074
  10535003.87246   8213609.46946  23179398.1974   23179402.3114
     -3744.6874      -2917.9384
  -7736222.20246  -5911047.32945  23303873.3304   23303877.1624
      1733.1254       1350.4874
  -3446602.60947  -2676970.83046  21002920.8464   21002924.6434
     -1656.0314      -1290.4144
 98  6 30 16  9 45.0020000  0  8G10G 4G 8G 6G 5G 9G30G24
  -3425120.02745  -2541286.10444  24349277.5184   24349283.8344
      1940.2664       1511.8954
  10639593.35747   8290589.11146  22659858.2364   22659862.2214
     -3805.7194      -2965.4954
  -3649086.68646   1684223.60746  22322279.1194   22322283.4324
     -1877.0314      -1462.6224
   -325798.89143   -182166.50142  25532635.8144   25532641.9674
      1180.5634        919.9194
  -8788995.17347  -5795374.60046  21338163.6354   21338166.9634
        61.7974         48.1534
  10591224.61246   8257417.80546  23190096.3774   23190100.7014
     -3751.3444      -2923.1254
  -7762187.72246  -5931280.18346  23298932.3464   23298936.2954
      1729.0004       1347.2734
  -3421693.11447  -2657560.83846  21007660.8774   21007664.8264
     -1665.1874      -1297.5494
 98  6 30 16 10  0.0020000  0  8G10G 4G 8G 6G 5G 9G30G24
  -3454201.20345  -2563946.68444  24343744.1044   24343751.4204
      1937.1564       1509.4724
  10696724.35047   8335106.74746  22670729.9324   22670733.7524
     -3811.7034      -2970.1584
  -3620842.88246   1706231.74646  22327653.9554   22327657.7524
     -1888.8124      -1471.8024
   -343491.66342   -195953.10442  25529267.8934   25529270.6114
      1178.4694        918.2874
  -8789863.05147  -5796050.86747  21337998.7444   21338002.0494
        53.9064         42.0054
  10647545.00646   8301303.79046  23200814.1974   23200818.2404
     -3758.0164      -2928.3244
  -7788092.33046  -5951465.56845  23294002.9084   23294006.7874
      1724.9224       1344.0954
  -3396645.07347  -2638042.88846  21012427.1894   21012431.0214
     -1674.5474      -1304.8424
 98  6 30 16 10 15.0020000  0  8G10G 4G 8G 6G 5G 9G30G24
  -3483232.28745  -2586568.30344  24338219.6504   24338226.0724
      1933.7194       1506.7944
  10753945.11146   8379694.32746  22681618.4864   22681622.3894
     -3817.6564      -2974.7974
  -3592423.05946   1728377.05846  22333062.0184   22333066.0844
     -1900.4224      -1480.8484
   -361153.53943   -209715.64441  25525907.8934   25525913.5294
      1176.5004        916.7534
  -8790612.96347  -5796635.21146  21337855.7444   21337858.8964
        46.1724         35.9784
  10703965.57446   8345267.83846  23211550.5804   23211554.7294
     -3764.6254      -2933.4744
  -7813935.60146  -5971603.16546  23289084.9634   23289088.6544
      1720.9534       1341.0024
  -3371458.01347  -2618416.60746  21017220.4164   21017224.2484
     -1683.5784      -1311.8794
 98  6 30 16 10 30.0020000  0  8G10G 4G 8G 6G 5G 9G30G24
  -3512210.02345  -2609148.30244  24332705.7054   24332712.1274
      1930.1094       1503.9814
  10811256.84247   8424352.79446  22692525.0024   22692528.5644
     -3823.8284      -2979.6064
  -3563828.42046   1750658.57346  22338503.2214   22338507.0764
     -1912.0474      -1489.9074
   -378783.02343   -223452.84842  25522553.4084   25522558.5294
      1174.2194        914.9764
  -8791245.54947  -5797128.13046  21337735.5494   21337738.6664
        38.1884         29.7564
  10760485.54746   8389309.33746  23222305.9004   23222310.2484
     -3771.2344      -2938.6244
  -7839717.83046  -5991693.19345  23284178.7754   23284182.2094
      1716.6724       1337.6664
  -3346133.90247  -2598683.53646  21022039.0644   21022043.0024
     -1692.9064      -1319.1484
 98  6 30 16 10 45.0020000  0  8G10G 4G 8G 6G 5G 9G30G24
  -3541136.45445  -2631688.31644  24327201.4794   24327207.3034
      1926.7974       1501.4004
  10868659.44447   8469082.07246  22703448.1194   22703452.1044
     -3829.8124      -2984.2694
  -3535063.06846   1773073.12246  22343977.3934   22343981.5764
     -1923.2974      -1498.6734
   -396382.92242   -237167.06242  25519202.0334   25519207.9164
      1172.4224        913.5754
  -8791757.87847  -5797527.34947  21337637.8614   21337641.0494
        30.1414         23.4864
  10817101.69546   8433425.77946  23233079.7054   23233083.8544
     -3777.5474      -2943.5434
  -7865435.37746  -6011732.81946  23279284.6584   23279288.1394
      1712.3284       1334.2824
  -3320671.33447  -2578842.58146  21026884.3544   21026888.2444
     -1702.0944      -1326.3074
 98  6 30 16 11  0.0020000  0  8G10G 4G 8G 6G 5G 9G30G24
  -3570014.22345  -2654190.42844  24321705.9714   24321712.2294
      1923.4844       1498.8194
  10926151.62447   8513881.14446  22714388.8144   22714392.6354
     -3835.9374      -2989.0424
  -3506128.90346   1795619.20446  22349483.2444   22349487.2754
     -1934.7664      -1507.6104
   -413954.97143   -250859.52341  25515859.4394   25515865.5924
      1170.4224        912.0174
  -8792149.60647  -5797832.58847  21337563.4474   21337566.5644
        21.9694         17.1194
  10873811.91246   8477615.53146  23243871.2444   23243875.5684
     -3783.9224      -2948.5114
  -7891086.78446  -6031720.90945  23274403.2604   23274407.1154
      1707.7504       1330.7144
  -3295071.54047  -2558894.69046  21031755.9794   21031759.8694
     -1711.3284      -1333.5024
 98  6 30 16 11 15.0020000  0  8G10G 4G 8G 6G 5G 9G30G24
  -3598843.62545  -2676654.83244  24316219.5724   24316225.3854
      1920.4064       1496.4204
  10983735.38347   8558751.57746  22725346.4324   22725350.2294
     -3841.9844      -2993.7544
  -3477024.64846   1818297.83346  22355021.5494   22355025.8034
     -1945.8444      -1516.2424
   -431498.39943   -264529.76142  25512521.1974   25512527.6314
      1168.6414        910.6294
  -8792419.89047  -5798043.19947  21337511.9794   21337515.1074
        14.0004         10.9094
  10930614.22246   8521877.03146  23254680.6274   23254685.1624
     -3789.7344      -2953.0404
  -7916672.00846  -6051657.42145  23269534.9394   23269538.6544
      1703.6094       1327.4884
  -3269335.03347  -2538840.27146  21036653.3934   21036657.2834
     -1720.2504      -1340.4554
 98  6 30 16 11 30.0020000  0  8G10G 4G 8G 6G 5G 9G30G24
  -3627626.32845  -2699082.83545  24310742.0804   24310748.7364
      1917.2034       1493.9254
  11041412.97046   8603695.12946  22736322.1974   22736326.1354
     -3848.4224      -2998.7704
  -3447752.86646   1841106.99246  22360591.6114   22360595.8894
     -1957.0944      -1525.0084
   -449013.72543   -278177.97041  25509188.5104   25509194.3574
      1166.7034        909.1194
  -8792567.78147  -5798158.43147  21337483.9474   21337486.9944
         5.6884          4.4324
  10987505.10346   8566207.55546  23265506.2994   23265510.9984
     -3795.7504      -2957.7274
  -7942195.86846  -6071546.13045  23264677.8544   23264682.0144
      1699.5944       1324.3594
  -3243463.28047  -2518680.46546  21041576.7604   21041580.6044
     -1729.3914      -1347.5774
 98  6 30 16 11 45.0020000  0  8G10G 4G 8G 6G 5G 9G30G24
  -3656357.20445  -2721470.49744  24305274.5724   24305281.1114
      1913.5944       1491.1124
  11099188.23146   8648714.78446  22747316.3774   22747320.3504
     -3854.8594      -3003.7874
  -3418313.16546   1864047.00246  22366194.1354   22366198.1434
     -1968.1564      -1533.6284
   -466499.56442   -291803.34042  25505860.1744   25505865.8934
      1164.7814        907.6224
  -8792590.65047  -5798176.25347  21337479.5884   21337482.6354
        -2.5474         -1.9854
  11044487.80046   8610609.62946  23276350.0884   23276354.7404
     -3801.9064      -2962.5244
  -7967659.20946  -6091387.66746  23259832.4794   23259836.3934
      1695.6094       1321.2544
  -3217452.29447  -2498412.16846  21046526.4474   21046530.3264
     -1738.7664      -1354.8824
 98  6 30 16 12  0.0020000  0  8G10G 4G 8G 6G 5G 9G30G24
  -3685035.07145  -2743816.82644  24299818.1114   24299824.4864
      1909.9844       1488.3004
  11157055.40046   8693806.05746  22758328.2604   22758332.1504
     -3860.8754      -3008.4744
  -3388710.83446   1887113.73146  22371827.1044   22371830.9004
     -1978.9064      -1542.0054
   -483957.87443   -305407.26342  25502537.3614   25502541.9084
      1162.9384        906.1854
  -8792493.97347  -5798100.91647  21337497.8694   21337500.8694
       -10.4844         -8.1704
  11101559.14346   8655080.76746  23287210.4714   23287215.0764
     -3807.6724      -2967.0174
  -7993067.36546  -6111186.21246  23254997.0644   23255000.7094
      1692.0004       1318.4424
  -3191301.88147  -2478035.22346  21051502.9084   21051506.8574
     -1748.0944      -1362.1514
 98  6 30 16 12 15.0020000  0  8G10G 4G 8G 6G 5G 9G30G24
  -3713658.21245  -2766120.53145  24294370.8144   24294377.0724
      1906.5944       1485.6574
  11215015.61446   8738969.83446  22769357.6194   22769361.6044
     -3867.0474      -3013.2834
  -3358945.96846   1910307.11646  22377491.3934   22377495.2134
     -1989.5784      -1550.3214
   -501389.08243   -318989.98642  25499221.6194   25499228.2054
      1161.3914        904.9804
  -8792277.63147  -5797932.33847  21337539.1194   21337542.0254
       -18.2344        -14.2094
  11158718.85146   8699620.76846  23298087.5884   23298092.3574
     -3813.5314      -2971.5834
  -8018417.54946  -6130939.58346  23250173.0884   23250176.9434
      1688.0784       1315.3864
  -3165008.87247  -2457547.16446  21056506.0184   21056509.9554
     -1757.5004      -1369.4814
 98  6 30 16 12 30.0020000  0  8G10G 4G 8G 6G 5G 9G30G24
  -3742234.26145  -2788387.50344  24288932.8614   24288939.6004
      1903.6724       1483.3814
  11273067.86646   8784205.32946  22780404.8224   22780408.6314
     -3873.2194      -3018.0934
  -3329023.36346   1933623.41546  22383185.1894   22383189.1274
     -2000.0474      -1558.4784
   -518799.93743   -332556.92942  25495907.8854   25495913.9204
      1160.1724        904.0304
  -8791946.71947  -5797674.48347  21337602.0804   21337605.0574
       -25.8444        -20.1384
  11215965.76346   8744228.71346  23308981.2604   23308985.8544
     -3819.3284      -2976.1004
  -8043708.75546  -6150646.99646  23245360.2754   23245364.1664
      1684.1414       1312.3174
  -3138576.36547  -2436950.40946  21061536.1504   21061539.9474
     -1766.7974      -1376.7254
 98  6 30 16 12 45.0020000  0  8G10G 4G 8G 6G 5G 9G30G24
  -3770768.12845  -2810621.67044  24283502.5724   24283508.2214
      1900.8134       1481.1534
  11331212.44846   8829512.76946  22791469.2214   22791473.2054
     -3879.4374      -3022.9384
  -3298943.18946   1957062.49746  22388909.5644   22388913.3384
     -2010.7194      -1566.7944
   -536193.85243   -346110.61442  25492597.6114   25492603.2254
      1159.0164        903.1294
  -8791502.70147  -5797328.49347  21337686.5804   21337689.4634
       -33.4224        -26.0434
  11273299.36346   8788904.21446  23319891.5104   23319896.2914
     -3825.2504      -2980.7144
  -8068939.59246  -6170307.35946  23240559.1974   23240563.1354
      1679.9384       1309.0424
  -3112003.61947  -2416244.37546  21066592.6824   21066596.3034
     -1776.2974      -1384.1274
 98  6 30 16 13  0.0020000  0  8G10G 4G 8G 6G 5G 9G30G24
  -3799259.40745  -2832822.58045  24278081.6584   24278088.3264
      1897.9224       1478.9004
  11389448.15546   8874891.21246  22802551.2294   22802555.0024
     -3885.4064      -3027.5894
  -3268702.65346   1980626.52646  22394664.3304   22394668.2324
     -2021.4374      -1575.1464
   -553572.51043   -359652.39543  25489291.3464   25489298.8504
      1158.0314        902.3624
  -8790947.04747  -5796895.51447  21337792.4554   21337795.3504
       -40.7194        -31.7294
  11330721.46346   8833648.67346  23330818.3694   23330822.6934
     -3831.1254      -2985.2924
  -8094110.97946  -6189921.41046  23235769.2604   23235773.5964
      1676.1884       1306.1204
  -3085289.92547  -2395428.51046  21071676.0964   21071680.0454
     -1785.6094      -1391.3844
 98  6 30 16 13 15.0020000  0  8G10G 4G 8G 6G 5G 9G30G24
  -3827705.99245  -2854988.67245  24272668.0104   24272674.8544
      1894.7814       1476.4534
  11447774.82646   8920340.53946  22813650.4794   22813654.4514
     -3891.7194      -3032.5084
  -3238299.25446   2004317.47246  22400449.6354   22400453.6074
     -2032.5314      -1583.7914
   -570933.94443   -373180.79942  25485987.5024   25485993.7364
      1156.5314        901.1934
  -8790280.88247  -5796376.42047  21337919.1584   21337922.0644
       -48.3284        -37.6584
  11388233.03846   8878462.84646  23341762.6434   23341767.0614
     -3837.2814      -2990.0894
  -8119225.22446  -6209490.93146  23230990.1274   23230994.0294
      1672.1724       1302.9914
  -3058435.46647  -2374502.96146  21076786.4164   21076790.3184
     -1795.2034      -1398.8604
 98  6 30 16 13 30.0020000  0  8G10G 4G 8G 6G 5G 9G30G24
  -3856108.84145  -2877120.70044  24267263.4714   24267269.1784
      1892.1564       1474.4074
  11506194.22346   8965862.12146  22824767.5574   22824771.7294
     -3897.6254      -3037.1104
  -3207732.38446   2028135.79646  22406266.4554   22406270.7794
     -2043.2194      -1592.1194
   -588273.87143   -386692.38642  25482687.3384   25482694.6194
      1155.3444        900.2684
  -8789502.90747  -5795770.20547  21338067.3544   21338070.2254
       -55.5314        -43.2714
  11445834.52646   8923347.08846  23352723.4714   23352728.0294
     -3843.0944      -2994.6194
  -8144281.34746  -6229015.15146  23226222.0104   23226226.0064
      1668.4694       1300.1064
  -3031438.92047  -2353466.69746  21081923.5644   21081927.3144
     -1804.4064      -1406.0314
 98  6 30 16 13 45.0020000  0  8G10G 4G 8G 6G 5G 9G30G24
  -3884469.83445  -2899220.13245  24261866.1894   24261872.1314
      1889.2974       1472.1794
  11564703.01546   9011453.35646  22835901.0884   22835904.9904
     -3903.4844      -3041.6764
  -3177002.22546   2052081.35646  22412114.1504   22412118.4514
     -2054.0944      -1600.5934
   -605593.99543   -400188.56242  25479389.8464   25479396.9634
      1154.0004        899.2214
  -8788615.72947  -5795078.89647  21338236.1194   21338238.9904
       -62.7194        -48.8724
  11503527.13046   8968302.33246  23363702.8934   23363707.3814
     -3849.2664      -2999.4284
  -8169277.60546  -6248492.73446  23221465.6664   23221469.8144
      1664.3594       1296.9034
  -3004303.82447  -2332322.47246  21087087.3074   21087091.3264
     -1813.5474      -1413.1534
 98  6 30 16 14  0.0020000  0  8G10G 4G 8G 6G 5G 9G30G24
  -3912788.89245  -2921286.87344  24256477.4004   24256483.7174
      1886.5784       1470.0614
  11623298.47946   9057112.13546  22847051.2604   22847055.1154
     -3909.2974      -3046.2054
  -3146109.26446   2076153.77646  22417992.8614   22417996.9514
     -2065.0624      -1609.1404
   -622893.48143   -413668.67242  25476099.4714   25476105.8814
      1152.5164        898.0644
  -8787621.47347  -5794304.15547  21338425.3464   21338428.3224
       -69.9224        -54.4854
  11561311.27146   9013328.90346  23374698.6044   23374703.0104
     -3855.2974      -3004.1274
  -8194210.42646  -6267920.88646  23216721.1504   23216725.1464
      1659.8914       1293.4214
  -2977033.72047  -2311073.04446  21092276.6504   21092280.6114
     -1822.5004      -1420.1304
 98  6 30 16 14 15.0020000  0  8G10G 4G 8G 6G 5G 9G30G24
  -3941071.38745  -2943325.10544  24251094.7364   24251100.9824
      1884.2194       1468.2224
  11681979.55946   9102837.62546  22858218.2294   22858222.2254
     -3915.1094      -3050.7354
  -3115052.65246   2100353.71146  22423902.7524   22423906.8074
     -2076.0474      -1617.6994
   -640172.77443   -427133.03742  25472811.7134   25472816.8344
      1151.2034        897.0414
  -8786520.82247  -5793446.49947  21338634.4084   21338637.5254
       -77.0784        -60.0614
  11619181.09546   9058422.24046  23385710.6584   23385715.1354
     -3860.8914      -3008.4864
  -8219076.02546  -6287296.65046  23211989.0024   23211992.7644
      1655.2814       1289.8304
  -2949632.64147  -2289721.55546  21097491.0104   21097494.8184
     -1831.1724      -1426.8874
 98  6 30 16 14 30.0020000  0  8G10G 4G 8G 6G 5G 9G30G24
  -3969318.60845  -2965335.86145  24245720.6894   24245726.3734
      1882.0474       1466.5304
  11740749.98946   9148632.73446  22869401.7684   22869405.6704
     -3920.9064      -3055.2524
  -3083830.17946   2124682.89146  22429844.1974   22429848.4864
     -2086.9694      -1626.2094
   -657430.99343   -440580.97642  25469527.4864   25469533.7914
      1149.8284        895.9704
  -8785310.62647  -5792503.48847  21338864.9244   21338867.9364
       -84.3284        -65.7104
  11677136.04546   9103581.90446  23396739.3614   23396743.8854
     -3866.4064      -3012.7844
  -8243871.28846  -6306617.61446  23207270.5104   23207274.2834
      1650.8134       1286.3474
  -2922100.88947  -2268268.24346  21102730.1044   21102733.8304
     -1839.7194      -1433.5474
 98  6 30 16 14 45.0020000  0  8G10G 4G 8G 6G 5G 9G30G24
  -3997533.11745  -2987321.13645  24240351.0574   24240356.7294
      1879.7344       1464.7284
  11799606.13846   9194494.63946  22880601.9714   22880605.8964
     -3926.6564      -3059.7324
  -3052443.73046   2149139.85246  22435816.8144   22435821.1504
     -2098.0164      -1634.8174
   -674667.48344   -454012.01843  25466247.2054   25466254.9324
      1148.2504        894.7404
  -8783989.77747  -5791474.25447  21339116.3544   21339119.3654
       -91.9064        -71.6154
  11735171.04746   9148803.95646  23407782.5724   23407787.0144
     -3871.6564      -3016.8754
  -8268601.63746  -6325887.99246  23202564.8694   23202568.5494
      1646.5634       1283.0364
  -2894441.68347  -2246715.62346  21107993.4864   21107997.3654
     -1848.2974      -1440.2314
 98  6 30 16 15  0.0020000  0  8G10G 4G 8G 6G 5G 9G30G24
  -4025707.09045  -3009274.80644  24234989.6974   24234995.1464
      1876.8444       1462.4764
  11858550.40246   9240425.20246  22891818.6824   22891822.6544
     -3932.4534      -3064.2494
  -3020887.74846   2173728.90446  22441821.5964   22441825.6744
     -2109.2814      -1643.5964
   -691874.87743   -467420.35142  25462973.3694   25462978.5724
      1146.1724        893.1214
  -8782551.19447  -5790353.28347  21339390.0414   21339392.9824
       -99.9224        -77.8614
  11793287.38746   9194089.38246  23418841.8224   23418846.4754
     -3877.1094      -3021.1244
  -8293266.41546  -6345107.27946  23197870.6354   23197874.4554
      1642.2194       1279.6514
  -2866650.98647  -2225060.53646  21113281.9474   21113285.6974
     -1857.0314      -1447.0374
 98  6 30 16 15 15.0030000  0  8G10G 4G 8G 6G 5G 9G30G24
  -4053840.42445  -3031196.85645  24229636.2884   24229642.3944
      1874.0474       1460.2964
  11917583.29046   9286424.83346  22903052.1944   22903056.1794
     -3938.0624      -3068.6204
  -2989164.12346   2198448.59646  22447858.5774   22447862.5504
     -2120.1724      -1652.0824
   -709053.86244   -480806.55343  25459704.7024   25459711.4764
      1144.1564        891.5504
  -8780991.48747  -5789137.92447  21339687.0074   21339690.0194
      -108.0004        -84.1564
  11851486.33446   9239439.16946  23429916.6554   23429921.1324
     -3882.2034      -3025.0934
  -8317870.41646  -6364279.20646  23193188.8974   23193192.9174
      1638.0634       1276.4124
  -2838730.12347  -2203304.02546  21118594.8664   21118598.8154
     -1865.5164      -1453.6494
 98  6 30 16 15 30.0030000  0  8G10G 4G 8G 6G 5G 9G30G24
  -4081929.28145  -3053084.18845  24224291.0854   24224297.0154
      1871.2034       1458.0804
  11976698.91446   9332488.91846  22914301.5464   22914305.5194
     -3943.9534      -3073.2104
  -2957278.75646   2223294.31646  22453926.3124   22453930.0974
     -2131.1094      -1660.6054
   -726199.52143   -494166.79343  25456441.2724   25456447.3434
      1142.0314        889.8944
  -8779308.55047  -5787826.54547  21340007.0774   21340009.9954
      -116.2974        -90.6214
  11909759.11346   9284846.48946  23441005.7024   23441010.1674
     -3887.4224      -3029.1604
  -8342406.93046  -6383398.54846  23188519.8584   23188523.6904
      1633.5474       1272.8944
  -2810682.72647  -2181448.91246  21123932.3274   21123936.4404
     -1874.0474      -1460.2964
 98  6 30 16 15 45.0030000  0  8G10G 4G 8G 6G 5G 9G30G24
  -4109973.07745  -3074936.42945  24218954.2414   24218959.8664
      1867.9694       1455.5604
  12035902.89346   9378621.86646  22925567.7574   22925572.0694
     -3949.8284      -3077.7884
  -2925229.14846   2248268.01646  22460025.2654   22460029.4134
     -2142.0164      -1669.1034
   -743313.11744   -507502.00342  25453184.6474   25453189.8624
      1139.9534        888.2754
  -8777500.85447  -5786417.95047  21340351.2574   21340354.3744
      -124.6724        -97.1474
  11968110.22146   9330314.85146  23452110.1794   23452114.8084
     -3892.6724      -3033.2514
  -8366875.06546  -6402464.59946  23183864.0154   23183867.8004
      1628.9064       1269.2784
  -2782506.22647  -2159493.20746  21129293.8514   21129297.8944
     -1882.7194      -1467.0544
 98  6 30 16 16  0.0030000  0  8G10G 4G 8G 6G 5G 9G30G24
  -4137967.04345  -3096749.87245  24213627.2104   24213632.5304
      1864.6254       1452.9554
  12095194.91646   9424823.41346  22936850.6474   22936854.6794
     -3955.7034      -3082.3664
  -2893019.14746   2273366.70246  22466154.6014   22466158.8544
     -2152.5784      -1677.3344
   -760398.44144   -520815.25843  25449932.7804   25449939.0734
      1138.1414        886.8634
  -8775567.24047  -5784911.23847  21340718.9444   21340721.9794
      -133.1564       -103.7584
  12026539.67546   9375844.25446  23463228.9834   23463233.8234
     -3897.8124      -3037.2564
  -8391273.84146  -6421476.61446  23179220.5694   23179224.8004
      1624.3134       1265.6984
  -2754200.35647  -2137436.68946  21134680.2884   21134684.3544
     -1891.3914      -1473.8114
 98  6 30 16 16 15.0030000  0  8G10G 4G 8G 6G 5G 9G30G24
  -4165911.50445  -3118524.68944  24208309.2104   24208314.8474
      1861.2194       1450.3004
  12154574.74746   9471093.37546  22948150.3904   22948154.5034
     -3961.6874      -3087.0294
  -2860650.80846   2298588.77046  22472313.7654   22472317.6794
     -2163.2974      -1685.6864
   -777457.27143   -534107.79842  25446686.4834   25446692.6594
      1136.2344        885.3774
  -8773504.28947  -5783303.74547  21341111.4604   21341114.6834
      -142.0164       -110.6624
  12085044.28346   9421432.22746  23474361.5154   23474366.2374
     -3902.8914      -3041.2134
  -8415603.07946  -6440434.43946  23174590.7184   23174594.6674
      1619.5164       1261.9604
  -2725763.79147  -2115278.33446  21140091.7804   21140095.9644
     -1900.3284      -1480.7754
 98  6 30 16 16 30.0030000  0  8G10G 4G 8G 6G 5G 9G30G24
  -4193803.89745  -3140258.97245  24203001.3274   24203007.3514
      1857.7344       1447.5854
  12214043.01846   9517432.26446  22959466.6714   22959471.0304
     -3967.3754      -3091.4614
  -2828122.81046   2323935.24046  22478503.6014   22478507.8904
     -2173.7194      -1693.8074
   -794487.50343   -547378.08042  25443446.0694   25443451.5774
      1134.4694        884.0024
  -8771308.12647  -5781592.44947  21341529.5774   21341532.8584
      -150.8284       -117.5284
  12143626.73446   9467080.86746  23485509.5694   23485514.4094
     -3908.1254      -3045.2924
  -8439862.21846  -6459337.64346  23169974.6554   23169978.6284
      1615.0474       1258.4784
  -2697190.85947  -2093013.71746  21145529.0774   21145533.0624
     -1909.3754      -1487.8254
